     2              OBSERVATION DATA    GPS                 RINEX VERSION / TYPE
ASRINEXO-V2.6.2-LH IGPP 29-APR-1996                         PGM / RUN BY / DATE
                                                            COMMENT
Original Marker Name: BLUFF 1933                            COMMENT
Campaign Name: Southern Islands 96                          COMMENT
4-Character Station Name: BLUF                              COMMENT
6-Character Antenna Code: DMRCHT                            COMMENT
Vertical Measurement Point: BCR                             COMMENT
Vertical Offset to Rinex Ref. Point: 0.0349                 COMMENT
Radial Measurement Point: ECF                               COMMENT
Radial Offset to Rinex Ref. Point: 0.1896                   COMMENT
Antenna Height from Field Measurement: 0.9790 m             COMMENT
Additional Antenna Identification Info.:                    COMMENT
Turborogue and Ashtech Choke Ring                           COMMENT
Original XYZ: -2558777.6503 -4709030.4176 3447244.1356      COMMENT
New XYZ position is based on association with SCEC monument COMMENT
E1C5Y1V0+0011. Position of that monument is believed to be  COMMENT
valid to within 1 m horizontally; vertical accuracy         COMMENT
should be no worse than 3-times this value.                 COMMENT
                                                            COMMENT
Revised Rinex header created by UCSD GPS archive for        COMMENT
GSAC on 05-Apr-1999 (1999:095) 19:02:51 GMT                 COMMENT
For assistance contact dagnew@ucsd.edu or hjohnson@ucsd.edu COMMENT
                                                            COMMENT
BLUFF 1933                                                  MARKER NAME
DCA SCRIPPS INSTITUTION OF OCEANOGRAPHY                     OBSERVER / AGENCY
385 ASHTECH Z12-XII3 1E82                                   REC # / TYPE / VERS
735 DORNE-MARGOL. TYPE T                                    ANT # / TYPE
 -2558686.0000 -4708878.0000  3447307.0000                  APPROX POSITION XYZ
        0.9256        0.0000        0.0000                  ANTENNA: DELTA H/E/N
     1     1     0                                          WAVELENGTH FACT L1/2
     6    C1    L1    L2    P1    P2    S1                  # / TYPES OF OBSERV
    30                                                      INTERVAL
  1996     4    21     0     0   30.000000                  TIME OF FIRST OBS
  1996     4    21    23    59   30.000000                  TIME OF LAST OBS
     0                                                      # OF SATELLITES
                                                            END OF HEADER
 96  4 21  0  0 30.0000000  0  7 16 06 04 09 24 05 20
  22011642.999   -23119673.45646 -17990048.42648  22011642.4974   22011648.7954
       195.000
  22988731.837   -19120072.63946 -14888590.64248  22988731.7324   22988737.1324
       178.000
  24509634.923   -18168629.90046 -13591524.99447  24509635.1424   24509640.4084
       149.000
  24576634.716   -14701021.49646 -10872437.23747  24576634.5194   24576642.1954
       153.000
  21813335.790   -32017376.79146 -24043983.94448  21813335.6124   21813341.2284
       203.000
  20486963.903   -37667704.22347 -29330568.25148  20486963.4104   20486968.3354
       219.000
  21151113.472   -27311629.37146 -20996710.74948  21151113.2794   21151118.6874
       208.000
 96  4 21  0  1  0.0000000  0  7 16 06 04 09 24 05 20
  21995692.867   -23203491.72246 -18055361.33048  21995692.3494   21995698.6704
       196.000
  22972831.432   -19203629.73446 -14953700.03348  22972831.3504   22972836.7484
       178.000
  24523930.201   -18093507.87046 -13532988.37147  24523930.3664   24523935.6994
       149.000
  24589816.060   -14631753.40646 -10818462.23947  24589815.8954   24589823.6034
       152.000
  21821569.750   -31974107.00646 -24010267.23348  21821569.5624   21821575.1804
       203.000
  20485074.118   -37677635.18847 -29338306.66548  20485073.6094   20485078.5434
       219.000
  21137327.957   -27384072.67546 -21053160.05848  21137327.7434   21137333.1304
       209.000
 96  4 21  0  1 30.0000000  0  7 16 06 04 09 24 05 20
  21979820.552   -23286901.19046 -18120355.69048  21979820.0374   21979826.3454
       196.000
  22956935.347   -19287164.13046 -15018791.74248  22956935.2954   22956940.6724
       178.000
  24538219.466   -18018417.34746 -13474476.29647  24538219.6944   24538224.9414
       149.000
  24602987.677   -14562536.33746 -10764526.97747  24602987.4464   24602995.2264
       150.000
  21829843.545   -31930627.85246 -23976387.38048  21829843.3744   21829848.9844
       203.000
  20483287.261   -37687025.03547 -29345623.42948  20483286.7764   20483291.7104
       219.000
  21123626.699   -27456073.16146 -21109264.31948  21123626.4884   21123631.8804
       209.000
 96  4 21  0  2  0.0000000  0  7 16 06 04 09 24 05 20
  21964019.589   -23369935.71246 -18185057.89048  21964019.0764   21964025.3564
       196.000
  22941041.711   -19370685.67246 -15083873.43148  22941041.5884   22941047.0294
       179.000
  24552500.143   -17943372.15346 -13415999.53947  24552500.3574   24552505.5864
       149.000
  24616142.771   -14493405.86146 -10710659.19647  24616142.5694   24616150.3954
       149.000
  21838149.857   -31886977.92246 -23942374.44948  21838149.6834   21838155.3014
       203.000
  20481594.046   -37695922.89547 -29352556.82848  20481593.5484   20481598.5114
       219.000
  21110006.225   -27527649.04546 -21165037.72348  21110006.0174   21110011.3974
       209.000
 96  4 21  0  2 30.0000000  0  7 16 06 04 09 24 05 20
  21948302.272   -23452530.63546 -18249417.53848  21948301.7874   21948308.0604
       197.000
  22925160.474   -19454141.93546 -15148904.25948  22925160.3724   22925165.8404
       179.000
  24566780.404   -17868329.24246 -13357524.56847  24566780.5524   24566785.7914
       148.000
  24629287.364   -14424331.35246 -10656835.03547  24629287.1394   24629294.9584
       149.000
  21846498.247   -31843107.17046 -23908189.45348  21846498.0444   21846503.6494
       203.000
  20479998.593   -37704307.05847 -29359089.94248  20479998.0924   20480003.0804
       219.000
  21096476.380   -27598748.66546 -21220440.00948  21096476.1834   21096481.5584
       209.000
 96  4 21  0  3  0.0000000  0  7 16 06 04 09 24 05 20
  21932664.062   -23534709.77946 -18313453.20348  21932663.5834   21932669.8644
       197.000
  22909281.827   -19537584.65946 -15213924.52948  22909281.7444   22909287.2074
       179.000
  24581054.146   -17793320.47946 -13299076.20147  24581054.3804   24581059.5194
       148.000
  24642414.624   -14355347.51546 -10603081.52747  24642414.5014   24642422.2474
       148.000
  21854884.084   -31799039.27846 -23873850.83948  21854883.8694   21854889.5014
       203.000
  20478494.368   -37712211.74147 -29365249.43548  20478493.8644   20478498.8464
       219.000
  21083032.804   -27669395.28446 -21275489.31048  21083032.6104   21083037.9694
       209.000
 96  4 21  0  3 30.0000000  0  7 16 06 04 09 24 05 20
  21917102.422   -23616486.76946 -18377175.50148  21917101.9264   21917108.1834
       198.000
  22893406.884   -19621007.94946 -15278929.64948  22893406.7744   22893412.2324
       179.000
  24595323.612   -17718333.94846 -13240645.15947  24595323.9124   24595329.0434
       147.000
  24655523.113   -14286462.94146 -10549405.37447  24655522.9664   24655530.7324
       148.000
  21863306.825   -31754777.55446 -23839361.18348  21863306.6384   21863312.2484
       203.000
  20477080.560   -37719641.19347 -29371038.62348  20477080.0724   20477085.0874
       219.000
  21069674.473   -27739593.93946 -21330189.54548  21069674.2784   21069679.6204
       210.000
 96  4 21  0  4  0.0000000  0  7 16 06 04 09 24 05 20
  21901618.450   -23697855.52246 -18440579.70148  21901617.9654   21901624.1794
       198.000
  22877534.793   -19704416.32746 -15343923.15148  22877534.6624   22877540.1314
       180.000
  24609588.290   -17643372.86146 -13182233.95447  24609588.5664   24609593.7964
       147.000
  24668612.143   -14217680.48946 -10495808.78047  24668611.9854   24668619.7404
       147.000
  21871769.995   -31710303.24946 -23804705.88948  21871769.8094   21871775.4654
       202.000
  20475758.809   -37726587.03447 -29376450.96948  20475758.3184   20475763.3344
       219.000
  21056399.216   -27809356.14146 -21384549.68848  21056399.0184   21056404.2974
       210.000
 96  4 21  0  4 30.0000000  0  7 16 06 04 09 24 05 20
  21886214.975   -23778801.27746 -18503654.28448  21886214.4994   21886220.7014
       198.000
  22861665.752   -19787808.73646 -15408904.22448  22861665.5984   22861671.0414
       180.000
  24623848.298   -17568436.23446 -13123841.80147  24623848.6044   24623853.7844
       147.000
  24681685.825   -14148978.48046 -10442274.89047  24681685.6244   24681693.4254
       146.000
  21880277.413   -31665596.42646 -23769869.40948  21880277.2194   21880282.9014
       202.000
  20474540.002   -37732992.01647 -29381441.87048  20474539.5014   20474544.4944
       219.000
  21043209.735   -27878667.43546 -21438558.47348  21043209.5094   21043214.7794
       210.000
 96  4 21  0  5  0.0000000  0  7 16 06 04 09 24 05 20
  21870886.828   -23859351.11746 -18566420.37048  21870886.3414   21870892.5734
       198.000
  22845796.680   -19871200.97946 -15473885.15448  22845796.5344   22845802.0104
       180.000
  24638098.325   -17493552.24546 -13065490.67147  24638098.5894   24638103.7644
       147.000
  24694740.745   -14080374.83846 -10388817.65147  24694740.6574   24694748.2834
       145.000
  21888823.935   -31620684.28046 -23734872.93748  21888823.7534   21888829.4024
       202.000
  20473426.580   -37738843.29747 -29386001.31248  20473426.0724   20473431.0544
       219.000
  21030102.959   -27947543.99446 -21492228.50848  21030102.7334   21030108.0044
       210.000
 96  4 21  0  5 30.0000000  0  7 16 06 04 09 24 05 20
  21855638.474   -23939481.35146 -18628859.48348  21855637.9874   21855644.2864
       199.000
  22829934.369   -19954557.68846 -15538838.40748  22829934.2454   22829939.6994
       180.000
  24652342.557   -17418698.42846 -13007163.03947  24652342.7384   24652348.0784
       146.000
  24707780.373   -14011851.46346 -10335422.93847  24707780.2094   24707788.0084
       145.000
  21897411.707   -31575555.26246 -23699707.47048  21897411.5274   21897417.1334
       201.000
  20472424.270   -37744110.42747 -29390105.57148  20472423.7564   20472428.7274
       219.000
  21017082.948   -28015964.26246 -21545542.98648  21017082.7064   21017088.0084
       210.000
 96  4 21  0  6  0.0000000  0  7 16 06 04 09 24 05 20
  21840470.483   -24019189.43346 -18690969.64648  21840470.0174   21840476.3604
       199.000
  22814074.000   -20037904.35046 -15603783.82448  22814073.8664   22814079.2924
       180.000
  24666577.223   -17343894.78046 -12948874.52047  24666577.5044   24666582.8154
       147.000
  24720800.456   -13943430.99346 -10282108.42147  24720800.3664   24720808.2274
       145.000
  21906033.848   -31530245.75446 -23664401.35948  21906033.6294   21906039.2344
       201.000
  20471529.933   -37748810.24247 -29393767.76648  20471529.4354   20471534.3844
       219.000
  21004148.166   -28083936.90046 -21598508.66248  21004147.9514   21004153.2564
       210.000
 96  4 21  0  6 30.0000000  0  7 16 06 04 09 24 05 20
  21825386.122   -24098458.04946 -18752737.37048  21825385.6504   21825392.0184
       199.000
  22798217.242   -20121232.04746 -15668714.45448  22798217.0934   22798222.5444
       181.000
  24680802.882   -17269138.60346 -12890622.96347  24680803.1254   24680808.4624
       146.000
  24733800.186   -13875117.58346 -10228877.31847  24733800.1264   24733807.8384
       145.000
  21914688.053   -31484767.62546 -23628963.86048  21914687.8474   21914693.4194
       201.000
  20470742.610   -37752947.72947 -29396991.78648  20470742.1204   20470747.0574
       219.000
  20991302.007   -28151443.73646 -21651111.38148  20991301.8044   20991307.1174
       210.000
 96  4 21  0  7  0.0000000  0  7 16 06 04 09 24 05 20
  21810384.022   -24177294.50446 -18814168.34648  21810383.5754   21810389.9724
       200.000
  22782360.807   -20204557.95146 -15733643.69048  22782360.6704   22782366.0964
       181.000
  24695014.092   -17194458.58346 -12832430.76947  24695014.1384   24695019.6834
       146.000
  24746772.700   -13806947.29346 -10175757.74247  24746772.6254   24746780.2854
       144.000
  21923371.076   -31439137.89246 -23593408.22548  21923370.8864   21923376.4684
       200.000
  20470051.842   -37756577.79247 -29399820.41148  20470051.3484   20470056.2704
       219.000
  20978540.624   -28218505.39646 -21703367.20948  20978540.4094   20978545.7054
       210.000
 96  4 21  0  7 30.0000000  0  7 16 06 04 09 24 05 20
  21795467.583   -24255680.82646 -18875248.56948  21795467.1224   21795473.4924
       200.000
  22766506.901   -20287870.51046 -15798562.52548  22766506.7354   22766512.2164
       181.000
  24709214.715   -17119834.04146 -12774281.80547  24709214.7774   24709220.2644
       145.000
  24759721.825   -13738899.47446 -10122733.60747  24759721.6624   24759729.5154
       144.000
  21932084.617   -31393347.61546 -23557727.49048  21932084.4144   21932090.0094
       200.000
  20469456.832   -37759704.65547 -29402256.93148  20469456.3304   20469461.2304
       219.000
  20965868.747   -28285096.39246 -21755256.28848  20965868.5414   20965873.8154
       210.000
 96  4 21  0  8  0.0000000  0  7 16 06 04 09 24 05 20
  21780637.210   -24333615.04246 -18935976.49748  21780636.7394   21780643.1044
       200.000
  22750655.368   -20371170.64746 -15863471.67548  22750655.2094   22750660.6894
       181.000
  24723404.127   -17045268.20346 -12716178.59047  24723404.2844   24723409.6344
       145.000
  24772647.745   -13670973.48946 -10069804.40847  24772647.5734   24772655.6014
       143.000
  21940830.451   -31347387.87246 -23521914.70448  21940830.2594   21940835.8694
       199.000
  20468955.034   -37762341.75347 -29404311.81348  20468954.5284   20468959.4014
       219.000
  20953288.292   -28351207.21246 -21806771.20148  20953288.0614   20953293.3154
       210.000
 96  4 21  0  8 30.0000000  0  7 16 06 04 09 24 05 20
  21765892.425   -24411099.43146 -18996353.91348  21765891.9274   21765898.3114
       201.000
  22734806.825   -20454455.28146 -15928368.75548  22734806.6614   22734812.0904
       181.000
  24737581.396   -16970765.80746 -12658124.78647  24737581.5494   24737586.9084
       144.000
  24785551.147   -13603166.15546 -10016967.67047  24785550.9914   24785558.9654
       142.000
  21949612.030   -31301240.19046 -23485955.47248  21949611.8504   21949617.4804
       199.000
  20468547.139   -37764485.29247 -29405982.10648  20468546.6304   20468551.5114
       219.000
  20940800.099   -28416833.07146 -21857908.22748  20940799.8564   20940805.0874
       210.000
 96  4 21  0  9  0.0000000  0  7 16 06 04 09 24 05 20
  21751232.933   -24488135.33746 -19056381.85748  21751232.4254   21751238.8414
       201.000
  22718961.877   -20537720.69846 -15993250.86348  22718961.7504   22718967.1164
       182.000
  24751745.580   -16896332.07646 -12600124.50847  24751745.8334   24751751.2514
       144.000
  24798431.579   -13535479.49246  -9964224.95847  24798431.3234   24798439.5784
       143.000
  21958427.729   -31254913.34546 -23449856.63348  21958427.5374   21958433.1784
       199.000
  20468231.889   -37766141.98447 -29407273.03848  20468231.3684   20468236.2664
       219.000
  20928405.440   -28481967.23646 -21908662.11348  20928405.2074   20928410.4204
       210.000
 96  4 21  0  9 30.0000000  0  7 16 06 04 09 24 05 20
  21736657.957   -24564727.13746 -19116063.74948  21736657.4554   21736663.8584
       201.000
  22703121.546   -20620962.16846 -16058114.31048  22703121.4464   22703126.7614
       182.000
  24765898.520   -16821957.87046 -12542170.59247  24765898.8254   24765904.1714
       144.000
  24811290.222   -13467907.65746  -9911571.71947  24811290.0214   24811298.0984
       142.000
  21967273.899   -31208426.21446 -23413632.89648  21967273.7234   21967279.3564
       199.000
  20468011.413   -37767300.76147 -29408175.98448  20468010.8914   20468015.7804
       219.000
  20916104.697   -28546607.87146 -21959031.42748  20916104.4624   20916109.6944
       210.000
 96  4 21  0 10  0.0000000  0  7 16 06 04 09 24 05 20
  21722169.404   -24640864.87846 -19175391.82448  21722168.9064   21722175.2654
       201.000
  22687287.513   -20704170.42246 -16122951.87848  22687287.4184   22687292.7074
       183.000
  24780041.310   -16747636.91346 -12484258.20247  24780041.6634   24780047.0434
       144.000
  24824125.940   -13400456.09646  -9859012.20247  24824125.7654   24824133.8934
       143.000
  21976153.210   -31161765.24646 -23377273.70448  21976153.0364   21976158.6754
       199.000
  20467887.556   -37767951.64547 -29408683.17448  20467887.0474   20467891.9344
       219.000
  20903897.260   -28610758.46246 -22009018.89048  20903897.0434   20903902.2864
       210.000
 96  4 21  0 10 30.0000000  0  7 16 06 04 09 24 05 20
  21707768.042   -24716544.49546 -19234362.91848  21707767.5654   21707773.8774
       201.000
  22671461.175   -20787338.36646 -16187758.03248  22671461.1044   22671466.3294
       183.000
  24794175.364   -16673362.08946 -12426381.72447  24794175.7004   24794181.0504
       144.000
  24836938.487   -13333126.30446  -9806547.58247  24836938.3654   24836946.2814
       142.000
  21985062.804   -31114945.06946 -23340790.45348  21985062.6484   21985068.2764
       199.000
  20467862.755   -37768081.99847 -29408784.75148  20467862.2644   20467867.1314
       219.000
  20891782.407   -28674422.32046 -22058627.07848  20891782.2004   20891787.4554
       211.000
 96  4 21  0 11  0.0000000  0  7 16 06 04 09 24 05 20
  21693454.561   -24791762.21146 -19292974.09348  21693454.0644   21693460.3684
       202.000
  22655643.777   -20870459.51446 -16252527.73548  22655643.6644   22655648.8494
       183.000
  24808303.229   -16599119.87446 -12368530.67547  24808303.5394   24808308.9284
       144.000
  24849729.624   -13265909.00546  -9754170.60347  24849729.3804   24849737.4644
       142.000
  21994003.241   -31067962.87846 -23304180.95848  21994003.0784   21994008.7064
       199.000
  20467940.324   -37767674.35847 -29408467.11748  20467939.8204   20467944.6864
       219.000
  20879761.159   -28737594.46646 -22107852.11548  20879760.9424   20879766.2044
       211.000
 96  4 21  0 11 30.0000000  0  7 16 06 04 09 24 05 20
  21679224.412   -24866542.26846 -19351244.22748  21679223.9164   21679230.2034
       202.000
  22639832.559   -20953548.24746 -16317272.17148  22639832.4204   22639837.5854
       184.000
  24822425.156   -16524908.88546 -12310703.95347  24822425.3334   24822430.8654
       144.000
  24862498.007   -13198811.51246  -9701886.99147  24862497.8114   24862505.8604
       141.000
  22002975.797   -31020811.61546 -23267439.72048  22002975.6474   22002981.2854
       199.000
  20468119.709   -37766731.61047 -29407732.51448  20468119.2064   20468124.1004
       219.000
  20867830.448   -28800290.66746 -22156706.28448  20867830.2124   20867835.4774
       211.000
 96  4 21  0 12  0.0000000  0  7 16 06 04 09 24 05 20
  21665075.030   -24940897.58946 -19409183.40148  21665074.5314   21665080.8074
       202.000
  22624024.725   -21036619.05746 -16382002.65048  22624024.5844   22624029.7284
       184.000
  24836536.992   -16450750.47246 -12252918.21347  24836537.2544   24836542.7454
       143.000
  24875239.663   -13131854.25046  -9649712.66047  24875239.5494   24875247.6694
       140.000
  22011977.752   -30973506.14446 -23230578.32048  22011977.6054   22011983.2464
       199.000
  20468396.121   -37765278.94347 -29406600.57348  20468395.6154   20468400.5194
       219.000
  20855987.931   -28862523.39646 -22205199.30948  20855987.6904   20855992.9554
       211.000
 96  4 21  0 12 30.0000000  0  7 16 06 04 09 24 05 20
  21651008.734   -25014816.36546 -19466782.40948  21651008.2494   21651014.4604
       202.000
  22608218.849   -21119679.45146 -16446725.00748  22608218.6864   22608223.8444
       184.000
  24850637.459   -16376652.14446 -12195179.27947  24850637.6714   24850643.1434
       144.000
  24887956.648   -13065026.60146  -9597639.33747  24887956.4674   24887964.6684
       140.000
  22021006.287   -30926060.97346 -23193608.06548  22021006.1254   22021011.7954
       198.000
  20468772.978   -37763298.62747 -29405057.47248  20468772.4644   20468777.4034
       219.000
  20844235.776   -28924281.26246 -22253322.30848  20844235.5564   20844240.8364
       211.000
 96  4 21  0 13  0.0000000  0  7 16 06 04 09 24 05 20
  21637029.497   -25088277.73146 -19524024.99548  21637028.9974   21637035.1694
       202.000
  22592416.241   -21202722.60446 -16511433.92848  22592416.0864   22592421.2654
       184.000
  24864727.526   -16302608.77946 -12137483.17047  24864727.6784   24864733.1934
       144.000
  24900651.241   -12998316.77046  -9545657.82247  24900651.0274   24900659.2434
       141.000
  22030064.810   -30878458.11146 -23156514.93248  22030064.6534   22030070.3324
       198.000
  20469251.840   -37760782.12247 -29403096.56348  20469251.3224   20469256.2624
       218.000
  20832576.777   -28985549.63746 -22301063.88748  20832576.5574   20832581.8344
       211.000
 96  4 21  0 13 30.0000000  0  7 16 06 04 09 24 05 20
  21623137.800   -25161278.96646 -19580909.03448  21623137.3134   21623143.4544
       202.000
  22576617.494   -21285745.25046 -16576126.87448  22576617.3434   22576622.5634
       184.000
  24878804.155   -16228636.16246 -12079842.19347  24878804.3024   24878809.7824
       143.000
  24913321.049   -12931736.96946  -9493777.61747  24913320.8474   24913329.1904
       142.000
  22039148.606   -30830722.43546 -23119318.30848  22039148.4354   22039154.1174
       198.000
  20469828.676   -37757750.79147 -29400734.49248  20469828.1634   20469833.0994
       218.000
  20821009.862   -29046334.11246 -22348428.40348  20821009.6454   20821014.8914
       211.000
 96  4 21  0 14  0.0000000  0  7 16 06 04 09 24 05 20
  21609338.288   -25233796.13946 -19637415.88548  21609337.7774   21609343.9044
       203.000
  22560823.083   -21368745.14746 -16640802.09848  22560822.9374   22560828.1504
       184.000
  24892865.374   -16154744.20746 -12022264.07547  24892865.4584   24892870.9984
       142.000
  24925964.152   -12865298.00546  -9442007.17647  24925963.8144   24925972.2354
       143.000
  22048255.442   -30782865.65746 -23082027.32048  22048255.2604   22048260.9404
       197.000
  20470503.822   -37754202.86247 -29397969.88048  20470503.2954   20470508.2334
       218.000
  20809534.100   -29106639.83546 -22395419.86548  20809533.8594   20809539.0934
       211.000
 96  4 21  0 14 30.0000000  0  6 16 06 04 24 05 20
  21595630.259   -25305832.23446 -19693547.87348  21595629.7474   21595635.8414
       203.000
  22545031.604   -21451729.77746 -16705465.42748  22545031.4594   22545036.6594
       185.000
  24906910.653   -16080936.03546 -11964751.23147  24906910.8154   24906916.2394
       142.000
  22057385.468   -30734887.17946 -23044641.50148  22057385.2904   22057390.9614
       197.000
  20471277.359   -37750137.95847 -29394802.43148  20471276.8404   20471281.7784
       218.000
  20798147.539   -29166476.67346 -22442045.96248  20798147.2824   20798152.4984
       211.000
 96  4 21  0 15  0.0000000  0  6 16 06 04 24 05 20
  21582014.653   -25377382.48446 -19749301.27948  21582014.1434   21582020.2214
       202.000
  22529248.368   -21534671.23746 -16770095.11748  22529248.2264   22529253.4104
       185.000
  24920943.040   -16007195.43446 -11907291.04647  24920943.2004   24920948.5984
       142.000
  22066540.758   -30686775.86846 -23007152.17648  22066540.5824   22066546.2324
       196.000
  20472146.762   -37745569.10147 -29391242.28648  20472146.2484   20472151.1834
       218.000
  20786851.063   -29225839.88646 -22488303.00148  20786850.8234   20786856.0244
       211.000
 96  4 21  0 15 30.0000000  0  5 16 06 24 05 20
  21568491.054   -25448449.15346 -19804677.87148  21568490.5454   21568496.6364
       202.000
  22513474.363   -21617564.17046 -16834686.99448  22513474.2264   22513479.3894
       185.000
  22075722.276   -30638526.68346 -22969555.41348  22075722.0764   22075727.6944
       196.000
  20473111.599   -37740498.77747 -29387291.39048  20473111.0904   20473116.0294
       218.000
  20775645.301   -29284726.42946 -22534188.61048  20775645.0704   20775650.2784
       211.000
 96  4 21  0 16  0.0000000  0  5 16 06 24 05 20
  21555060.045   -25519029.34546 -19859675.39248  21555059.5334   21555065.6284
       202.000
  22497706.725   -21700423.65546 -16899252.81048  22497706.5824   22497711.7174
       185.000
  22084933.522   -30590121.35646 -22931836.98448  22084933.3294   22084938.9354
       196.000
  20474172.223   -37734925.14447 -29382948.30448  20474171.7164   20474176.6504
       218.000
  20764529.974   -29343137.80046 -22579703.95548  20764529.7254   20764534.9374
       212.000
 96  4 21  0 16 30.0000000  0  5 16 06 24 05 20
  21541723.269   -25589114.32346 -19914287.03148  21541722.7564   21541728.8284
       202.000
  22481949.320   -21783229.29546 -16963776.66648  22481949.1804   22481954.2804
       185.000
  22094178.113   -30541540.54546 -22893981.81348  22094177.9294   22094183.5534
       196.000
  20475333.150   -37728824.51547 -29378194.57148  20475332.6424   20475337.5874
       218.000
  20753512.815   -29401033.40946 -22624817.40948  20753512.5724   20753517.7814
       212.000
 96  4 21  0 17  0.0000000  0  5 16 06 24 05 20
  21528481.494   -25658700.39346 -19968509.91448  21528480.9834   21528487.0314
       202.000
  22466201.300   -21865985.27346 -17028261.82648  22466201.1534   22466206.3074
       185.000
  22103458.275   -30492773.13346 -22855981.24248  22103458.1144   22103463.7194
       196.000
  20476595.789   -37722189.29647 -29373024.27948  20476595.2684   20476600.2264
       218.000
  20742596.915   -29458396.60946 -22669515.99948  20742596.6994   20742601.9174
       212.000
 96  4 21  0 17 30.0000000  0  5 16 06 24 05 20
  21515334.885   -25727786.19046 -20022342.97148  21515334.3544   21515340.4054
       203.000
  22450460.216   -21948704.81446 -17092718.59148  22450460.0904   22450465.2804
       185.000
  22112776.605   -30443805.10246 -22817824.34148  22112776.4334   22112782.0404
       196.000
  20477962.062   -37715009.52447 -29367429.65548  20477961.5424   20477966.5334
       218.000
  20731784.352   -29515216.88746 -22713791.53448  20731784.1544   20731789.3904
       212.000
 96  4 21  0 18  0.0000000  0  5 16 06 24 05 20
  21502279.769   -25796390.89546 -20075801.15248  21502279.2624   21502285.2954
       203.000
  22434723.581   -22031401.08246 -17157157.21548  22434723.4744   22434728.7094
       186.000
  22122128.049   -30394663.10746 -22779531.88748  22122127.8794   22122133.4594
       196.000
  20479431.836   -37707285.83347 -29361411.20248  20479431.3354   20479436.3324
       218.000
  20721075.541   -29571491.94446 -22757642.22048  20721075.3484   20721080.5884
       212.000
 96  4 21  0 18 30.0000000  0  6 16 06 17 24 05 20
  21489315.470   -25864518.60246 -20128887.65548  21489314.9974   21489320.9924
       203.000
  22418993.781   -22114061.74746 -17221568.09348  22418993.6644   22418998.8964
       186.000
  25021700.170    -6943165.03756  -4788559.92357  25021699.6094   25021708.1044
       137.000
  22131510.255   -30345359.40446 -22741113.42648  22131510.0844   22131515.6324
       195.000
  20481006.221   -37699012.44247 -29354964.41348  20481005.7154   20481010.7144
       218.000
  20710472.847   -29627209.26046 -22801058.30848  20710472.6484   20710477.9134
       212.000
 96  4 21  0 19  0.0000000  0  6 16 06 17 24 05 20
  21476439.245   -25932183.33146 -20181613.39148  21476438.7614   21476444.7554
       203.000
  22403267.030   -22196706.43146 -17285966.52548  22403266.8914   22403272.1414
       186.000
  24999537.467    -7059630.42546  -4879312.00447  24999536.7714   24999545.2994
       137.000
  22140918.988   -30295916.40046 -22702586.42048  22140918.7914   22140924.3294
       195.000
  20482678.516   -37690224.44547 -29348116.63248  20482678.0174   20482682.9794
       218.000
  20699971.331   -29682395.26446 -22844060.38448  20699971.1284   20699976.3974
       212.000
 96  4 21  0 19 30.0000000  0  6 16 06 17 24 05 20
  21463650.469   -25999388.56946 -20233981.08248  21463649.9844   21463655.9924
       203.000
  22387546.117   -22279320.31046 -17350340.94448  22387545.9554   22387551.2264
       186.000
  24977400.821    -7175958.70246  -4969957.23247  24977400.2254   24977408.5594
       137.000
  22150347.851   -30246367.47046 -22663976.86948  22150347.6634   22150353.1964
       195.000
  20484447.225   -37680929.88347 -29340874.12248  20484446.7334   20484451.6564
       218.000
  20689568.876   -29737060.70146 -22886656.81948  20689568.6604   20689573.9444
       213.000
 96  4 21  0 20  0.0000000  0  6 16 06 17 24 05 20
  21450951.117   -26066123.97946 -20285982.68248  21450950.6264   21450956.6404
       204.000
  22371832.153   -22361897.62146 -17414686.87448  22371831.9934   22371837.2364
       187.000
  24955291.086    -7292145.16446  -5060491.96447  24955290.7724   24955298.8864
       138.000
  22159794.368   -30196725.81046 -22625295.06748  22159794.1744   22159799.6824
       194.000
  20486311.177   -37671134.90247 -29333241.67948  20486310.6624   20486315.6044
       218.000
  20679264.248   -29791211.80046 -22928852.47648  20679264.0244   20679269.3174
       213.000
 96  4 21  0 20 30.0000000  0  6 16 06 17 24 05 20
  21438345.440   -26132367.20546 -20337600.75248  21438344.9334   21438350.9474
       204.000
  22356128.598   -22444420.10446 -17478990.07848  22356128.4454   22356133.6554
       187.000
  24933207.989    -7408192.12546  -5150917.99447  24933207.5704   24933215.7484
       138.000
  22169259.928   -30146983.96646 -22586535.20048  22169259.7414   22169265.2364
       194.000
  20488270.011   -37660841.13147 -29325220.57148  20488269.5164   20488274.4374
       218.000
  20669056.786   -29844852.42946 -22970650.36348  20669056.5704   20669061.8894
       213.000
 96  4 21  0 21  0.0000000  0  6 16 06 17 24 05 20
  21425837.700   -26198095.82146 -20388817.83048  21425837.1924   21425843.2124
       204.000
  22340437.807   -22526875.54146 -17543241.04248  22340437.6574   22340442.8464
       187.000
  24911151.050    -7524101.04646  -5241236.47547  24911150.6904   24911158.9354
       137.000
  22178744.588   -30097141.73746 -22547697.10948  22178744.3954   22178749.9024
       194.000
  20490325.421   -37650039.92547 -29316804.05848  20490324.9134   20490329.8664
       217.000
  20658946.575   -29897981.76946 -23012049.84548  20658946.3494   20658951.6604
       213.000
 96  4 21  0 21 30.0000000  0  6 16 06 17 24 05 20
  21413428.712   -26263305.24746 -20439630.34348  21413428.2124   21413434.2184
       205.000
  22324761.246   -22609256.25646 -17607433.77848  22324761.1094   22324766.2904
       187.000
  24889120.330    -7639872.20946  -5331447.61347  24889119.9624   24889128.2894
       138.000
  22188249.927   -30047190.87846 -22508774.36748  22188249.7444   22188255.2634
       193.000
  20492480.187   -37638716.38047 -29307980.52548  20492479.6924   20492484.6454
       217.000
  20648932.032   -29950608.46646 -23053057.65548  20648931.8024   20648937.1134
       213.000
 96  4 21  0 22  0.0000000  0  6 16 06 17 24 05 20
  21401118.688   -26327994.89146 -20490037.83548  21401118.1944   21401124.1824
       205.000
  22309095.517   -22691579.97746 -17671582.11048  22309095.3854   22309100.5844
       187.000
  24867116.606    -7755501.73046  -5421548.38847  24867116.1744   24867124.4994
       138.000
  22197778.909   -29997115.77646 -22469754.81848  22197778.7084   22197784.2364
       193.000
  20494734.806   -37626868.35847 -29298748.31548  20494734.3014   20494739.2814
       217.000
  20639014.693   -30002724.40746 -23093667.47848  20639014.4784   20639019.7654
       213.000
 96  4 21  0 22 30.0000000  0  6 16 06 17 24 05 20
  21388906.104   -26392172.29946 -20540046.17848  21388905.6094   21388911.6044
       205.000
  22293438.714   -22773856.92246 -17735693.98348  22293438.5944   22293443.7764
       188.000
  24845138.884    -7870995.00146  -5511542.99247  24845138.4094   24845146.7844
       138.000
  22207329.333   -29946927.83546 -22430647.33948  22207329.1364   22207334.6624
       193.000
  20497088.914   -37614497.36747 -29289108.59048  20497088.4114   20497093.3974
       217.000
  20629192.903   -30054338.35346 -23133886.12848  20629192.6674   20629197.9584
       213.000
 96  4 21  0 23  0.0000000  0  6 16 06 17 24 05 20
  21376796.643   -26455807.70046 -20589632.18148  21376796.1524   21376802.1964
       205.000
  22277791.679   -22856082.59646 -17799765.91348  22277791.5464   22277796.6994
       188.000
  24823190.885    -7986331.73246  -5601415.65047  24823190.4144   24823198.7844
       139.000
  22216908.271   -29896590.08246 -22391423.12048  22216908.0954   22216913.6454
       193.000
  20499545.703   -37601586.81547 -29279048.43348  20499545.2004   20499550.2014
       217.000
  20619473.946   -30105411.82846 -23173683.63848  20619473.7354   20619479.0524
       213.000
 96  4 21  0 23 30.0000000  0  6 16 06 17 24 05 20
  21364788.374   -26518911.38546 -20638803.86148  21364787.9054   21364793.9384
       205.000
  22262150.568   -22938277.07846 -17863813.53948  22262150.4344   22262155.5564
       188.000
  24801270.783    -8101522.01046  -5691174.18147  24801270.2284   24801278.7464
       139.000
  22226517.591   -29846092.92946 -22352074.69848  22226517.4024   22226522.9864
       192.000
  20502104.441   -37588140.66847 -29268570.93548  20502103.9394   20502108.9504
       217.000
  20609859.533   -30155935.91746 -23213053.05748  20609859.3214   20609864.6404
       213.000
 96  4 21  0 24  0.0000000  0  6 16 06 17 24 05 20
  21352879.320   -26581493.76946 -20687569.33648  21352878.8404   21352884.8894
       205.000
  22246509.949   -23020469.29146 -17927859.39748  22246509.8224   22246514.8704
       189.000
  24779374.116    -8216589.30846  -5780836.89547  24779373.5174   24779381.9704
       140.000
  22236150.499   -29795471.60246 -22312629.51648  22236150.3034   22236155.8924
       192.000
  20504761.051   -37574180.17047 -29257692.63948  20504760.5504   20504765.5634
       217.000
  20600348.265   -30205918.09346 -23252000.20748  20600348.0464   20600353.3404
       213.000
 96  4 21  0 24 30.0000000  0  6 16 06 17 24 05 20
  21341070.566   -26643549.20346 -20735924.19648  21341070.0654   21341076.1194
       205.000
  22230872.214   -23102646.36546 -17991893.46448  22230872.0584   22230877.0744
       189.000
  24757498.143    -8331547.86246  -5870414.88047  24757497.5624   24757505.9574
       140.000
  22245805.464   -29744734.44646 -22273094.08148  22245805.2504   22245810.8674
       192.000
  20507513.761   -37559714.64247 -29246420.81348  20507513.2544   20507518.2714
       217.000
  20590938.608   -30255366.41846 -23290531.36348  20590938.3804   20590943.6144
       213.000
 96  4 21  0 25  0.0000000  0  6 16 06 17 24 05 20
  21329366.634   -26705053.67746 -20783849.73848  21329366.1274   21329372.1594
       206.000
  22215245.650   -23184764.85446 -18055881.88248  22215245.4854   22215250.4434
       190.000
  24735649.303    -8446363.41946  -5959881.44547  24735648.7574   24735657.1004
       139.000
  22255488.721   -29693848.59446 -22233442.77648  22255488.5264   22255494.1594
       192.000
  20510368.284   -37544714.20447 -29234732.17748  20510367.7684   20510372.7874
       217.000
  20581638.584   -30304238.26446 -23328613.32348  20581638.3484   20581643.5644
       213.000
 96  4 21  0 25 30.0000000  0  6 16 06 17 24 05 20
  21317760.664   -26766043.22546 -20831374.03848  21317760.1524   21317766.2034
       206.000
  22199627.450   -23266839.02746 -18119835.76448  22199627.2684   22199632.2354
       190.000
  24713825.906    -8561045.47646  -6049243.98347  24713825.3754   24713833.7054
       140.000
  22265193.356   -29642850.22546 -22193703.80148  22265193.1674   22265198.8454
       191.000
  20513321.824   -37529193.19046 -29222637.89248  20513321.3334   20513326.3324
       216.000
  20572440.222   -30352575.90246 -23366279.01248  20572439.9764   20572445.1824
       213.000
 96  4 21  0 26  0.0000000  0  6 16 06 17 24 05 20
  21306252.418   -26826519.31246 -20878498.23448  21306251.9094   21306257.9734
       206.000
  22184020.867   -23348852.20546 -18183742.11748  22184020.6824   22184025.6794
       191.000
  24692028.440    -8675591.30746  -6138500.37347  24692027.8064   24692036.1454
       140.000
  22274916.810   -29591753.14546 -22153887.89848  22274916.6064   22274922.3134
       191.000
  20516371.556   -37513166.96146 -29210149.93348  20516371.0324   20516376.0254
       216.000
  20563342.678   -30400383.84346 -23403531.95148  20563342.4344   20563347.6374
       214.000
 96  4 21  0 26 30.0000000  0  6 16 06 17 24 05 20
  21294836.056   -26886512.34146 -20925246.02148  21294835.5724   21294841.6524
       206.000
  22168422.361   -23430822.64646 -18247615.17948  22168422.2214   22168427.2094
       191.000
  24670254.648    -8790012.72546  -6227659.83947  24670253.9694   24670262.3304
       140.000
  22284657.011   -29540568.06546 -22114003.42548  22284656.8034   22284662.5284
       191.000
  20519512.301   -37496662.17846 -29197289.07648  20519511.7784   20519516.7614
       216.000
  20554343.606   -30447674.33946 -23440381.68948  20554343.3744   20554348.5744
       214.000
 96  4 21  0 27  0.0000000  0  6 16 06 17 24 05 20
  21283516.439   -26945997.46246 -20971598.04148  21283515.9584   21283521.9864
       206.000
  22152833.374   -23512743.19646 -18311449.35748  22152833.2134   22152838.2314
       191.000
  24648511.565    -8904273.01646  -6316693.73147  24648510.9114   24648519.0584
       139.000
  22294418.720   -29489269.99946 -22074030.91348  22294418.5254   22294424.2124
       191.000
  20522749.759   -37479649.32546 -29184032.32448  20522749.2164   20522754.2214
       216.000
  20545448.278   -30494419.58746 -23476806.55848  20545448.0524   20545453.2554
       214.000
 96  4 21  0 27 30.0000000  0  6 16 06 17 24 05 20
  21272295.499   -27004963.96246 -21017545.94248  21272295.0174   21272301.0244
       207.000
  22137250.144   -23594633.48646 -18375259.95448  22137249.9714   22137255.0214
       191.000
  24626795.224    -9018392.59446  -6405617.98047  24626794.5754   24626802.9904
       141.000
  22304201.211   -29437862.76046 -22033973.33448  22304201.0234   22304206.6914
       191.000
  20526082.183   -37462137.31846 -29170386.61848  20526081.6394   20526086.6674
       216.000
  20536655.098   -30540628.17946 -23512813.25548  20536654.8604   20536660.0524
       214.000
 96  4 21  0 28  0.0000000  0  6 16 06 17 24 05 20
  21261172.193   -27063417.09846 -21063093.82348  21261171.6974   21261177.7214
       207.000
  22121675.220   -23676480.13746 -18439036.54748  22121675.0734   22121680.0824
       191.000
  24605103.275    -9132383.99046  -6494442.35447  24605102.7424   24605111.0454
       142.000
  22314004.124   -29386348.40746 -21993832.28448  22314003.9264   22314009.5584
       190.000
  20529510.098   -37444123.37046 -29156349.78648  20529509.5664   20529514.6264
       216.000
  20527966.659   -30586286.31046 -23548391.02048  20527966.4054   20527971.5864
       214.000
 96  4 21  0 28 30.0000000  0  6 16 06 17 24 05 20
  21250152.096   -27121327.87046 -21108219.07448  21250151.6064   21250157.6684
       207.000
  22106113.916   -23758255.29046 -18502757.42948  22106113.7864   22106118.7594
       191.000
  24583444.274    -9246202.70046  -6583132.16047  24583443.7564   24583451.8944
       142.000
  22323833.768   -29334693.32346 -21953581.57648  22323833.5624   22323839.1854
       190.000
  20533041.083   -37425567.99746 -29141891.06048  20533040.5524   20533045.6234
       215.000
  20519387.455   -30631370.25046 -23583521.36548  20519387.2144   20519392.3874
       214.000
 96  4 21  0 29  0.0000000  0  6 16 06 17 24 05 20
  21239228.408   -27178732.34346 -21152949.81248  21239227.9194   21239233.9554
       207.000
  22090561.336   -23839984.71946 -18566442.68148  22090561.1734   22090566.1604
       192.000
  24561811.871    -9359881.30646  -6671712.79847  24561811.3924   24561819.4624
       142.000
  22333681.952   -29282940.91346 -21913255.03548  22333681.7344   22333687.3474
       189.000
  20536668.084   -37406507.96646 -29127039.09448  20536667.5514   20536672.6304
       215.000
  20510909.698   -30675921.15346 -23618236.35648  20510909.4434   20510914.6394
       214.000
 96  4 21  0 29 30.0000000  0  6 16 06 17 24 05 20
  21228400.823   -27235631.77346 -21197287.00848  21228400.3144   21228406.3324
       207.000
  22075022.413   -23921642.34146 -18630071.97548  22075022.2404   22075027.2194
       192.000
  24540206.649    -9473417.01746  -6760182.09047  24540206.1594   24540214.2644
       142.000
  22343549.591   -29231086.09546 -21872848.69448  22343549.3734   22343555.0054
       189.000
  20540391.114   -37386943.31946 -29111793.92648  20540390.5734   20540395.6574
       215.000
  20502535.346   -30719928.61446 -23652527.89048  20502535.1104   20502540.3344
       214.000
 96  4 21  0 30  0.0000000  0  6 16 06 17 24 05 20
  21217669.902   -27292022.94146 -21241228.15948  21217669.3834   21217675.3864
       207.000
  22059501.002   -24003207.87046 -18693629.51248  22059500.8354   22059505.8124
       192.000
  24518634.507    -9586779.42346  -6848516.33147  24518633.8334   24518642.1114
       143.000
  22353435.456   -29179135.52146 -21832367.74048  22353435.2794   22353440.8784
       188.000
  20544211.217   -37366868.73346 -29096151.40348  20544210.6794   20544215.7404
       215.000
  20494265.441   -30763387.26046 -23686391.77348  20494265.2154   20494270.4394
       214.000
 96  4 21  0 30 30.0000000  0  6 16 06 17 24 05 20
  21207040.057   -27347883.24246 -21284755.64848  21207039.5424   21207045.4814
       208.000
  22043992.362   -24084706.12646 -18757134.62648  22043992.2124   22043997.1994
       192.000
  24497095.640    -9699966.72646  -6936714.11347  24497095.0544   24497103.1784
       143.000
  22363337.551   -29127099.65546 -21791820.31648  22363337.3644   22363342.9534
       188.000
  20548125.169   -37346300.81346 -29080124.46548  20548124.6294   20548129.6814
       215.000
  20486098.279   -30806305.97146 -23719834.92448  20486098.0204   20486103.2464
       214.000
 96  4 21  0 30 59.9990000  0  6 16 06 17 24 05 20
  21196516.974   -27403182.38546 -21327845.87648  21196516.4674   21196522.3574
       208.000
  22028497.304   -24166132.81346 -18820583.96848  22028497.1594   22028502.1834
       192.000
  24475589.083    -9812984.14446  -7024779.53047  24475588.5034   24475596.6614
       143.000
  22373258.229   -29074966.15746 -21751196.82348  22373258.0664   22373263.6264
       187.000
  20552133.075   -37325239.12046 -29063712.77548  20552132.5354   20552137.5874
       215.000
  20478037.374   -30848666.41546 -23752843.06548  20478037.1104   20478042.3334
       214.000
 96  4 21  0 31 29.9990000  0  6 16 06 17 24 05 20
  21186101.324   -27457916.93846 -21370496.15948  21186100.8374   21186106.7054
       208.000
  22013013.080   -24247502.67246 -18883989.03848  22013012.9384   22013017.9684
       192.000
  24454111.823    -9925847.64246  -7112725.00347  24454111.2314   24454119.5754
       144.000
  22383196.646   -29022739.48946 -21710500.72748  22383196.4464   22383202.0784
       187.000
  20556234.077   -37303688.35946 -29046919.99548  20556233.5564   20556238.5974
       215.000
  20470079.043   -30890487.51446 -23785430.93948  20470078.7894   20470084.0514
       214.000
 96  4 21  0 31 59.9990000  0  6 16 06 17 24 05 20
  21175791.102   -27512097.55746 -21412714.80248  21175790.5954   21175796.4864
       208.000
  21997536.920   -24328830.06046 -18947361.00548  21997536.8024   21997541.8374
       192.000
  24432663.339   -10038559.98146  -7200552.68147  24432662.6104   24432670.9424
       145.000
  22393149.064   -28970438.87646 -21669747.00848  22393148.8664   22393154.5134
       186.000
  20560426.695   -37281655.94746 -29029751.89648  20560426.1834   20560431.2174
       215.000
  20462219.476   -30931789.63746 -23817614.40948  20462219.2214   20462224.5234
       214.000
 96  4 21  0 32 29.9990000  0  6 16 06 17 24 05 20
  21165587.455   -27565718.10046 -21454497.02548  21165586.9394   21165592.8074
       209.000
  21982068.624   -24410116.16146 -19010700.80548  21982068.5014   21982073.5514
       192.000
  24411243.868   -10151119.59146  -7288261.35147  24411243.1784   24411251.4104
       145.000
  22403118.379   -28918049.45146 -21628924.09448  22403118.2144   22403123.8744
       186.000
  20564712.206   -37259135.50246 -29012203.51748  20564711.6964   20564716.7244
       215.000
  20454461.093   -30972560.02146 -23849383.54348  20454460.8614   20454466.1834
       214.000
 96  4 21  0 32 59.9990000  0  6 16 06 17 24 05 20
  21155488.192   -27618790.05546 -21495851.77648  21155487.6914   21155493.5524
       209.000
  21966610.401   -24491349.66146 -19073999.61148  21966610.2724   21966615.3144
       192.000
  24389853.702   -10263525.02446  -7375849.87947  24389853.0764   24389861.1954
       145.000
  22413105.420   -28865567.14246 -21588028.80248  22413105.2604   22413110.9524
       186.000
  20569092.090   -37236119.28946 -28994268.82548  20569091.5744   20569096.5814
       215.000
  20446804.267   -31012796.85946 -23880736.92448  20446804.0124   20446809.3504
       214.000
 96  4 21  0 33 29.9990000  0  6 16 06 17 24 05 20
  21145489.470   -27671333.66946 -21536794.83448  21145488.9534   21145494.8024
       209.000
  21951162.687   -24572527.70146 -19137255.20248  21951162.5564   21951167.6464
       192.000
  24368495.257   -10375764.29846  -7463308.95247  24368494.5324   24368502.6484
       145.000
  22423106.799   -28813009.58046 -21547074.87048  22423106.5964   22423112.3144
       185.000
  20573569.055   -37212592.78346 -28975936.50248  20573568.5154   20573573.5334
       215.000
  20439247.943   -31052505.63746 -23911678.83248  20439247.6934   20439253.0364
       214.000
 96  4 21  0 33 59.9990000  0  6 16 06 17 24 05 20
  21135588.614   -27723362.87646 -21577337.05448  21135588.0974   21135593.9264
       209.000
  21935721.286   -24653672.55846 -19200484.93648  21935721.1564   21935726.2674
       192.000
  24347164.660   -10487856.92746  -7550653.74047  24347163.8404   24347171.9944
       146.000
  22433120.263   -28760388.56746 -21506071.49448  22433120.0744   22433125.8114
       185.000
  20578141.657   -37188563.62346 -28957212.49948  20578141.1294   20578146.1284
       215.000
  20431794.527   -31091673.80146 -23942199.48348  20431794.2834   20431799.5944
       214.000
 96  4 21  0 34 29.9990000  0  6 16 06 17 24 05 20
  21125791.489   -27774847.05846 -21617454.58248  21125790.9694   21125796.7914
       209.000
  21920286.307   -24734783.88946 -19263688.55048  21920286.1624   21920291.2834
       193.000
  24325860.832   -10599808.45146  -7637888.58147  24325860.1184   24325868.2764
       146.000
  22443147.676   -28707694.27546 -21465011.01648  22443147.4724   22443153.2064
       185.000
  20582811.301   -37164024.81046 -28938091.36348  20582810.7674   20582815.7604
       215.000
  20424449.768   -31130270.89446 -23972275.14348  20424449.5284   20424454.8234
       214.000
 96  4 21  0 34 59.9990000  0  6 16 06 17 24 05 20
  21116096.461   -27825794.80246 -21657154.10448  21116095.9214   21116101.7374
       209.000
  21904857.410   -24815863.34546 -19326867.32548  21904857.2434   21904862.3814
       193.000
  24304581.221   -10711632.92246  -7725024.43047  24304580.5694   24304588.6714
       146.000
  22453187.954   -28654932.35646 -21423897.84748  22453187.7624   22453193.5084
       185.000
  20587577.254   -37138979.59046 -28918575.62148  20587576.7174   20587581.7314
       215.000
  20417212.099   -31168304.99746 -24001912.11148  20417211.8584   20417217.1304
       214.000
 96  4 21  0 35 29.9990000  0  6 16 06 17 24 05 20
  21106504.970   -27876198.10946 -21696429.38748  21106504.4514   21106510.2824
       209.000
  21889437.124   -24896897.38946 -19390010.72048  21889436.9684   21889442.0844
       193.000
  24283326.508   -10823326.23146  -7812058.07047  24283325.9344   24283334.0574
       146.000
  22463241.465   -28602100.79346 -21382730.40948  22463241.2924   22463247.0024
       184.000
  20592440.787   -37113421.79046 -28898660.47248  20592440.2404   20592445.2714
       215.000
  20410084.200   -31205762.61946 -24031099.87248  20410083.9534   20410089.2054
       214.000
 96  4 21  0 35 59.9990000  0  6 16 06 17 24 05 20
  21097024.350   -27926019.07846 -21735250.90848  21097023.8344   21097029.6814
       209.000
  21874030.993   -24977857.33246 -19453096.37248  21874030.8144   21874035.9154
       194.000
  24262099.375   -10934874.99946  -7898979.09247  24262098.7094   24262106.9864
       145.000
  22473312.936   -28549174.63546 -21341489.26048  22473312.7394   22473318.4534
       184.000
  20597403.672   -37087341.71946 -28878338.36148  20597403.1454   20597408.1814
       215.000
  20403071.619   -31242613.95846 -24059815.20748  20403071.3784   20403076.6274
       214.000
 96  4 21  0 36 29.9990000  0  6 16 06 17 24 05 20
  21087653.255   -27975264.57546 -21773624.00148  21087652.7124   21087658.5364
       209.000
  21858639.130   -25058742.10546 -19516123.44948  21858638.9594   21858644.0484
       194.000
  24240899.156   -11046282.32946  -7985789.91147  24240898.5454   24240906.7814
       145.000
  22483399.982   -28496166.87446 -21300184.52748  22483399.7564   22483405.4904
       184.000
  20602463.105   -37060754.31146 -28857620.92548  20602462.5724   20602467.6134
       215.000
  20396169.090   -31278887.02146 -24088079.93348  20396168.8264   20396174.0764
       214.000
 96  4 21  0 36 59.9990000  0  6 16 06 17 24 05 20
  21078384.293   -28023973.30046 -21811578.83148  21078383.7394   21078389.5594
       209.000
  21843256.782   -25139576.91646 -19579111.59648  21843256.6184   21843261.7064
       194.000
  24219723.557   -11157560.37546  -8072499.97547  24219722.9654   24219731.1694
       145.000
  22493495.891   -28443112.63646 -21258843.57848  22493495.6974   22493501.3954
       184.000
  20607612.440   -37033694.32546 -28836535.24348  20607611.8974   20607616.9144
       215.000
  20389370.358   -31314614.67446 -24115919.66848  20389370.1034   20389375.3204
       215.000
 96  4 21  0 37 29.9990000  0  6 16 06 17 24 05 20
  21069220.398   -28072129.59146 -21849103.19848  21069219.8534   21069225.6974
       209.000
  21827883.628   -25220363.44846 -19642062.12248  21827883.4414   21827888.5344
       195.000
  24198574.124   -11268701.06346  -8159103.02247  24198573.4274   24198581.5844
       146.000
  22503599.743   -28390016.83746 -21217470.24948  22503599.5424   22503605.2214
       184.000
  20612851.038   -37006165.35846 -28815084.11948  20612850.4914   20612855.5134
       214.000
  20382677.806   -31349784.26946 -24143324.55248  20382677.5264   20382682.7614
       215.000
 96  4 21  0 37 59.9990000  0  6 16 06 17 24 05 20
  21060161.202   -28119735.80446 -21886198.93148  21060160.6644   21060166.5164
       209.000
  21812518.049   -25301109.99346 -19704981.49248  21812517.8684   21812522.9514
       195.000
  24177453.134   -11379692.25246  -8245589.57347  24177452.4184   24177460.5914
       146.000
  22513712.038   -28336876.63546 -21176062.31348  22513711.8314   22513717.4754
       183.000
  20618177.374   -36978175.45646 -28793273.82648  20618176.8334   20618181.8724
       214.000
  20376092.107   -31384392.35846 -24170291.90148  20376091.8554   20376097.0814
       215.000
 96  4 21  0 38 29.9990000  0  6 16 06 17 24 05 20
  21051206.748   -28166791.65046 -21922865.81048  21051206.2134   21051212.0694
       209.000
  21797161.687   -25381808.21446 -19767863.20948  21797161.5294   21797166.5834
       195.000
  24156364.230   -11490515.05546  -8331944.92447  24156363.4184   24156371.6444
       147.000
  22523836.450   -28283672.93346 -21134604.89848  22523836.1834   22523841.7974
       183.000
  20623593.849   -36949711.66046 -28771094.26448  20623593.2934   20623598.3674
       214.000
  20369613.574   -31418437.28646 -24196820.42248  20369613.3004   20369618.5544
       215.000
 96  4 21  0 38 59.9990000  0  6 16 06 17 24 05 20
  21042354.679   -28213309.69246 -21959113.62648  21042354.1414   21042359.9824
       209.000
  21781814.460   -25462458.52046 -19830707.58748  21781814.2744   21781819.2994
       195.000
  24135309.304   -11601159.04946  -8418160.93547  24135308.5834   24135316.6274
       147.000
  22533974.865   -28230395.33746 -21093089.90048  22533974.5844   22533980.2014
       183.000
  20629101.538   -36920768.74146 -28748541.36148  20629100.9904   20629106.0424
       214.000
  20363242.390   -31451918.14846 -24222909.41148  20363242.1314   20363247.3814
       215.000
 96  4 21  0 39 29.9990000  0  6 16 06 17 24 05 20
  21033603.120   -28259299.36146 -21994949.71648  21033602.5804   21033608.3884
       210.000
  21766478.697   -25543048.54746 -19893504.99848  21766478.5014   21766483.5044
       195.000
  24114288.848   -11711621.70446  -8504235.64647  24114288.1764   24114296.2474
       147.000
  22544128.108   -28177039.79646 -21051514.17048  22544127.8554   22544133.4244
       182.000
  20634701.217   -36891342.36046 -28725611.73148  20634700.6644   20634705.7134
       214.000
  20356974.833   -31484854.31746 -24248573.96248  20356974.5604   20356979.8314
       215.000
 96  4 21  0 39 59.9990000  0  6 16 06 17 24 05 20
  21024950.223   -28304770.50946 -22030381.76948  21024949.6904   21024955.4944
       210.000
  21751156.187   -25623568.66646 -19956247.93148  21751155.9984   21751160.9804
       195.000
  24093303.464   -11821899.98746  -8590166.68547  24093302.7844   24093310.9384
       147.000
  22554297.950   -28123596.74946 -21009870.25148  22554297.7254   22554303.2894
       182.000
  20640393.112   -36861431.40546 -28702304.51048  20640392.5344   20640397.5814
       214.000
  20350808.452   -31517258.89646 -24273824.29048  20350808.1894   20350813.4684
       215.000
 96  4 21  0 40 29.9990000  0  6 16 06 17 24 05 20
  21016399.604   -28349704.21246 -22065395.02848  21016399.0704   21016404.9084
       210.000
  21735849.254   -25704006.99246 -20018927.13348  21735849.0854   21735854.0324
       195.000
  24072353.011   -11931994.67546  -8675954.66647  24072352.2984   24072360.4124
       148.000
  22564485.195   -28070062.88346 -20968155.56048  22564484.9524   22564490.5094
       182.000
  20646178.797   -36831027.43546 -28678613.12648  20646178.2284   20646183.2874
       213.000
  20344745.338   -31549120.88346 -24298651.81548  20344745.0464   20344750.3584
       215.000
 96  4 21  0 40 59.9990000  0  6 16 06 17 24 05 20
  21007954.111   -28394085.57946 -22099977.89848  21007953.5664   21007959.4484
       210.000
  21720558.744   -25784359.15046 -20081539.19248  21720558.5704   21720563.5134
       196.000
  24051437.925   -12041903.80946  -8761598.05347  24051437.1574   24051445.1234
       148.000
  22574686.368   -28016455.50846 -20926383.58948  22574686.1304   22574691.6494
       182.000
  20652055.329   -36800145.94146 -28654549.65248  20652054.7704   20652059.8684
       213.000
  20338789.228   -31580420.18846 -24323040.88448  20338788.9794   20338794.2974
       215.000
 96  4 21  0 41 29.9990000  0  6 16 06 17 24 05 20
  20999617.792   -28437893.09146 -22134113.60648  20999617.2584   20999623.1404
       209.000
  21705284.984   -25864622.99146 -20144082.43348  21705284.8144   21705289.7514
       196.000
  24030554.916   -12151644.29846  -8847110.02947  24030554.1734   24030562.0884
       149.000
  22584897.236   -27962797.25546 -20884571.98448  22584897.0014   22584902.5024
       182.000
  20658020.220   -36768799.87446 -28630124.17448  20658019.6814   20658024.8194
       213.000
  20332942.023   -31611147.63146 -24346984.35248  20332941.7474   20332947.0594
       215.000
 96  4 21  0 41 59.9990000  0  6 16 06 17 24 05 20
  20991391.339   -28481122.98146 -22167799.21848  20991390.8234   20991396.7274
       209.000
  21690025.148   -25944813.88746 -20206568.83248  21690024.9884   21690029.9344
       196.000
  24009700.772   -12261233.14046  -8932503.83247  24009700.0304   24009707.9454
       148.000
  22595115.035   -27909102.42746 -20842731.87248  22595114.7674   22595120.2704
       182.000
  20664071.933   -36736997.93646 -28605343.46248  20664071.3914   20664076.5534
       213.000
  20327205.607   -31641292.67246 -24370473.99948  20327205.3294   20327210.6534
       214.000
 96  4 21  0 42 29.9990000  0  6 16 06 17 24 05 20
  20983281.603   -28523739.97346 -22201007.24948  20983281.0774   20983286.9574
       209.000
  21674784.265   -26024905.19546 -20268977.63948  21674784.0794   21674789.0584
       196.000
  23988881.880   -12370637.01546  -9017753.51347  23988881.1734   23988888.9254
       149.000
  22605342.970   -27855354.36546 -20800850.27548  22605342.6974   22605348.2194
       182.000
  20670215.504   -36704713.11246 -28580186.47548  20670214.9584   20670220.1674
       212.000
  20321584.872   -31670829.61346 -24393489.81048  20321584.6104   20321589.9634
       214.000
 96  4 21  0 42 59.9990000  0  6 16 06 17 24 05 20
  20975284.332   -28565765.92246 -22233754.72348  20975283.8134   20975289.6704
       209.000
  21659558.795   -26104915.49746 -20331323.31448  21659558.6004   21659563.6204
       196.000
  23968094.517   -12479875.44146  -9102874.26347  23968093.7144   23968101.4264
       150.000
  22615577.714   -27801570.34146 -20758940.65348  22615577.4324   22615583.0014
       182.000
  20676448.366   -36671959.33446 -28554664.07248  20676447.8334   20676453.0334
       212.000
  20316073.224   -31699793.44846 -24416059.04148  20316072.9654   20316078.3204
       214.000
 96  4 21  0 43 29.9990000  0  6 16 06 17 24 05 20
  20967396.160   -28607218.46546 -22266055.39648  20967395.6344   20967401.4614
       209.000
  21644345.757   -26184860.31046 -20393617.97248  21644345.5814   21644350.6124
       196.000
  23947338.166   -12588950.61146  -9187867.81047  23947337.4834   23947344.9944
       151.000
  22625820.359   -27747745.06046 -20716998.89348  22625820.0914   22625825.6874
       181.000
  20682772.541   -36638725.66846 -28528767.73448  20682771.9954   20682777.2214
       212.000
  20310667.489   -31728200.92046 -24438194.74448  20310667.2284   20310672.5824
       215.000
 96  4 21  0 43 59.9990000  0  6 16 06 17 24 05 20
  20959613.547   -28648116.45546 -22297923.94848  20959613.0224   20959618.8204
       209.000
  21629145.118   -26264740.28446 -20455862.10048  21629144.9654   21629149.9774
       197.000
  23926614.628   -12697853.21146  -9272726.87847  23926613.9504   23926621.4764
       151.000
  22636073.202   -27693865.87246 -20675015.12348  22636072.9634   22636078.5854
       181.000
  20689187.243   -36605016.35146 -28502500.75348  20689186.6944   20689191.9304
       212.000
  20305366.850   -31756056.03346 -24459900.03448  20305366.5774   20305371.9494
       215.000
 96  4 21  0 44 29.9990000  0  6 16 06 17 24 05 20
  20951935.818   -28688463.09246 -22329362.86848  20951935.3074   20951941.0694
       209.000
  21613955.942   -26344559.88946 -20518059.18248  21613955.7904   21613960.7874
       197.000
  23905924.852   -12806578.23546  -9357447.58247  23905924.2034   23905931.7024
       151.000
  22646335.832   -27639935.20346 -20632991.24048  22646335.5884   22646341.2414
       181.000
  20695691.200   -36570838.01946 -28475868.30248  20695690.6614   20695695.8934
       212.000
  20300172.144   -31783354.26446 -24481171.38848  20300171.8834   20300177.2564
       215.000
 96  4 21  0 44 59.9990000  0  6 16 06 17 24 05 20
  20944362.291   -28728262.29046 -22360375.21648  20944361.7604   20944367.5284
       209.000
  21598776.695   -26424327.55646 -20580215.80248  21598776.5284   21598781.5214
       198.000
  23885268.306   -12915128.75946  -9442032.31347  23885267.6544   23885275.2744
       152.000
  22656606.843   -27585960.73146 -20590933.22048  22656606.6184   22656612.2994
       180.000
  20702283.439   -36536195.77746 -28448874.37048  20702282.8984   20702288.1094
       212.000
  20295086.765   -31810078.23846 -24501995.27348  20295086.5144   20295091.8794
       215.000
 96  4 21  0 45 29.9990000  0  6 16 06 17 24 05 20
  20936890.370   -28767527.43346 -22390971.41748  20936889.8334   20936895.5964
       208.000
  21583606.925   -26504045.21446 -20642333.44948  21583606.7704   21583611.7264
       198.000
  23864644.561   -13023506.90046  -9526482.72447  23864643.9714   23864651.6244
       152.000
  22666885.316   -27531946.84246 -20548844.49048  22666885.1024   22666890.8024
       180.000
  20708961.311   -36501103.31346 -28421529.61548  20708960.7654   20708965.9834
       211.000
  20290110.150   -31836230.68346 -24522373.80948  20290109.8894   20290115.2244
       215.000
 96  4 21  0 45 59.9990000  0  6 16 06 17 24 05 20
  20929522.006   -28806248.61146 -22421143.75148  20929521.4644   20929527.2074
       208.000
  21568449.935   -26583695.95946 -20704398.95548  21568449.7534   21568454.6894
       198.000
  23844053.084   -13131715.79546  -9610801.26147  23844052.4364   23844060.0864
       152.000
  22677170.706   -27477896.99446 -20506727.73448  22677170.4814   22677176.1524
       180.000
  20715723.820   -36465566.17046 -28393838.36048  20715723.2834   20715728.4774
       211.000
  20285241.977   -31861813.16846 -24542308.22248  20285241.7194   20285247.0604
       215.000
 96  4 21  0 46 29.9990000  0  6 16 06 17 24 05 20
  20922259.922   -28844411.14346 -22450880.77748  20922259.3914   20922265.0914
       208.000
  21553305.573   -26663280.12646 -20766412.59148  21553305.3874   21553310.3134
       199.000
  23823492.794   -13239760.44046  -9694991.81847  23823492.0604   23823499.6904
       152.000
  22687461.141   -27423820.45946 -20464590.19848  22687460.8884   22687466.5814
       180.000
  20722572.785   -36429574.58346 -28365792.99448  20722572.2424   20722577.4504
       210.000
  20280481.655   -31886828.80646 -24561800.93848  20280481.3954   20280486.7574
       215.000
 96  4 21  0 46 59.9990000  0  6 16 06 17 24 05 20
  20915105.289   -28882009.11246 -22480177.88748  20915104.7644   20915110.4084
       209.000
  21538177.967   -26742776.01946 -20828357.42848  21538177.8104   21538182.7294
       199.000
  23802963.858   -13347639.98546  -9779053.72547  23802963.2024   23802970.8454
       153.000
  22697759.214   -27369703.64346 -20422421.26948  22697758.9784   22697764.6894
       179.000
  20729510.331   -36393117.56146 -28337384.94648  20729509.7794   20729514.9934
       210.000
  20275828.074   -31911283.52346 -24580856.56548  20275827.8264   20275833.2004
       215.000
 96  4 21  0 47 29.9990000  0  6 16 06 17 24 05 20
  20908060.775   -28919028.20946 -22509023.92448  20908060.2414   20908065.8734
       209.000
  21523070.433   -26822166.78446 -20890220.34948  21523070.2684   21523075.1704
       199.000
  23782466.192   -13455355.28646  -9862987.64547  23782465.5524   23782473.2414
       153.000
  22708066.608   -27315538.01246 -20380214.29548  22708066.3634   22708072.1114
       179.000
  20736538.149   -36356186.30246 -28308607.36348  20736537.6044   20736542.8164
       210.000
  20271281.015   -31935178.52646 -24599476.05148  20271280.7644   20271286.1474
       215.000
 96  4 21  0 47 59.9990000  0  6 16 06 17 24 05 20
  20901131.010   -28955444.47946 -22537400.23648  20901130.4584   20901136.1424
       209.000
  21507983.908   -26901447.03446 -20951997.16548  21507983.7434   21507988.6024
       199.000
  23762000.090   -13562905.21846  -9946792.71847  23761999.3904   23762007.1244
       154.000
  22718384.088   -27261319.30146 -20337965.96948  22718383.8604   22718389.5994
       178.000
  20743658.689   -36318767.85646 -28279450.16248  20743658.1344   20743663.3464
       210.000
  20266845.542   -31958487.20346 -24617638.66848  20266845.2754   20266850.6584
       215.000
 96  4 21  0 48 29.9990000  0  6 16 06 17 24 05 20
  20894315.211   -28991261.55946 -22565309.63648  20894314.6574   20894320.3604
       209.000
  21492915.495   -26980632.15546 -21013699.84348  21492915.3244   21492920.1664
       199.000
  23741564.721   -13670293.19346 -10030471.57947  23741564.0974   23741571.8464
       154.000
  22728710.398   -27207054.25446 -20295681.53048  22728710.2014   22728715.9044
       178.000
  20750872.200   -36280860.55046 -28249912.02748  20750871.6604   20750876.8724
       210.000
  20262523.039   -31981202.07846 -24635338.57448  20262522.7774   20262528.1484
       214.000
 96  4 21  0 48 59.9990000  0  6 16 06 17 24 05 20
  20887614.520   -29026473.91646 -22592747.82948  20887613.9664   20887619.6784
       210.000
  21477866.064   -27059717.26946 -21075324.59448  21477865.8834   21477870.7264
       199.000
  23721162.666   -13777506.65846 -10114014.46447  23721161.9424   23721169.8444
       154.000
  22739048.437   -27152727.51646 -20253349.01848  22739048.2454   22739053.9204
       177.000
  20758178.402   -36242466.45346 -28219994.57848  20758177.8424   20758183.0584
       210.000
  20258314.616   -32003317.31446 -24652571.23448  20258314.3414   20258319.7234
       214.000
 96  4 21  0 49 29.9990000  0  6 16 06 17 24 05 20
  20881029.486   -29061078.41146 -22619712.36248  20881028.9344   20881034.6444
       210.000
  21462833.645   -27138713.13546 -21136879.79948  21462833.4704   21462838.3174
       199.000
  23700795.266   -13884537.89946 -10197415.35847  23700794.6114   23700802.3384
       155.000
  22749397.961   -27098340.63246 -20210969.65048  22749397.7804   22749403.3934
       177.000
  20765576.656   -36203588.55046 -28189700.13448  20765576.0914   20765581.2854
       210.000
  20254221.302   -32024827.75046 -24669332.61748  20254221.0544   20254226.4344
       214.000
 96  4 21  0 49 59.9990000  0  6 16 06 17 24 05 20
  20874551.545   -29095120.18346 -22646238.40748  20874550.9994   20874556.6784
       211.000
  21447812.713   -27217648.55346 -21198387.90248  21447812.5584   21447817.4024
       199.000
  23680459.310   -13991404.04446 -10280687.60047  23680458.5504   23680466.2474
       155.000
  22759753.510   -27043922.02346 -20168565.55448  22759753.2514   22759758.8684
       176.000
  20773059.840   -36164264.34746 -28159057.92148  20773059.2604   20773064.4504
       210.000
  20250236.808   -32045766.51646 -24685648.54148  20250236.5734   20250241.9314
       214.000
 96  4 21  0 50 29.9990000  0  6 16 06 17 24 05 20
  20868179.160   -29128607.42946 -22672332.35448  20868178.6214   20868184.2474
       211.000
  21432807.146   -27296503.34646 -21259833.17948  21432806.9674   21432811.8094
       200.000
  23660157.910   -14098088.36646 -10363818.17747  23660157.1844   23660164.8454
       156.000
  22770115.978   -26989466.97346 -20126133.05448  22770115.7474   22770121.3384
       176.000
  20780626.303   -36124502.46546 -28128074.66248  20780625.7224   20780630.9374
       209.000
  20246358.376   -32066147.97246 -24701530.19848  20246358.1284   20246363.4824
       214.000
 96  4 21  0 50 59.9990000  0  6 16 06 17 24 05 20
  20861910.346   -29161550.40346 -22698002.19548  20861909.8104   20861915.4194
       211.000
  21417820.987   -27375256.01946 -21321198.88348  21417820.8314   21417825.6434
       200.000
  23639891.236   -14204590.27146 -10446806.60347  23639890.5344   23639898.0794
       157.000
  22780484.017   -26934982.70946 -20083677.79948  22780483.8094   22780489.3604
       176.000
  20788273.446   -36084316.53146 -28096760.97748  20788272.8584   20788278.0934
       209.000
  20242583.831   -32085983.34546 -24716986.33648  20242583.5814   20242588.9304
       214.000
 96  4 21  0 51 29.9990000  0  6 16 06 17 24 05 20
  20855746.266   -29193942.85046 -22723243.05248  20855745.7184   20855751.3644
       211.000
  21402858.042   -27453886.71246 -21382469.54148  21402857.9004   21402862.7084
       201.000
  23619660.979   -14310900.60846 -10529645.76347  23619660.2804   23619667.8264
       157.000
  22790857.241   -26880471.22646 -20041201.33748  22790857.0184   22790862.5834
       176.000
  20796002.324   -36043701.02046 -28065112.55048  20796001.7584   20796006.9704
       209.000
  20238917.614   -32105249.40646 -24731998.85648  20238917.3794   20238922.7074
       214.000
 96  4 21  0 51 59.9990000  0  6 16 06 17 24 05 20
  20849686.502   -29225786.76646 -22748056.48548  20849685.9534   20849691.6684
       211.000
  21387917.821   -27532398.25846 -21443647.35348  21387917.6634   21387922.4414
       201.000
  23599466.146   -14417025.06846 -10612340.08047  23599465.4604   23599472.9364
       158.000
  22801232.553   -26825948.63146 -19998716.21448  22801232.2954   22801237.8684
       176.000
  20803809.761   -36002672.78046 -28033142.51448  20803809.2034   20803814.4184
       209.000
  20235358.973   -32123950.24046 -24746570.93748  20235358.7334   20235364.0324
       214.000
 96  4 21  0 52 29.9990000  0  6 16 06 17 24 05 20
  20843735.318   -29257060.12646 -22772425.32848  20843734.7734   20843740.5254
       211.000
  21373000.156   -27610791.26646 -21504732.79748  21372999.9904   21373004.7564
       201.000
  23579308.348   -14522954.93246 -10694882.76347  23579307.6954   23579315.1644
       158.000
  22811611.760   -26771405.62046 -19956215.18748  22811611.5104   22811617.0314
       176.000
  20811698.281   -35961218.57146 -28000840.56248  20811697.7214   20811702.9384
       209.000
  20231911.682   -32142066.08246 -24760687.18248  20231911.4194   20231916.7284
       215.000
 96  4 21  0 52 59.9990000  0  6 16 06 17 24 05 20
  20837896.157   -29287745.00846 -22796335.61348  20837895.6154   20837901.3674
       211.000
  21358100.702   -27689088.20346 -21565743.38348  21358100.5154   21358105.3324
       201.000
  23559188.795   -14628683.39546 -10777268.50447  23559188.1644   23559195.5564
       159.000
  22821993.782   -26716847.97246 -19913702.75448  22821993.5034   22821999.0284
       176.000
  20819668.902   -35919332.71246 -27968202.25848  20819668.3344   20819673.5604
       209.000
  20228578.148   -32159583.82146 -24774337.37348  20228577.8874   20228583.2034
       215.000
 96  4 21  0 53 29.9990000  0  6 16 06 17 24 05 20
  20832175.701   -29317806.06046 -22819759.79948  20832175.1754   20832180.8934
       211.000
  21343217.112   -27767301.72946 -21626688.97148  21343216.9484   21343221.8144
       201.000
  23539111.786   -14734188.55446 -10859480.24847  23539111.2124   23539118.5204
       160.000
  22832383.340   -26662250.86546 -19871159.56848  22832383.0404   22832388.5734
       175.000
  20827725.682   -35876994.25346 -27935211.27748  20827725.1064   20827730.3454
       208.000
  20225363.086   -32176479.31246 -24787502.70148  20225362.8134   20225368.1224
       215.000
 96  4 21  0 53 59.9990000  0  6 16 06 17 24 05 20
  20826573.034   -29347248.25846 -22842701.76348  20826572.4844   20826578.2064
       211.000
  21328348.976   -27845434.14146 -21687571.35648  21328348.8214   21328353.7474
       201.000
  23519078.880   -14839462.18646 -10941511.58047  23519078.3114   23519085.5784
       160.000
  22842781.478   -26607608.28346 -19828580.95248  22842781.1924   22842786.6744
       175.000
  20835871.606   -35834187.05746 -27901855.04848  20835871.0464   20835876.2754
       208.000
  20222263.990   -32192765.08746 -24800192.92448  20222263.7184   20222269.0594
       215.000
 96  4 21  0 54 29.9990000  0  6 16 06 17 24 05 20
  20821084.168   -29376092.43746 -22865177.74048  20821083.6344   20821089.3404
       211.000
  21313495.103   -27923491.73846 -21748395.44248  21313494.9454   21313499.9264
       201.000
  23499086.066   -14944524.97746 -11023378.61948  23499085.4324   23499092.7854
       161.000
  22853186.885   -26552927.51546 -19785972.57648  22853186.6084   22853192.0944
       175.000
  20844105.027   -35790920.38446 -27868140.79148  20844104.4674   20844109.6904
       208.000
  20219276.995   -32208461.85546 -24812424.17848  20219276.7264   20219282.0734
       214.000
 96  4 21  0 54 59.9990000  0  6 16 06 17 24 05 20
  20815706.259   -29404353.33746 -22887199.21148  20815705.7174   20815711.4254
       211.000
  21298656.010   -28001471.70546 -21809159.03948  21298655.8174   21298660.8104
       201.000
  23479128.745   -15049400.98946 -11105100.12148  23479128.0484   23479135.4224
       161.000
  22863597.880   -26498217.34346 -19743341.28948  22863597.6314   22863603.0834
       174.000
  20852423.930   -35747204.31746 -27834076.34848  20852423.3584   20852428.6014
       208.000
  20216399.813   -32223581.40746 -24824205.65248  20216399.5484   20216404.9294
       214.000
 96  4 21  0 55 29.9990000  0  6 16 06 17 24 05 20
  20810433.270   -29432063.01946 -22908791.16748  20810432.7374   20810438.4474
       211.000
  21283834.328   -28079360.02346 -21869851.22048  21283834.1584   21283839.1314
       201.000
  23459201.816   -15154117.25046 -11186697.14348  23459201.1434   23459208.5194
       161.000
  22874014.234   -26443479.04546 -19700688.09248  22874013.9804   22874019.4744
       174.000
  20860827.058   -35703045.63846 -27799667.01648  20860826.5104   20860831.7614
       207.000
  20213630.112   -32238136.32346 -24835547.15048  20213629.8254   20213635.2214
       214.000
 96  4 21  0 55 59.9990000  0  6 16 06 17 24 05 20
  20805264.582   -29459224.57146 -22929956.00648  20805264.0554   20805269.7714
       211.000
  21269034.944   -28157131.21446 -21930452.13748  21269034.7544   21269039.7034
       201.000
  23439305.943   -15258670.34946 -11268167.02248  23439305.2964   23439312.6934
       161.000
  22884436.173   -26388711.15246 -19658011.82648  22884435.9454   22884441.5184
       174.000
  20869312.957   -35658452.04846 -27764918.79348  20869312.4064   20869317.6764
       207.000
  20210966.934   -32252131.27046 -24846452.30848  20210966.6694   20210972.0844
       214.000
 96  4 21  0 56 29.9990000  0  6 16 06 17 24 05 20
  20800203.918   -29485818.53846 -22950678.57148  20800203.3894   20800209.0724
       211.000
  21254258.422   -28234782.21646 -21990959.40048  21254258.2434   21254263.1624
       201.000
  23419440.461   -15363063.74646 -11349512.46248  23419439.8194   23419447.1544
       161.000
  22894860.941   -26333928.62246 -19615324.15748  22894860.6974   22894866.3484
       174.000
  20877877.931   -35613442.90546 -27729846.75848  20877877.3764   20877882.6314
       207.000
  20208413.227   -32265551.35846 -24856909.52548  20208412.9674   20208418.3644
       214.000
 96  4 21  0 56 59.9990000  0  6 16 06 17 24 05 20
  20795254.236   -29511829.17946 -22970946.59748  20795253.7154   20795259.4044
       211.000
  21239504.767   -28312313.09046 -22051373.05448  21239504.5774   21239509.4664
       202.000
  23399608.173   -15467283.06646 -11430722.26248  23399607.5294   23399614.7934
       161.000
  22905285.689   -26279146.06646 -19572636.47348  22905285.4214   22905291.1834
       173.000
  20886523.746   -35568008.95846 -27694443.71148  20886523.1914   20886528.4194
       206.000
  20205970.393   -32278388.51646 -24866912.51448  20205970.1284   20205975.5124
       214.000
 96  4 21  0 57 29.9990000  0  6 16 06 17 24 05 20
  20790418.399   -29537241.59446 -22990748.46448  20790417.8834   20790423.5864
       211.000
  21224773.230   -28389727.91546 -22111696.28048  21224773.0464   21224777.9194
       202.000
  23379811.919   -15571312.65246 -11511784.21648  23379811.2544   23379818.5694
       161.000
  22915706.869   -26224382.31546 -19529963.43148  22915706.6164   22915712.4174
       173.000
  20895248.515   -35522160.06846 -27658717.32448  20895247.9514   20895253.1754
       206.000
  20203635.732   -32290657.05846 -24876472.41848  20203635.4544   20203640.8654
       214.000
 96  4 21  0 57 59.9990000  0  6 16 06 17 24 05 20
  20785700.263   -29562035.49946 -23010068.38548  20785699.7304   20785705.4684
       211.000
  21210061.578   -28467038.17846 -22171938.03448  21210061.3904   21210066.2724
       202.000
  23360054.891   -15675136.18546 -11592685.60448  23360054.2424   23360061.5854
       161.000
  22926122.229   -26169649.04146 -19487314.13948  22926121.9964   22926127.7914
       172.000
  20904051.682   -35475899.18346 -27622669.91348  20904051.1174   20904056.3514
       206.000
  20201409.841   -32302354.11946 -24885587.01648  20201409.5854   20201414.9844
       214.000
 96  4 21  0 58 29.9990000  0  6 16 06 17 24 05 20
  20781099.417   -29586213.17946 -23028908.12848  20781098.8844   20781104.5984
       211.000
  21195369.498   -28544245.40446 -22232099.49748  21195369.3214   21195374.1734
       202.000
  23340336.327   -15778757.92946 -11673429.76148  23340335.6624   23340342.8814
       161.000
  22936531.243   -26114949.22746 -19444690.93348  22936531.0304   22936536.8914
       172.000
  20912934.874   -35429217.88146 -27586294.89948  20912934.3274   20912939.5434
       206.000
  20199294.864   -32313468.48646 -24894247.57148  20199294.5994   20199300.0144
       214.000
 96  4 21  0 58 59.9990000  0  6 16 06 17 24 05 20
  20776613.779   -29609785.45646 -23047276.12948  20776613.2404   20776618.9264
       211.000
  21180697.682   -28621346.43146 -22292178.21048  21180697.4984   21180702.3134
       202.000
  23320656.287   -15882177.45846 -11754016.34948  23320655.6364   23320662.6704
       162.000
  22946939.016   -26060256.11546 -19402072.93448  22946938.7954   22946944.6854
       172.000
  20921900.278   -35382104.63346 -27549583.31248  20921899.7204   20921904.9484
       206.000
  20197288.191   -32324013.65146 -24902464.59348  20197287.9284   20197293.3654
       214.000
 96  4 21  0 59 29.9990000  0  6 16 06 17 24 05 20
  20772237.948   -29632780.80246 -23065194.57148  20772237.3894   20772243.0434
       211.000
  21166044.292   -28698350.45346 -22352181.33448  21166044.1034   21166048.9054
       202.000
  23301014.217   -15985397.42046 -11834447.44448  23301013.5744   23301020.4474
       162.000
  22957349.769   -26005547.32246 -19359442.73248  22957349.5184   22957355.4464
       172.000
  20930943.923   -35334579.97546 -27512551.14848  20930943.3604   20930948.6384
       205.000
  20195388.968   -32333994.39846 -24910241.80848  20195388.6734   20195394.1044
       214.000
 96  4 21  0 59 59.9990000  0  6 16 06 17 24 05 20
  20767967.754   -29655220.87846 -23082680.33848  20767967.1954   20767972.8434
       211.000
  21151409.585   -28775256.51446 -22412108.12548  21151409.3644   21151414.1504
       203.000
  23281407.666   -16088430.36446 -11914732.79848  23281407.0374   23281413.8914
       162.000
  22967766.591   -25950806.58946 -19316787.63348  22967766.3164   22967772.2454
       171.000
  20940064.755   -35286649.68946 -27475202.91148  20940064.1854   20940069.5214
       205.000
  20193600.223   -32343394.40546 -24917566.50348  20193599.9424   20193605.3464
       214.000
 96  4 21  1  0 29.9990000  0  6 16 06 17 24 05 20
  20763801.679   -29677113.79346 -23099739.74248  20763801.1204   20763806.7654
       211.000
  21136794.480   -28852059.34146 -22471954.47548  21136794.2524   21136799.0404
       203.000
  23261833.167   -16191294.62546 -11994886.72548  23261832.5894   23261839.3874
       162.000
  22978191.921   -25896021.31746 -19274097.81748  22978191.6494   22978197.5434
       171.000
  20949262.190   -35238316.87046 -27437541.01048  20949261.6384   20949267.0024
       205.000
  20191920.099   -32352223.70146 -24924446.48448  20191919.8154   20191925.1874
       214.000
 96  4 21  1  0 59.9990000  0  6 16 06 17 24 05 20
  20759740.727   -29698454.23646 -23116368.64948  20759740.1814   20759745.8084
       211.000
  21122200.873   -28928749.01446 -22531712.65548  21122200.6554   21122205.4414
       203.000
  23242293.524   -16293975.67446 -12074897.87648  23242292.9754   23242299.8374
       162.000
  22988627.100   -25841184.42846 -19231367.79748  22988626.8044   22988632.6784
       171.000
  20958537.580   -35189574.42146 -27399559.91148  20958537.0274   20958542.3984
       205.000
  20190348.006   -32360485.11746 -24930883.96248  20190347.7234   20190353.0704
       214.000
 96  4 21  1  1 29.9990000  0  6 16 06 17 24 05 20
  20755784.933   -29719242.20146 -23132567.05148  20755784.3704   20755790.0194
       211.000
  21107627.895   -29005330.15546 -22591386.26148  21107627.7034   21107632.5104
       203.000
  23222787.987   -16396477.74446 -12154769.56848  23222787.4094   23222794.2374
       162.000
  22999068.382   -25786315.21046 -19188612.57648  22999068.1064   22999073.9394
       170.000
  20967888.084   -35140437.46446 -27361271.40048  20967887.5144   20967892.8894
       205.000
  20188884.439   -32368176.16346 -24936876.99548  20188884.1464   20188889.5144
       214.000
 96  4 21  1  1 59.9990000  0  6 16 06 17 24 05 20
  20751939.098   -29739451.99246 -23148314.93348  20751938.5524   20751944.2194
       211.000
  21093077.943   -29081790.69346 -22650965.89448  21093077.7464   21093082.5724
       203.000
  23203313.624   -16498815.86846 -12234513.49948  23203313.0614   23203319.9184
       162.000
  23009511.766   -25731434.67246 -19145848.53448  23009511.5274   23009517.3684
       170.000
  20977315.569   -35090895.94046 -27322667.64448  20977315.0074   20977320.3634
       204.000
  20187530.194   -32375292.56246 -24942422.25248  20187529.9044   20187535.3094
       214.000
 96  4 21  1  2 29.9990000  0  6 16 06 17 24 05 20
  20748206.285   -29759068.03046 -23163600.14448  20748205.7264   20748211.3784
       211.000
  21078553.255   -29158118.46246 -22710442.06948  21078553.0614   21078557.8994
       204.000
  23183875.740   -16600962.54346 -12314108.25048  23183875.1584   23183882.0594
       162.000
  23019957.479   -25676541.89046 -19103074.96248  23019957.1964   23019963.1094
       170.000
  20986824.534   -35040926.15246 -27283730.17948  20986823.9644   20986829.2994
       204.000
  20186285.513   -32381833.44346 -24947519.05448  20186285.2364   20186290.6444
       214.000
 96  4 21  1  2 59.9990000  0  6 16 06 17 24 05 20
  20744589.523   -29778074.24246 -23178410.17448  20744588.9704   20744594.6204
       210.000
  21064054.973   -29234307.49746 -22769810.13548  21064054.7884   21064059.6494
       204.000
  23164480.681   -16702883.97446 -12393527.49148  23164480.1044   23164486.9934
       162.000
  23030405.750   -25621635.84646 -19060291.04848  23030405.5324   23030411.4334
       169.000
  20996417.275   -34990515.97946 -27244449.55148  20996416.7034   20996422.0494
       204.000
  20185155.615   -32387771.35346 -24952146.00348  20185155.3184   20185160.7364
       214.000
 96  4 21  1  3 29.9990000  0  6 16 06 17 24 05 20
  20741085.954   -29796485.62446 -23192756.69948  20741085.3954   20741091.0284
       210.000
  21049577.850   -29310385.19446 -22829091.45148  21049577.6414   21049582.5074
       204.000
  23145124.172   -16804602.51646 -12472788.62848  23145123.6044   23145130.4804
       162.000
  23040852.309   -25566738.77146 -19017514.13648  23040852.0704   23040857.9364
       169.000
  21006087.959   -34939696.44346 -27204849.94448  21006087.3684   21006092.7214
       204.000
  20184140.288   -32393106.95146 -24956303.62748  20184140.0114   20184145.4154
       214.000
 96  4 21  1  3 59.9990000  0  6 16 06 17 24 05 20
  20737694.311   -29814308.69146 -23206644.79148  20737693.7534   20737699.3844
       210.000
  21035121.874   -29386351.81646 -22888286.21248  21035121.6684   21035126.5184
       204.000
  23125806.275   -16906118.62846 -12551892.02948  23125805.7084   23125812.5474
       163.000
  23051296.041   -25511856.60846 -18974748.81848  23051295.8204   23051301.6664
       168.000
  21015836.192   -34888469.13446 -27164932.58948  21015835.6204   21015840.9804
       203.000
  20183239.372   -32397841.33746 -24959992.76948  20183239.0744   20183244.4934
       214.000
 96  4 21  1  4 29.9990000  0  6 16 06 17 24 05 20
  20734412.709   -29831553.51246 -23220082.30248  20734412.1554   20734417.8054
       210.000
  21020686.047   -29462212.25246 -22947398.22748  21020685.8424   21020690.7274
       204.000
  23106531.581   -17007407.30246 -12630818.20848  23106530.9824   23106537.8674
       163.000
  23061738.610   -25456980.52146 -18931988.25348  23061738.3914   23061744.2284
       168.000
  21025661.508   -34836836.96346 -27124699.75148  21025660.9284   21025666.2734
       203.000
  20182451.360   -32401982.25446 -24963219.46648  20182451.0904   20182456.4824
       214.000
 96  4 21  1  4 59.9980000  0  6 16 06 17 24 05 20
  20731239.203   -29848230.43846 -23233077.30448  20731238.6324   20731244.2654
       209.000
  21006269.224   -29537973.24546 -23006432.76548  21006269.0434   21006273.9144
       205.000
  23087298.571   -17108477.52746 -12709574.16348  23087297.9764   23087304.7654
       163.000
  23072177.246   -25402125.17746 -18889243.85048  23072177.0644   23072182.9344
       167.000
  21035559.865   -34784820.96146 -27084167.82948  21035559.2954   21035564.6174
       203.000
  20181774.663   -32405538.45946 -24965990.55248  20181774.3884   20181779.7944
       215.000
 96  4 21  1  5 29.9980000  0  6 16 06 17 24 05 20
  20728170.377   -29864357.24246 -23245643.63348  20728169.8074   20728175.4524
       209.000
  20991872.015   -29613631.29546 -23065387.07848  20991871.8204   20991876.6654
       205.000
  23068102.792   -17209351.78046 -12788177.41048  23068102.1464   23068108.9454
       163.000
  23082611.302   -25347294.14146 -18846518.38948  23082611.0714   23082616.9434
       166.000
  21045530.675   -34732424.17846 -27043339.19448  21045530.1134   21045535.4314
       202.000
  20181204.607   -32408534.36146 -24968325.02648  20181204.3234   20181209.7344
       215.000
 96  4 21  1  5 59.9980000  0  6 16 06 17 24 05 20
  20725208.159   -29879923.84546 -23257773.45248  20725207.5674   20725213.1994
       209.000
  20977499.538   -29689159.28646 -23124240.05148  20977499.3394   20977504.1794
       206.000
  23048948.014   -17310010.84846 -12866612.99748  23048947.3464   23048954.0504
       164.000
  23093041.990   -25292480.80546 -18803806.71648  23093041.7404   23093047.6074
       166.000
  21055578.055   -34679624.89946 -27002196.93748  21055577.4674   21055582.8134
       202.000
  20180738.429   -32410984.21846 -24970234.02348  20180738.1264   20180743.5374
       215.000
 96  4 21  1  6 29.9980000  0  6 16 06 17 24 05 20
  20722353.033   -29894927.75146 -23269464.79948  20722352.4344   20722358.0714
       208.000
  20963152.634   -29764552.87446 -23182988.29148  20963152.4324   20963157.2684
       206.000
  23029832.425   -17410463.97246 -12944888.09148  23029831.7794   23029838.4354
       164.000
  23103468.417   -25237689.40046 -18761112.12748  23103468.1924   23103474.0354
       165.000
  21065700.439   -34626431.64246 -26960747.67748  21065699.8694   21065705.2144
       202.000
  20180375.177   -32412893.37046 -24971721.68648  20180374.8774   20180380.2964
       215.000
 96  4 21  1  6 59.9980000  0  6 16 06 17 24 05 20
  20719610.225   -29909341.31246 -23280696.14048  20719609.6334   20719615.2544
       208.000
  20948837.216   -29839780.71046 -23241607.37848  20948837.0124   20948841.8684
       206.000
  23010754.332   -17510719.98246 -13023009.59448  23010753.5974   23010760.3194
       165.000
  23113892.864   -25182908.98146 -18718426.10948  23113892.5954   23113898.4574
       165.000
  21075899.380   -34572835.82846 -26918984.74048  21075898.7994   21075904.1844
       202.000
  20180118.757   -32414241.21046 -24972771.96448  20180118.4354   20180123.8334
       215.000
 96  4 21  1  7 29.9980000  0  6 16 06 17 24 05 20
  20716980.744   -29923159.08246 -23291463.22848  20716980.1634   20716985.8044
       208.000
  20934554.060   -29914839.23046 -23300094.52748  20934553.8804   20934558.7204
       206.000
  22991709.488   -17610800.79946 -13100994.58748  22991708.7224   22991715.5294
       165.000
  23124314.217   -25128144.48946 -18675752.49748  23124313.9614   23124319.7904
       165.000
  21086172.782   -34518848.89946 -26876917.04048  21086172.2074   21086177.5844
       201.000
  20179968.250   -32415032.23546 -24973388.35848  20179967.9194   20179973.3134
       215.000
 96  4 21  1  7 59.9980000  0  6 16 06 17 24 05 20
  20714471.777   -29936343.59546 -23301736.87248  20714471.2304   20714476.8894
       208.000
  20920306.278   -29989711.81346 -23358436.78648  20920306.0844   20920310.9174
       206.000
  22972701.330   -17710689.23146 -13178829.67848  22972700.6114   22972707.4704
       166.000
  23134737.497   -25073369.72546 -18633070.88548  23134737.2244   23134743.0074
       165.000
  21096522.859   -34464458.81546 -26834535.19248  21096522.2924   21096527.6944
       201.000
  20179929.570   -32415235.43046 -24973546.70548  20179929.2464   20179934.6454
       215.000
 96  4 21  1  8 29.9980000  0  6 16 06 17 24 05 20
  20712080.135   -29948911.65546 -23311530.16048  20712079.5964   20712085.2484
       209.000
  20906088.379   -30064427.23646 -23416656.58448  20906088.1964   20906093.0324
       206.000
  22953726.655   -17810401.43346 -13256527.43448  22953725.9964   22953732.7944
       166.000
  23145161.360   -25018592.07146 -18590387.01748  23145161.0884   23145166.8664
       166.000
  21106945.654   -34409686.84446 -26791855.76948  21106945.0664   21106950.4824
       201.000
  20180002.182   -32414853.74046 -24973249.29948  20180001.8654   20180007.2634
       215.000
 96  4 21  1  8 59.9980000  0  6 16 06 17 24 05 20
  20709799.871   -29960894.38346 -23320867.35248  20709799.3244   20709804.9674
       209.000
  20891894.730   -30139015.26646 -23474777.11848  20891894.5334   20891899.3594
       206.000
  22934784.945   -17909940.84346 -13334090.55848  22934784.2894   22934791.1054
       167.000
  23155584.859   -24963816.29246 -18547704.62448  23155584.5624   23155590.3074
       165.000
  21117439.535   -34354541.19446 -26748885.17448  21117438.9514   21117444.3674
       200.000
  20180183.362   -32413901.76146 -24972507.51348  20180183.0404   20180188.4244
       215.000
 96  4 21  1  9 29.9980000  0  6 16 06 17 24 05 20
  20707626.086   -29972317.61746 -23329768.57248  20707625.5194   20707631.1854
       209.000
  20877721.879   -30213493.97546 -23532812.46848  20877721.6744   20877726.5194
       206.000
  22915878.729   -18009293.83146 -13411508.42548  22915878.0484   22915884.7514
       167.000
  23166010.038   -24909031.73646 -18505015.36048  23166009.7654   23166015.4694
       165.000
  21128003.251   -34299028.53246 -26705628.59948  21128002.6684   21128008.1264
       200.000
  20180472.374   -32412382.95746 -24971324.04548  20180472.0404   20180477.4354
       215.000
 96  4 21  1  9 59.9980000  0  6 16 06 17 24 05 20
  20705555.101   -29983200.65546 -23338248.86148  20705554.5534   20705560.2054
       209.000
  20863567.415   -30287876.11446 -23590772.56548  20863567.2034   20863572.0594
       207.000
  22897010.149   -18108448.71046 -13488771.92448  22897009.4304   22897016.1234
       167.000
  23176436.481   -24854240.28346 -18462320.74948  23176436.2574   23176441.9534
       165.000
  21138635.663   -34243154.86946 -26662090.72548  21138635.0874   21138640.5404
       200.000
  20180868.315   -32410302.35246 -24969702.80748  20180867.9664   20180873.3924
       215.000
 96  4 21  1 10 29.9980000  0  6 16 06 17 24 05 20
  20703585.748   -29993549.66646 -23346313.02148  20703585.2064   20703590.8244
       209.000
  20849432.616   -30362154.90946 -23648652.13148  20849432.4184   20849437.2584
       207.000
  22878183.164   -18207384.64746 -13565864.82048  22878182.4944   22878189.1664
       167.000
  23186863.946   -24799443.70546 -18419622.13748  23186863.7384   23186869.4534
       165.000
  21149338.030   -34186913.77946 -26618266.53248  21149337.4184   21149342.8884
       199.000
  20181373.062   -32407649.88446 -24967635.95948  20181372.7264   20181378.1774
       215.000
 96  4 21  1 10 59.9980000  0  6 16 06 17 24 05 20
  20701721.416   -30003346.92046 -23353947.24548  20701720.8574   20701726.4664
       210.000
  20835321.935   -30436306.86946 -23706432.86948  20835321.7574   20835326.5654
       207.000
  22859398.207   -18306099.92646 -13642785.78548  22859397.5384   22859404.1724
       167.000
  23197291.497   -24744646.91146 -18376923.35048  23197291.2794   23197296.9034
       165.000
  21160108.771   -34130313.23746 -26574162.25348  21160108.1724   21160113.6254
       199.000
  20181987.563   -32404420.59146 -24965119.64448  20181987.2214   20181992.7124
       215.000
 96  4 21  1 11 29.9980000  0  6 16 06 17 24 05 20
  20699963.939   -30012582.42246 -23361143.73648  20699963.3644   20699968.9744
       210.000
  20821237.219   -30510322.68846 -23764107.52348  20821237.0084   20821241.8124
       207.000
  22840653.522   -18404603.72346 -13719541.95048  22840652.8254   22840659.4694
       167.000
  23207715.271   -24689869.88046 -18334239.97448  23207715.0524   23207720.6224
       165.000
  21170945.039   -34073368.41746 -26529789.70248  21170944.4604   21170949.8844
       199.000
  20182709.176   -32400628.37646 -24962164.67948  20182708.8414   20182714.3084
       215.000
 96  4 21  1 11 59.9980000  0  6 16 06 17 24 05 20
  20698316.906   -30021237.67346 -23367888.08548  20698316.3344   20698321.9434
       210.000
  20807181.285   -30584187.16346 -23821664.24748  20807181.0884   20807185.8824
       208.000
  22821949.972   -18502891.23246 -13796129.59148  22821949.2634   22821955.9054
       168.000
  23218132.221   -24635128.75446 -18291584.57048  23218132.0114   23218137.5924
       165.000
  21181849.510   -34016065.30646 -26485137.96348  21181848.9214   21181854.3654
       199.000
  20183537.644   -32396274.83946 -24958772.32448  20183537.3184   20183542.7614
       215.000
 96  4 21  1 12 29.9980000  0  6 16 06 17 24 05 20
  20696779.880   -30029314.82746 -23374181.97048  20696779.3184   20696784.9044
       210.000
  20793154.838   -30657896.64146 -23879100.19448  20793154.6394   20793159.4434
       208.000
  22803286.123   -18600969.90046 -13872554.49548  22803285.4344   22803292.0674
       168.000
  23228541.439   -24580427.96346 -18248960.59548  23228541.2254   23228546.7954
       165.000
  21192821.818   -33958405.54046 -26440208.31348  21192821.2354   21192826.6714
       198.000
  20184471.469   -32391367.64446 -24954948.55148  20184471.1414   20184476.5784
       215.000
 96  4 21  1 12 59.9980000  0  6 16 06 17 24 05 20
  20695350.446   -30036826.77646 -23380035.43348  20695349.8574   20695355.4334
       210.000
  20779156.394   -30731459.01546 -23936421.51648  20779156.1904   20779160.9914
       208.000
  22784659.298   -18698854.02346 -13948827.79348  22784658.6794   22784665.2804
       168.000
  23238941.777   -24525773.80946 -18206372.95648  23238941.5664   23238947.1974
       164.000
  21203859.533   -33900402.23446 -26395010.96248  21203858.9344   21203864.3734
       198.000
  20185505.443   -32385934.29146 -24950714.78148  20185505.0864   20185510.5384
       214.000
 96  4 21  1 13 29.9980000  0  6 16 06 17 24 05 20
  20694028.772   -30043772.29746 -23385447.52348  20694028.1924   20694033.7804
       210.000
  20765187.723   -30804864.89146 -23993620.89648  20765187.5204   20765192.3214
       208.000
  22766072.977   -18796525.72246 -14024935.57948  22766072.3464   22766078.8784
       168.000
  23249335.427   -24471155.00746 -18163812.86948  23249335.2104   23249340.8094
       164.000
  21214967.346   -33842030.49446 -26349526.52348  21214966.7544   21214972.1864
       198.000
  20186642.100   -32379961.03846 -24946060.31548  20186641.7694   20186647.2124
       214.000
 96  4 21  1 13 59.9980000  0  6 16 06 17 24 05 20
  20692813.775   -30050157.08046 -23390422.67248  20692813.1944   20692818.7994
       210.000
  20751246.001   -30878128.95646 -24050709.76748  20751245.8014   20751250.6224
       208.000
  22747524.784   -18893997.02946 -14100887.21248  22747524.1474   22747530.7044
       168.000
  23259720.357   -24416582.05846 -18121288.51648  23259720.1404   23259725.7264
       164.000
  21226142.384   -33783305.34746 -26303766.70948  21226141.7984   21226147.2454
       198.000
  20187883.138   -32373439.42346 -24940978.55248  20187882.7994   20187888.2594
       214.000
 96  4 21  1 14 29.9980000  0  6 16 06 17 24 05 20
  20691706.864   -30055973.80446 -23394955.17348  20691706.3004   20691711.9074
       210.000
  20737332.752   -30951243.52546 -24107682.15248  20737332.5734   20737337.4054
       208.000
  22729013.051   -18991277.01746 -14176689.77248  22729012.3724   22729018.9254
       169.000
  23270098.098   -24362047.20746 -18078793.84248  23270097.8664   23270103.3954
       164.000
  21237383.344   -33724234.02046 -26257737.14148  21237382.7264   21237388.1904
       197.000
  20189229.566   -32366364.08446 -24935465.31348  20189229.2274   20189234.6874
       214.000
 96  4 21  1 14 59.9980000  0  6 16 06 17 24 05 20
  20690707.667   -30061224.65546 -23399046.73648  20690707.1114   20690712.6724
       210.000
  20723445.074   -31024223.65946 -24164549.78248  20723444.8784   20723449.7174
       208.000
  22710536.889   -19088369.76746 -14252346.42448  22710536.2134   22710542.7224
       169.000
  23280466.461   -24307561.21046 -18036337.24048  23280466.2294   23280471.7864
       163.000
  21248687.105   -33664832.41146 -26211450.21648  21248686.4904   21248691.9644
       197.000
  20190680.103   -32358741.37846 -24929525.56048  20190679.7634   20190685.2394
       214.000
 96  4 21  1 15 29.9980000  0  6 16 06 17 24 05 20
  20689818.242   -30065898.59646 -23402688.75648  20689817.6974   20689823.2164
       210.000
  20709583.650   -31097065.79546 -24221309.88348  20709583.4544   20709588.2844
       208.000
  22692096.057   -19185276.86646 -14327858.40948  22692095.3594   22692101.9204
       169.000
  23290826.907   -24253116.67746 -17993912.95748  23290826.6564   23290832.2494
       163.000
  21260055.446   -33605091.26046 -26164898.71448  21260054.8504   21260060.3514
       197.000
  20192238.942   -32350549.72546 -24923142.47348  20192238.6044   20192244.0934
       214.000
 96  4 21  1 15 59.9980000  0  6 16 06 17 24 05 20
  20689036.944   -30070004.29946 -23405887.99748  20689036.3684   20689041.9094
       209.000
  20695746.491   -31169780.57646 -24277970.74248  20695746.2934   20695751.1054
       208.000
  22673688.116   -19282010.89446 -14403235.53748  22673687.4534   22673694.0364
       169.000
  23301180.053   -24198710.80946 -17951518.78848  23301179.7894   23301185.3704
       163.000
  21271484.893   -33545029.36146 -26118097.27048  21271484.2984   21271489.8034
       197.000
  20193902.481   -32341807.68146 -24916330.50848  20193902.1724   20193907.6304
       214.000
 96  4 21  1 16 29.9980000  0  6 16 06 17 24 05 20
  20688365.009   -30073535.32846 -23408639.44048  20688364.4434   20688369.9944
       209.000
  20681937.241   -31242348.57646 -24334517.22848  20681937.0434   20681941.8464
       208.000
  22655318.577   -19378543.27546 -14478455.53048  22655317.9004   22655324.5154
       169.000
  23311529.868   -24144322.03846 -17909137.95348  23311529.6544   23311535.2734
       162.000
  21282980.095   -33484622.07846 -26071026.70748  21282979.4904   21282985.0024
       197.000
  20195671.792   -32332510.09046 -24909085.65248  20195671.4874   20195676.9294
       214.000
 96  4 21  1 16 59.9980000  0  6 16 06 17 24 05 20
  20687801.364   -30076497.15146 -23410947.34348  20687800.7944   20687806.3734
       209.000
  20668153.255   -31314783.94446 -24390960.36748  20668153.0654   20668157.8184
       208.000
  22636989.165   -19474865.02546 -14553511.40048  22636988.4694   22636995.0784
       170.000
  23321875.854   -24089953.30246 -17866772.73148  23321875.6414   23321881.3034
       162.000
  21294539.861   -33423875.36746 -26023691.64948  21294539.2574   21294544.7344
       196.000
  20197546.345   -32322659.45546 -24901409.84548  20197546.0304   20197551.4664
       214.000
 96  4 21  1 17 29.9980000  0  6 16 06 17 24 05 20
  20687345.778   -30078891.36846 -23412812.96048  20687345.2094   20687350.8014
       208.000
  20654396.512   -31387076.35446 -24447292.10848  20654396.2994   20654401.0244
       208.000
  22618699.259   -19570979.35446 -14628405.64448  22618698.5414   22618705.0854
       171.000
  23332216.494   -24035612.97846 -17824429.65048  23332216.3224   23332221.9784
       162.000
  21306164.461   -33362787.85546 -25976091.03248  21306163.8494   21306169.3364
       196.000
  20199526.052   -32312255.95346 -24893303.24048  20199525.7194   20199531.1444
       214.000
 96  4 21  1 17 59.9980000  0  6 16 06 17 24 05 20
  20687001.397   -30080700.93846 -23414223.01048  20687000.8174   20687006.4284
       208.000
  20640671.598   -31459201.03046 -24503493.14448  20640671.3814   20640676.1124
       209.000
  22600454.009   -19666858.79246 -14703116.85148  22600453.2924   22600459.7814
       171.000
  23342554.503   -23981286.40546 -17782097.25848  23342554.3164   23342560.0304
       161.000
  21317855.185   -33301353.08846 -25928219.82848  21317854.5564   21317860.0544
       196.000
  20201612.569   -32301291.18346 -24884759.28048  20201612.2354   20201617.6964
       214.000
 96  4 21  1 18 29.9980000  0  6 16 06 17 24 05 20
  20686766.505   -30081935.31246 -23415184.85848  20686765.9404   20686771.5594
       208.000
  20626977.744   -31531162.51946 -24559567.02748  20626977.5414   20626982.2784
       209.000
  22582251.145   -19762515.25046 -14777654.31548  22582250.4544   22582256.8874
       171.000
  23352886.039   -23926993.65746 -17739791.24548  23352885.8544   23352891.5884
       161.000
  21329609.397   -33239584.45146 -25880088.46348  21329608.7694   21329614.2654
       195.000
  20203803.737   -32289776.54546 -24875786.85448  20203803.4184   20203808.8934
       214.000
 96  4 21  1 18 59.9980000  0  6 16 06 17 24 05 20
  20686640.391   -30082598.02746 -23415701.26148  20686639.8174   20686645.4224
       208.000
  20613316.117   -31602954.84846 -24615509.09548  20613315.9284   20613320.6524
       209.000
  22564088.706   -19857959.28646 -14852026.23948  22564088.0374   22564094.4774
       171.000
  23363212.831   -23872725.81346 -17697504.63547  23363212.6654   23363218.4494
       160.000
  21341426.016   -33177487.85946 -25831701.55648  21341425.4094   21341430.8844
       195.000
  20206098.797   -32277715.97346 -24866389.02348  20206098.4594   20206103.9604
       214.000
 96  4 21  1 19 29.9980000  0  6 16 06 17 24 05 20
  20686620.896   -30082700.49046 -23415781.10548  20686620.3214   20686625.9004
       208.000
  20599688.523   -31674568.50046 -24671311.93548  20599688.3224   20599693.0574
       209.000
  22545965.098   -19953199.06746 -14926239.02148  22545964.4634   22545970.8634
       171.000
  23373536.658   -23818473.84746 -17655230.41047  23373536.4574   23373542.3184
       160.000
  21353303.793   -33115069.75146 -25783064.11348  21353303.2064   21353308.6754
       195.000
  20208495.583   -32265120.72546 -24856574.56748  20208495.2504   20208500.7524
       213.000
 96  4 21  1 19 59.9980000  0  6 16 06 17 24 05 20
  20686704.791   -30082259.62646 -23415437.57848  20686704.2134   20686709.7964
       208.000
  20586093.332   -31746011.86646 -24726982.08048  20586093.1044   20586097.8494
       209.000
  22527877.400   -20048250.48446 -15000305.01848  22527876.7654   22527883.1654
       171.000
  23383858.764   -23764230.73846 -17612963.05947  23383858.5224   23383864.4104
       160.000
  21365240.929   -33052339.90246 -25734183.75748  21365240.3124   21365245.8114
       194.000
  20210991.958   -32252002.31246 -24846352.44448  20210991.6424   20210997.1504
       213.000
 96  4 21  1 20 29.9980000  0  6 16 06 17 24 05 20
  20686888.625   -30081293.34146 -23414684.62448  20686888.0564   20686893.6684
       207.000
  20572527.996   -31817298.12846 -24782529.80848  20572527.7954   20572532.5114
       210.000
  22509824.451   -20143119.16346 -15074228.61148  22509823.8034   22509830.2364
       171.000
  23394176.102   -23710012.78946 -17570715.33147  23394175.8394   23394181.7754
       159.000
  21377236.239   -32989304.22046 -25685065.08248  21377235.5984   21377241.1374
       194.000
  20213585.739   -32238372.00546 -24835731.44648  20213585.3964   20213590.9054
       213.000
 96  4 21  1 20 59.9980000  0  6 16 06 17 24 05 20
  20687171.862   -30079804.77746 -23413524.70748  20687171.2794   20687176.9154
       208.000
  20558994.317   -31888418.21246 -24837948.04748  20558994.0854   20558998.8324
       210.000
  22491809.670   -20237787.25546 -15147995.91748  22491808.9844   22491815.4404
       171.000
  23404490.930   -23655808.01646 -17528477.85947  23404490.6384   23404496.6064
       159.000
  21389293.154   -32925944.60446 -25635693.99548  21389292.5314   21389298.1234
       193.000
  20216281.939   -32224203.48246 -24824691.05848  20216281.6194   20216287.1014
       213.000
 96  4 21  1 21 29.9980000  0  6 16 06 17 24 05 20
  20687553.968   -30077796.81346 -23411960.06248  20687553.4154   20687559.0614
       208.000
  20545491.553   -31959375.67046 -24893239.56348  20545491.3424   20545496.0744
       210.000
  22473832.279   -20332259.16146 -15221610.35448  22473831.5604   22473837.9984
       171.000
  23414798.811   -23601639.93746 -17486268.98847  23414798.5124   23414804.5004
       159.000
  21401410.139   -32862269.35846 -25586076.96648  21401409.5034   21401415.1574
       193.000
  20219081.305   -32209492.78446 -24813228.19548  20219080.9624   20219086.4674
       213.000
 96  4 21  1 21 59.9980000  0  6 16 06 17 24 05 20
  20688035.191   -30075268.08746 -23409989.63048  20688034.6024   20688040.2374
       208.000
  20532019.935   -32030169.50546 -24948403.58748  20532019.7394   20532024.4544
       210.000
  22455893.274   -20426528.75846 -15295067.16148  22455892.5794   22455898.9914
       172.000
  23425096.580   -23547524.53446 -17444101.16247  23425096.3034   23425102.2764
       159.000
  21413586.668   -32798281.26646 -25536216.16148  21413586.0534   21413591.7524
       193.000
  20221986.186   -32194227.45946 -24801333.15848  20221985.8704   20221991.3764
       213.000
 96  4 21  1 22 29.9980000  0  6 16 06 17 24 05 20
  20688621.393   -30072187.67846 -23407589.31348  20688620.8064   20688626.4114
       207.000
  20518583.831   -32100776.66846 -25003422.14348  20518583.6104   20518588.3384
       210.000
  22437996.909   -20520574.76446 -15368349.72648  22437996.2084   22438002.6084
       172.000
  23435386.349   -23493451.65246 -17401966.47547  23435386.0304   23435392.1264
       159.000
  21425826.521   -32733960.46946 -25486096.09948  21425825.9104   21425831.6644
       192.000
  20225001.264   -32178383.13746 -24788986.95148  20225000.9434   20225006.4494
       213.000
 96  4 21  1 22 59.9980000  0  6 16 06 17 24 05 20
  20689312.947   -30068553.59846 -23404757.56548  20689312.3774   20689317.9704
       207.000
  20505182.690   -32171199.99546 -25058297.45748  20505182.4684   20505187.2014
       210.000
  22420137.295   -20614427.27846 -15441481.51448  22420136.5634   22420143.0184
       172.000
  23445667.095   -23439426.12646 -17359868.68147  23445666.7534   23445672.8414
       159.000
  21438128.625   -32669312.53846 -25435721.13148  21438128.0234   21438133.8064
       192.000
  20228126.131   -32161961.96446 -24776191.25748  20228125.8004   20228131.3024
       213.000
 96  4 21  1 23 29.9980000  0  6 16 06 17 24 05 20
  20690115.349   -30064336.82346 -23401471.76048  20690114.7624   20690120.3524
       207.000
  20491818.193   -32241430.67846 -25113022.65548  20491817.9804   20491822.7164
       210.000
  22402314.133   -20708088.16146 -15514463.99048  22402313.4214   22402319.8744
       172.000
  23455938.570   -23385449.24946 -17317808.80647  23455938.2124   23455944.3654
       159.000
  21450491.780   -32604343.96246 -25385096.30648  21450491.1544   21450496.9584
       192.000
  20231358.159   -32144977.84546 -24762956.89848  20231357.8224   20231363.2994
       213.000
 96  4 21  1 23 59.9980000  0  6 16 06 17 24 05 20
  20691028.245   -30059539.40846 -23397733.51748  20691027.6704   20691033.2374
       207.000
  20478488.875   -32311476.67246 -25167603.94048  20478488.6574   20478493.3874
       210.000
  22384526.133   -20801564.34346 -15587302.53848  22384525.4154   22384531.8904
       172.000
  23466199.917   -23331525.60646 -17275790.39647  23466199.5584   23466205.7174
       159.000
  21462914.946   -32539059.98746 -25334225.72548  21462914.3434   21462920.1294
       192.000
  20234693.316   -32127451.77546 -24749300.24048  20234692.9834   20234698.4274
       214.000
 96  4 21  1 24 29.9980000  0  6 16 06 17 24 05 20
  20692048.826   -30054176.21246 -23393554.40648  20692048.2434   20692053.7814
       207.000
  20465190.724   -32381358.80146 -25222057.53948  20465190.5234   20465195.2424
       210.000
  22366770.240   -20894872.06546 -15660009.81948  22366769.5474   22366776.0084
       173.000
  23476447.348   -23277674.87246 -17233828.80447  23476446.9844   23476453.2174
       158.000
  21475395.744   -32473473.13546 -25283119.13748  21475395.1344   21475400.9274
       191.000
  20238125.667   -32109414.73646 -24735245.42748  20238125.3174   20238130.7684
       213.000
 96  4 21  1 24 59.9980000  0  6 16 06 17 24 05 20
  20693177.716   -30048243.91846 -23388931.84148  20693177.1424   20693182.6754
       207.000
  20451926.521   -32451062.63346 -25276372.20548  20451926.3064   20451931.0454
       211.000
  22349052.066   -20987981.76946 -15732562.80348  22349051.3844   22349057.7984
       174.000
  23486683.520   -23223883.79146 -17191913.69247  23486683.1784   23486689.3514
       159.000
  21487932.459   -32407592.49446 -25231783.61548  21487931.8244   21487937.6244
       190.000
  20241656.205   -32090861.81346 -24720788.62648  20241655.8534   20241661.3084
       213.000
 96  4 21  1 25 29.9980000  0  6 16 06 17 24 05 20
  20694413.206   -30041751.33546 -23383872.68548  20694412.6264   20694418.1724
       207.000
  20438697.054   -32520583.93746 -25330544.64548  20438696.8454   20438701.5854
       211.000
  22331375.608   -21080872.24846 -15804944.95648  22331374.9014   22331381.2924
       174.000
  23496909.772   -23170144.79546 -17150039.17747  23496909.4274   23496915.5264
       159.000
  21500521.035   -32341439.25346 -25180235.68548  21500520.3804   21500526.2094
       190.000
  20245283.744   -32071798.78046 -24705934.33448  20245283.4024   20245288.9094
       213.000
 96  4 21  1 25 59.9980000  0  6 16 06 17 24 05 20
  20695753.370   -30034708.77646 -23378384.97748  20695752.7884   20695758.3534
       207.000
  20425503.261   -32589917.63746 -25384570.89948  20425503.0394   20425507.7624
       211.000
  22313743.418   -21173530.12846 -15877145.87048  22313742.7074   22313749.0794
       175.000
  23507128.583   -23116444.49946 -17108194.80147  23507128.2534   23507134.3314
       159.000
  21513159.831   -32275022.00546 -25128482.03548  21513159.2004   21513165.0194
       190.000
  20249009.110   -32052221.81046 -24690679.57348  20249008.7734   20249014.2834
       213.000
 96  4 21  1 26 29.9980000  0  6 16 06 17 24 05 20
  20697195.117   -30027132.22146 -23372481.16848  20697194.5314   20697200.1104
       207.000
  20412344.738   -32659066.20946 -25438452.89548  20412344.5184   20412349.2444
       211.000
  22296153.824   -21265963.82746 -15949172.08748  22296153.1354   22296159.5094
       175.000
  23517340.694   -23062779.64846 -17066378.06547  23517340.3644   23517346.4014
       158.000
  21525845.507   -32208358.41646 -25076536.42648  21525844.8884   21525850.7314
       189.000
  20252833.120   -32032126.53446 -24675020.93348  20252832.7764   20252838.3274
       213.000
 96  4 21  1 26 59.9980000  0  6 16 06 17 24 05 20
  20698741.168   -30019007.84046 -23366150.48348  20698740.5904   20698746.1534
       207.000
  20399224.333   -32728014.28446 -25492178.66348  20399224.1114   20399228.8754
       211.000
  22278607.512   -21358170.11346 -16021021.10648  22278606.8514   22278613.2344
       175.000
  23527550.936   -23009124.45146 -17024568.83747  23527550.5664   23527556.6554
       158.000
  21538579.043   -32141443.40046 -25024394.90548  21538578.4134   21538584.2484
       189.000
  20256759.937   -32011491.01046 -24658941.32648  20256759.5874   20256765.1434
       213.000
 96  4 21  1 27 29.9980000  0  6 16 06 17 24 05 20
  20700388.056   -30010353.51246 -23359406.85248  20700387.4704   20700393.0224
       207.000
  20386138.764   -32796779.22146 -25545761.72848  20386138.5604   20386143.3394
       211.000
  22261098.885   -21450178.51646 -16092715.91948  22261098.1934   22261104.5864
       176.000
  23537755.222   -22955500.34346 -16982783.83947  23537754.9914   23537761.0244
       157.000
  21551360.242   -32074277.98046 -24972058.26348  21551359.6244   21551365.4634
       188.000
  20260784.514   -31990341.75446 -24642461.40748  20260784.1614   20260789.7424
       213.000
 96  4 21  1 27 59.9980000  0  6 16 06 17 24 05 20
  20702135.950   -30001168.40446 -23352249.62248  20702135.3704   20702140.9004
       206.000
  20373086.697   -32865368.12646 -25599207.62248  20373086.4864   20373091.2814
       211.000
  22243627.230   -21541992.59846 -16164259.32048  22243626.5484   22243632.9114
       176.000
  23547951.554   -22901918.35346 -16941031.66147  23547951.3034   23547957.3524
       156.000
  21564193.645   -32006838.19646 -24919507.82748  21564193.0304   21564198.8974
       188.000
  20264904.641   -31968690.37646 -24625590.22548  20264904.2994   20264909.8944
       213.000
 96  4 21  1 28 29.9980000  0  6 16 06 17 24 05 20
  20703984.985   -29991451.68346 -23344678.15248  20703984.3904   20703989.9334
       206.000
  20360068.380   -32933779.88346 -25652515.47748  20360068.1684   20360072.9764
       211.000
  22226193.648   -21633606.79346 -16235646.96348  22226192.9364   22226199.2574
       176.000
  23558140.049   -22848377.47446 -16899311.50147  23558139.7894   23558145.8724
       156.000
  21577084.104   -31939098.52646 -24866723.72248  21577083.4564   21577089.3684
       188.000
  20269122.137   -31946527.38946 -24608320.38548  20269121.7894   20269127.4084
       212.000
 96  4 21  1 28 59.9980000  0  6 16 06 17 24 05 20
  20705935.288   -29981202.74146 -23336691.96448  20705934.7004   20705940.2664
       206.000
  20347084.103   -33002012.91046 -25705684.06348  20347083.8674   20347088.6614
       212.000
  22208799.750   -21725012.08946 -16306871.82348  22208799.0284   22208805.3394
       176.000
  23568319.123   -22794886.08546 -16857629.92047  23568318.8524   23568325.0114
       155.000
  21590033.052   -31871051.50146 -24813700.11148  21590032.4114   21590038.3264
       187.000
  20273434.856   -31923863.99846 -24590660.62448  20273434.5034   20273440.1294
       212.000
 96  4 21  1 29 29.9980000  0  6 16 06 17 24 05 20
  20707985.033   -29970431.21546 -23328298.56648  20707984.4414   20707989.9834
       206.000
  20334133.395   -33070069.23646 -25758714.96348  20334133.1724   20334137.9824
       212.000
  22191446.949   -21816201.53246 -16377928.48548  22191446.2414   22191452.5074
       177.000
  23578485.104   -22741463.53046 -16816001.97547  23578484.8144   23578491.0404
       155.000
  21603042.137   -31802688.44946 -24760430.25548  21603041.5154   21603047.4404
       187.000
  20277840.193   -31900713.80246 -24572621.53048  20277839.8534   20277845.4644
       212.000
 96  4 21  1 29 59.9980000  0  6 16 06 17 24 05 20
  20710136.103   -29959127.38246 -23319490.38948  20710135.5024   20710141.0394
       206.000
  20321218.029   -33137939.95746 -25811601.23648  20321217.7944   20321222.5794
       212.000
  22174135.677   -21907172.88046 -16448815.20848  22174134.9764   22174141.2054
       177.000
  23588639.689   -22688100.86746 -16774420.69347  23588639.4554   23588645.6194
       155.000
  21616110.660   -31734013.13146 -24706917.07348  21616110.0384   21616115.9804
       187.000
  20282343.163   -31877050.92946 -24554182.94948  20282342.8064   20282348.3834
       212.000
 96  4 21  1 30 29.9980000  0  7 16 06 17 23 24 05 20
  20712387.991   -29947293.69646 -23310269.34148  20712387.3934   20712392.9384
       207.000
  20308341.090   -33205608.80846 -25864330.20748  20308340.8684   20308345.5994
       212.000
  22156866.134   -21997924.61946 -16519530.81048  22156865.4414   22156871.6584
       178.000
  24133303.299    -4758862.93656  -3060841.05557  24133302.7234   24133312.2104
       140.000
  23598784.145   -22634791.55646 -16732880.98847  23598783.8614   23598790.0324
       155.000
  21629236.320   -31665037.77246 -24653170.09448  21629235.6824   21629241.6164
       187.000
  20286949.230   -31852846.04546 -24535322.02348  20286948.8784   20286954.4174
       212.000
 96  4 21  1 30 59.9980000  0  7 16 06 17 23 24 05 20
  20714737.391   -29934947.48046 -23300648.90948  20714736.7964   20714742.3784
       206.000
  20295500.653   -33273085.92946 -25916909.78048  20295500.4274   20295505.1404
       213.000
  22139633.599   -22088481.83946 -16590094.84148  22139632.9114   22139639.1494
       178.000
  24108346.302    -4890012.55446  -3163035.37947  24108345.6104   24108355.0384
       141.000
  23608913.119   -22581563.44646 -16691404.55747  23608912.8994   23608918.9784
       154.000
  21642411.476   -31595801.93146 -24599220.14448  21642410.8604   21642416.7774
       187.000
  20291653.635   -31828124.16846 -24516058.24248  20291653.2714   20291658.8544
       212.000
 96  4 21  1 31 29.9980000  0  7 16 06 17 23 24 05 20
  20717191.052   -29922053.40946 -23290601.58048  20717190.4384   20717196.0634
       206.000
  20282702.508   -33340340.83646 -25969316.19548  20282702.2774   20282706.9654
       213.000
  22122444.806   -22178809.42446 -16660479.93148  22122444.0814   22122450.3504
       178.000
  24083396.567    -5021123.71446  -3265199.74947  24083395.9024   24083405.1794
       142.000
  23619032.857   -22528384.36146 -16649966.31947  23619032.6634   23619038.6384
       154.000
  21655639.214   -31526289.94846 -24545055.01748  21655638.6134   21655644.5114
       186.000
  20296463.548   -31802847.70746 -24496362.32348  20296463.2014   20296468.7814
       212.000
 96  4 21  1 31 59.9980000  0  7 16 06 17 23 24 05 20
  20719743.001   -29908642.74946 -23280151.71848  20719742.3914   20719748.0194
       206.000
  20269943.018   -33407392.37446 -26021564.14648  20269942.7914   20269947.4704
       213.000
  22105297.275   -22268919.90046 -16730695.85448  22105296.5424   22105302.8684
       179.000
  24058450.707    -5152214.50146  -3367348.24547  24058450.0424   24058459.2464
       142.000
  23629141.625   -22475262.60946 -16608572.75947  23629141.3964   23629147.4124
       154.000
  21668911.185   -31456545.48146 -24490708.72948  21668910.5854   21668916.4774
       186.000
  20301375.617   -31777034.85246 -24476248.43348  20301375.2704   20301380.8644
       212.000
 96  4 21  1 32 29.9980000  0  7 16 06 17 23 24 05 20
  20722391.573   -29894724.41546 -23269306.26448  20722390.9774   20722396.5914
       206.000
  20257221.525   -33474244.33846 -26073656.58248  20257221.2884   20257225.9864
       213.000
  22088192.775   -22358804.22346 -16800735.55248  22088192.0534   22088198.4364
       179.000
  24033510.703    -5283274.52846  -3469472.79147  24033510.0384   24033519.1004
       142.000
  23639240.254   -22422193.71446 -16567220.40047  23639239.9244   23639246.0894
       153.000
  21682228.326   -31386563.68846 -24436177.51848  21682227.7364   21682233.6134
       185.000
  20306385.645   -31750706.95546 -24455733.21448  20306385.3024   20306390.8854
       211.000
 96  4 21  1 32 59.9980000  0  7 16 06 17 23 24 05 20
  20725138.647   -29880288.47546 -23258057.48548  20725138.0454   20725143.6324
       206.000
  20244537.219   -33540900.64046 -26125596.55448  20244536.9794   20244541.6874
       213.000
  22071130.649   -22448466.31446 -16870602.09348  22071129.9054   22071136.3234
       180.000
  24008579.253    -5414289.45446  -3571562.18947  24008578.6874   24008587.4634
       142.000
  23649330.893   -22369167.01946 -16525900.91647  23649330.6284   23649336.6944
       153.000
  21695590.966   -31316343.03246 -24381460.17748  21695590.3554   21695596.2344
       185.000
  20311488.881   -31723889.57146 -24434836.57648  20311488.5094   20311494.0894
       211.000
 96  4 21  1 33 29.9980000  0  7 16 06 17 23 24 05 20
  20727982.115   -29865346.01346 -23246414.01148  20727981.5274   20727987.0594
       206.000
  20231888.105   -33607372.05746 -26177392.46448  20231887.8954   20231892.5824
       213.000
  22054108.952   -22537915.79646 -16940302.96848  22054108.2184   22054114.6224
       180.000
  23983654.900    -5545266.79746  -3673622.30847  23983654.4124   23983663.2024
       143.000
  23659414.226   -22316178.61746 -16484611.28147  23659414.0674   23659420.1494
       153.000
  21708999.154   -31245882.61546 -24326556.01248  21708998.5434   21709004.4304
       184.000
  20316682.637   -31696596.09846 -24413568.95948  20316682.2844   20316687.8634
       211.000
 96  4 21  1 33 59.9980000  0  7 16 06 17 23 24 05 20
  20730925.342   -29849879.35046 -23234362.06948  20730924.7304   20730930.2674
       206.000
  20219280.970   -33673622.90546 -26229016.49848  20219280.7434   20219285.4304
       213.000
  22037127.505   -22627154.08446 -17009839.26748  22037126.7254   22037133.1004
       180.000
  23958743.520    -5676176.26546  -3775629.56147  23958743.1274   23958751.7534
       143.000
  23669494.931   -22263204.65546 -16443332.87947  23669494.7504   23669500.8484
       153.000
  21722457.875   -31175156.80946 -24271445.04948  21722457.2654   21722463.1534
       184.000
  20321968.825   -31668817.20346 -24391923.09048  20321968.4544   20321974.0434
       211.000
 96  4 21  1 34 29.9980000  0  7 16 06 17 23 24 05 20
  20733971.330   -29833872.25946 -23221889.01248  20733970.7314   20733976.2994
       205.000
  20206717.227   -33739645.81246 -26280462.91948  20206717.0214   20206721.6834
       213.000
  22020180.164   -22716212.87446 -17079235.70548  22020179.4074   22020185.7254
       180.000
  23933843.751    -5807025.03946  -3877589.51647  23933843.3454   23933851.9654
       143.000
  23679569.872   -22210260.57146 -16402077.75747  23679569.6954   23679575.7724
       152.000
  21735966.318   -31104169.75746 -24216130.51948  21735965.6944   21735971.6024
       184.000
  20327345.364   -31640563.54246 -24369907.27348  20327344.9824   20327350.5494
       211.000
 96  4 21  1 34 59.9980000  0  7 16 06 17 23 24 05 20
  20737119.139   -29817330.25746 -23208999.14648  20737118.5624   20737124.1364
       205.000
  20194194.901   -33805451.25346 -26331739.88348  20194194.6604   20194199.3294
       213.000
  22003264.668   -22805104.19646 -17148501.64148  22003263.9174   22003270.2234
       180.000
  23908952.073    -5937831.26046  -3979516.33447  23908951.6184   23908960.3594
       143.000
  23689633.695   -22157375.09446 -16360868.32847  23689633.5084   23689639.5234
       152.000
  21749519.401   -31032948.10346 -24160633.17748  21749518.8014   21749524.7204
       184.000
  20332809.734   -31611848.18946 -24347531.69648  20332809.3694   20332814.9114
       211.000
 96  4 21  1 35 29.9980000  0  8 16 06 17 26 23 24 05 20
  20740370.958   -29800241.76446 -23195683.44448  20740370.3804   20740375.9544
       205.000
  20181717.536   -33871019.95046 -26382832.37348  20181717.3084   20181721.9634
       213.000
  21986385.123   -22893806.46446 -17217620.26748  21986384.3934   21986390.7244
       180.000
  23915633.418    -5422314.60856  -4215267.36057  23915633.4324   23915641.0094
       143.000
  23884070.363    -6068585.12446  -4081402.33847  23884069.8634   23884078.5044
       143.000
  23699686.495   -22104547.18546 -16319703.73447  23699686.3294   23699692.3074
       152.000
  21763118.006   -30961487.10646 -24104949.35048  21763117.3974   21763123.3594
       184.000
  20338368.295   -31582637.72546 -24324770.32348  20338367.9314   20338373.4794
       210.000
 96  4 21  1 35 59.9980000  0  8 16 06 17 26 23 24 05 20
  20743725.089   -29782615.65246 -23181948.81548  20743724.4984   20743730.1064
       205.000
  20169285.025   -33936353.35846 -26433741.51948  20169284.7954   20169289.4694
       213.000
  21969541.249   -22982321.46846 -17286592.96448  21969540.5334   21969546.8474
       180.000
  23896095.769    -5524985.12046  -4295270.26547  23896095.7574   23896103.2784
       143.000
  23859198.507    -6199287.19146  -4183247.99947  23859198.0214   23859206.5564
       144.000
  23709726.173   -22051788.63046 -16278593.18347  23709725.8984   23709731.9614
       151.000
  21776761.498   -30889790.41146 -24049081.85448  21776760.8824   21776766.8804
       183.000
  20344022.981   -31552922.42246 -24301615.56548  20344022.5964   20344028.1714
       210.000
 96  4 21  1 36 29.9980000  0  8 16 06 17 26 23 24 05 20
  20747179.283   -29764463.58146 -23167804.35248  20747178.7074   20747184.3474
       205.000
  20156893.381   -34001471.93946 -26484483.26948  20156893.1434   20156897.8254
       214.000
  21952736.522   -23070630.85646 -17355405.44848  21952735.7774   21952742.0954
       181.000
  23876551.039    -5627693.35146  -4375302.56447  23876551.0774   23876558.4354
       143.000
  23834337.518    -6329932.04446  -4285049.06547  23834336.9424   23834345.5274
       144.000
  23719752.812   -21999098.33146 -16237535.82647  23719752.5284   23719758.6614
       151.000
  21790451.776   -30817847.68546 -23993022.64748  21790451.1644   21790457.1794
       183.000
  20349775.689   -31522691.83446 -24278059.29248  20349775.3244   20349780.8944
       210.000
 96  4 21  1 36 59.9980000  0  8 16 06 17 26 23 24 05 20
  20750727.928   -29745815.25646 -23153273.19648  20750727.3504   20750733.0094
       205.000
  20144538.408   -34066397.71946 -26535074.78248  20144538.1564   20144542.8794
       214.000
  21935972.258   -23158727.60646 -17424052.23448  21935971.5134   21935977.7974
       181.000
  23856999.276    -5730438.35646  -4455363.53247  23856999.3134   23857006.6554
       145.000
  23809486.792    -6460523.08346  -4386808.20947  23809486.1764   23809494.8414
       145.000
  23729766.373   -21946476.99546 -16196532.22147  23729766.0454   23729772.2034
       152.000
  21804188.344   -30745661.88946 -23936774.03548  21804187.7554   21804193.7754
       182.000
  20355626.222   -31491947.13546 -24254102.41248  20355625.8534   20355631.4394
       210.000
 96  4 21  1 37 29.9970000  0  8 16 06 17 26 23 24 05 20
  20754368.110   -29726686.05246 -23138367.32648  20754367.5204   20754373.1654
       205.000
  20132221.341   -34131124.38146 -26585511.14148  20132221.0844   20132225.8194
       214.000
  21919246.509   -23246621.87946 -17492541.24448  21919245.7524   21919252.0304
       181.000
  23837444.440    -5833199.15046  -4535436.78747  23837444.4114   23837451.8944
       144.000
  23784646.357    -6591059.91746  -4488525.09647  23784645.7224   23784654.3904
       145.000
  23739766.734   -21893924.90746 -16155582.55147  23739766.4324   23739772.4214
       151.000
  21817970.466   -30673236.69646 -23880338.87448  21817969.8634   21817975.8954
       182.000
  20361575.065   -31460685.80846 -24229742.96148  20361574.6954   20361580.2684
       210.000
 96  4 21  1 37 59.9970000  0  8 16 06 17 26 23 24 05 20
  20758098.229   -29707084.28446 -23123093.22748  20758097.6284   20758103.2654
       205.000
  20119941.839   -34195653.41046 -26635793.49748  20119941.5844   20119946.3274
       214.000
  21902557.761   -23334321.61646 -17560878.66848  21902556.9954   21902563.2994
       181.000
  23817888.769    -5935964.61446  -4615513.67947  23817888.8194   23817896.2104
       145.000
  23759814.399    -6721551.92146  -4590207.06347  23759813.9334   23759822.4504
       145.000
  23749755.118   -21841435.65946 -16114681.84647  23749754.7674   23749760.8364
       151.000
  21831799.388   -30600565.52746 -23823712.04248  21831798.7704   21831804.7934
       181.000
  20367616.554   -31428937.62846 -24205004.14748  20367616.1934   20367621.7454
       210.000
 96  4 21  1 38 29.9970000  0  8 16 06 17 26 23 24 05 20
  20761922.484   -29686987.77046 -23107433.61348  20761921.8704   20761927.5354
       205.000
  20107703.476   -34259966.47746 -26685907.57448  20107703.2374   20107707.9744
       214.000
  21885910.242   -23421804.79046 -17629047.33948  21885909.4604   21885915.7704
       181.000
  23798335.158    -6038719.15546  -4695582.05447  23798335.1264   23798342.5814
       145.000
  23734995.207    -6851977.23046  -4691837.03147  23734994.7654   23735003.3524
       146.000
  23759733.389   -21788999.42146 -16073822.43247  23759733.1094   23759739.0534
       150.000
  21845673.234   -30527658.08846 -23766901.10648  21845672.6164   21845678.6764
       180.000
  20373749.815   -31396707.31746 -24179889.64448  20373749.4574   20373755.0014
       210.000
 96  4 21  1 38 59.9970000  0  8 16 06 17 26 23 24 05 20
  20765843.618   -29666382.01046 -23091377.18148  20765843.0164   20765848.6904
       205.000
  20095511.100   -34324037.84546 -26735833.31548  20095510.8574   20095515.6054
       214.000
  21869304.990   -23509065.77746 -17697042.87848  21869304.2064   21869310.5414
       181.000
  23778783.740    -6141462.04246  -4775641.35747  23778783.8504   23778791.0044
       145.000
  23710188.956    -6982334.61846  -4793414.08447  23710188.4294   23710197.0564
       144.000
  23769701.433   -21736617.16446 -16033005.11247  23769701.2394   23769707.1104
       149.000
  21859588.403   -30454533.68846 -23709921.11948  21859587.8024   21859593.8554
       180.000
  20379974.539   -31363996.51846 -24154400.73648  20379974.1674   20379979.7264
       210.000
 96  4 21  1 39 29.9970000  0  8 16 06 17 26 23 24 05 20
  20769860.145   -29645275.13946 -23074930.27348  20769859.5354   20769865.2014
       204.000
  20083367.288   -34387854.18646 -26785560.33048  20083367.0444   20083371.7794
       214.000
  21852739.478   -23596118.29146 -17764875.96248  21852738.7044   21852744.9594
       181.000
  23759232.583    -6244203.83246  -4855699.79347  23759232.7364   23759239.9504
       145.000
  23685393.804    -7112633.36846  -4894945.41247  23685393.1844   23685401.8684
       145.000
  23779657.081   -21684299.93446 -15992238.47047  23779656.8064   23779662.7984
       150.000
  21873542.554   -30381204.29146 -23652781.37048  21873541.9424   21873547.9624
       179.000
  20386286.525   -31330826.61346 -24128554.08148  20386286.1584   20386291.7324
       210.000
 96  4 21  1 39 59.9970000  0  8 16 06 17 26 23 24 05 20
  20773973.183   -29623661.06046 -23058088.13748  20773972.5884   20773978.2264
       204.000
  20071272.620   -34451412.13946 -26835086.00748  20071272.3674   20071277.0894
       214.000
  21836213.936   -23682960.44446 -17832545.13048  21836213.2044   21836219.3864
       181.000
  23739680.324    -6346951.43546  -4935762.76747  23739680.4214   23739687.6494
       145.000
  23660612.448    -7242859.26546  -4996419.96147  23660611.8994   23660620.4634
       146.000
  23789602.267   -21632037.57846 -15951514.55747  23789601.8814   23789607.9364
       149.000
  21887536.880   -30307663.87646 -23595477.21048  21887536.2744   21887542.2644
       179.000
  20392685.679   -31297198.97346 -24102350.75348  20392685.2884   20392690.9034
       209.000
 96  4 21  1 40 29.9970000  0  8 16 06 17 26 23 24 05 20
  20778178.435   -29601562.14446 -23040868.21348  20778177.8274   20778183.4584
       204.000
  20059223.575   -34514730.30046 -26884424.83548  20059223.3194   20059228.0204
       214.000
  21819724.632   -23769612.26646 -17900065.98348  21819723.8694   21819730.0174
       181.000
  23720121.282    -6449734.29346  -5015853.21347  23720121.3814   23720128.6314
       145.000
  23635841.999    -7373028.20846  -5097850.12847  23635841.4874   23635850.0164
       147.000
  23799532.749   -21579852.23546 -15910850.67247  23799532.4474   23799538.5204
       148.000
  21901566.260   -30233939.53846 -23538029.73648  21901565.6314   21901571.6024
       179.000
  20399171.575   -31263115.35646 -24075792.11548  20399171.1884   20399176.8184
       209.000
 96  4 21  1 40 59.9970000  0  8 16 06 17 26 23 24 05 20
  20782475.402   -29578981.38646 -23023272.82648  20782474.8224   20782480.4374
       204.000
  20047221.702   -34577800.42546 -26933570.38348  20047221.4574   20047226.1534
       214.000
  21803270.798   -23856077.58246 -17967441.50348  21803270.0604   21803276.1494
       182.000
  23700556.741    -6552546.58346  -5095966.61647  23700556.7964   23700563.9164
       147.000
  23611083.253    -7503135.58846  -5199232.32347  23611082.7584   23611091.3064
       147.000
  23809450.526   -21527733.89446 -15870238.97247  23809450.2514   23809456.3094
       148.000
  21915633.986   -30160013.28646 -23480424.92748  21915633.3634   21915639.3424
       179.000
  20405745.095   -31228571.14946 -24048874.57848  20405744.7274   20405750.3774
       209.000
 96  4 21  1 41 29.9970000  0  8 16 06 17 26 23 24 05 20
  20786863.121   -29555923.98446 -23005306.02348  20786862.5254   20786868.1334
       204.000
  20035264.811   -34640634.27346 -26982531.82448  20035264.5754   20035269.2614
       215.000
  21786852.613   -23942355.60346 -18034671.08048  21786851.8664   21786857.9364
       182.000
  23680987.520    -6655383.20446  -5176098.96547  23680987.5334   23680994.5434
       148.000
  23586338.580    -7633169.28946  -5300557.08747  23586338.0384   23586346.5144
       148.000
  23819355.793   -21475681.01046 -15829678.28847  23819355.5444   23819361.6684
       148.000
  21929741.111   -30085879.78446 -23422658.61848  21929740.5264   21929746.4974
       178.000
  20412404.166   -31193577.35646 -24021606.70948  20412403.7974   20412409.5144
       209.000
 96  4 21  1 41 59.9970000  0  8 16 06 17 26 23 24 05 20
  20791341.987   -29532387.35746 -22986965.80348  20791341.3844   20791347.0074
       203.000
  20023348.581   -34703254.55346 -27031326.84648  20023348.3444   20023353.0234
       215.000
  21770473.575   -24028428.11746 -18101740.53648  21770472.8154   21770478.8404
       182.000
  23661413.664    -6758244.37346  -5256250.44147  23661413.6544   23661420.6814
       148.000
  23561610.210    -7763117.53946  -5401815.28147  23561609.5784   23561618.0094
       149.000
  23829247.941   -21423697.14246 -15789171.41247  23829247.6744   23829253.9434
       147.000
  21943886.085   -30011547.60046 -23364737.49848  21943885.4844   21943891.4624
       178.000
  20419149.921   -31158128.38546 -23993984.16148  20419149.5374   20419155.2914
       209.000
 96  4 21  1 42 29.9970000  0  8 16 06 17 26 23 24 05 20
  20795911.142   -29508376.21246 -22968255.82848  20795910.5414   20795916.1994
       203.000
  20011470.241   -34765675.76946 -27079966.75148  20011469.9784   20011474.6704
       215.000
  21754134.724   -24114289.18346 -18168645.22048  21754133.9764   21754139.9914
       183.000
  23641835.249    -6861129.22446  -5336420.37747  23641835.2894   23641842.3584
       145.000
  23536897.477    -7892983.64646  -5503009.46847  23536896.7464   23536905.1484
       150.000
  23839124.483   -21371795.74946 -15748728.76347  23839124.1484   23839130.4444
       147.000
  21958065.707   -29937033.39846 -23306674.54048  21958065.1274   21958071.1034
       178.000
  20425980.691   -31122232.62846 -23966013.46048  20425980.3084   20425986.0954
       209.000
 96  4 21  1 42 59.9970000  0  8 16 06 17 26 23 24 05 20
  20800574.906   -29483867.91646 -22949158.46648  20800574.3124   20800579.9914
       203.000
  19999632.042   -34827885.75146 -27128442.06248  19999631.8034   19999636.5064
       215.000
  21737839.521   -24199920.74246 -18235371.08248  21737838.7884   21737844.7764
       183.000
  23622257.178    -6964012.09446  -5416588.75747  23622257.1424   23622264.3834
       145.000
  23512204.438    -8022745.96146  -5604122.78047  23512203.7404   23512211.9564
       151.000
  23848988.965   -21319957.69646 -15708335.48547  23848988.5894   23848994.7734
       146.000
  21972283.012   -29862321.28746 -23248457.38048  21972282.4354   21972288.4074
       177.000
  20432898.989   -31085876.71846 -23937684.20448  20432898.6184   20432904.4234
       209.000
 96  4 21  1 43 29.9970000  0  8 16 06 17 26 23 24 05 20
  20805332.786   -29458865.10946 -22929675.77348  20805332.1884   20805337.8784
       203.000
  19987832.894   -34889890.50946 -27176757.45848  19987832.6614   19987837.3644
       215.000
  21721588.054   -24285322.35446 -18301917.74948  21721587.3184   21721593.2984
       183.000
  23602679.071    -7066895.23646  -5496757.37147  23602679.0164   23602686.3624
       143.000
  23487530.183    -8152409.07746  -5705158.79647  23487529.5724   23487537.7034
       153.000
  23858839.522   -21268193.02946 -15667999.38847  23858839.0504   23858845.3264
       147.000
  21986535.978   -29787421.79446 -23190094.19948  21986535.4084   21986541.3774
       177.000
  20439905.422   -31049057.88846 -23908994.23348  20439905.0484   20439910.8774
       209.000
 96  4 21  1 43 59.9970000  0  8 16 06 17 26 23 24 05 20
  20810187.801   -29433352.09046 -22909795.51248  20810187.1874   20810192.8404
       203.000
  19976076.933   -34951668.62446 -27224896.24648  19976076.6804   19976081.4074
       215.000
  21705379.967   -24370496.13346 -18368286.89548  21705379.2194   21705385.2204
       183.000
  23583103.160    -7169767.28846  -5576917.33547  23583103.0784   23583110.3864
       144.000
  23462874.251    -8281976.23746  -5806120.04947  23462873.6604   23462881.8074
       154.000
  23868678.333   -21216489.72546 -15627711.08047  23868677.8884   23868684.1284
       146.000
  22000827.944   -29712317.26146 -23131571.24248  22000827.3144   22000833.3594
       176.000
  20447003.631   -31011756.47846 -23879928.22548  20447003.2544   20447009.0674
       209.000
 96  4 21  1 44 29.9970000  0  8 16 06 17 26 23 24 05 20
  20815137.751   -29407340.00846 -22889526.37248  20815137.1404   20815142.7784
       203.000
  19964364.653   -35013217.03346 -27272856.04348  19964364.3984   19964369.1344
       215.000
  21689207.883   -24455480.84346 -18434508.72548  21689207.1444   21689213.1484
       183.000
  23563528.038    -7272634.59446  -5657073.59647  23563527.8894   23563535.2724
       143.000
  23438231.461    -8411474.40146  -5907027.53747  23438230.9214   23438239.0814
       154.000
  23878503.998   -21164855.20946 -15587476.40547  23878503.6264   23878509.9594
       145.000
  22015155.413   -29637026.06746 -23072902.84148  22015154.7964   22015160.8574
       176.000
  20454189.453   -30973994.94546 -23850503.67648  20454189.0604   20454194.8744
       208.000
 96  4 21  1 44 59.9970000  0  8 16 06 17 26 23 24 05 20
  20820182.506   -29380829.84946 -22868869.11948  20820181.8884   20820187.5134
       202.000
  19952700.188   -35074513.95946 -27320619.88148  19952699.9334   19952704.6734
       215.000
  21673070.936   -24540280.79546 -18500586.58148  21673070.1964   21673076.2204
       184.000
  23543955.029    -7375491.17946  -5737221.51447  23543954.9094   23543962.1184
       143.000
  23413601.384    -8540905.76046  -6007882.97047  23413600.8414   23413608.9304
       155.000
  23888320.100   -21113271.51246 -15547281.31847  23888319.6704   23888325.9794
       146.000
  22029521.408   -29561532.35646 -23014076.64248  22029520.7904   22029526.9354
       176.000
  20461462.854   -30935772.99246 -23820720.36348  20461462.4844   20461468.2894
       208.000
 96  4 21  1 45 29.9970000  0  8 16 06 17 26 23 24 05 20
  20825316.974   -29353848.05446 -22847844.35648  20825316.3444   20825321.9614
       202.000
  19941082.439   -35135565.58646 -27368192.57848  19941082.1764   19941086.9034
       215.000
  21656967.147   -24624906.58746 -18566528.73048  21656966.4044   21656972.4234
       184.000
  23524383.520    -7478340.04446  -5817363.40247  23524383.5094   23524390.3734
       143.000
  23388981.533    -8670283.34146  -6108696.50447  23388981.0164   23388988.9574
       155.000
  23898124.124   -21061750.89246 -15507135.36447  23898123.8234   23898129.7944
       144.000
  22043924.774   -29485842.38646 -22955097.50648  22043924.1494   22043930.3164
       175.000
  20468821.361   -30897103.72246 -23790588.49148  20468820.9904   20468826.8054
       208.000
 96  4 21  1 45 59.9970000  0  8 16 06 17 26 23 24 05 20
  20830542.627   -29326387.14346 -22826446.26248  20830541.9864   20830547.6244
       202.000
  19929516.295   -35196346.25346 -27415554.13348  19929516.0534   19929520.7754
       215.000
  21640900.176   -24709339.21046 -18632320.36148  21640899.4074   21640905.4514
       184.000
  23504818.621    -7581153.82146  -5897477.96347  23504818.5934   23504825.5004
       144.000
  23364376.525    -8799582.80746  -6209449.18547  23364375.9794   23364383.9114
       155.000
  23907919.863   -21010273.89146 -15467023.45447  23907919.5014   23907925.6874
       146.000
  22058366.604   -29409950.25646 -22895960.84748  22058365.9814   22058372.1854
       175.000
  20476266.568   -30857979.13046 -23760101.81748  20476266.1864   20476272.0014
       208.000
 96  4 21  1 46 29.9970000  0  8 16 06 17 26 23 24 05 20
  20835854.547   -29298472.58146 -22804694.66648  20835853.9284   20835859.5834
       202.000
  19917998.498   -35256872.75746 -27462717.64148  19917998.2474   19918002.9694
       215.000
  21624868.963   -24793583.62546 -18697965.34848  21624868.2454   21624874.2364
       184.000
  23485258.678    -7683941.91946  -5977572.51847  23485258.6334   23485265.5474
       145.000
  23339785.478    -8928809.02046  -6310144.78047  23339784.9334   23339792.8074
       154.000
  23917704.671   -20958854.47246 -15426956.31147  23917704.2584   23917710.3674
       144.000
  22072842.452   -29333879.25146 -22836684.80648  22072841.8394   22072848.0774
       175.000
  20483793.932   -30818422.70546 -23729278.65548  20483793.5354   20483799.3404
       208.000
 96  4 21  1 46 59.9970000  0  8 16 06 17 26 23 24 05 20
  20841251.880   -29270109.50846 -22782593.58348  20841251.2324   20841256.9594
       202.000
  19906531.551   -35317131.99346 -27509672.88948  19906531.2954   19906536.0274
       215.000
  21608878.499   -24877613.85946 -18763443.43848  21608877.7754   21608883.7414
       184.000
  23465706.652    -7786687.97646  -6057634.29247  23465706.5704   23465713.5454
       146.000
  23315213.960    -9057932.46346  -6410760.30847  23315213.3444   23315221.1934
       154.000
  23927477.131   -20907499.67446 -15386939.62147  23927476.8134   23927483.0734
       144.000
  22087354.344   -29257618.72746 -22777261.09348  22087353.7234   22087360.0214
       175.000
  20491406.854   -30778416.67446 -23698105.15448  20491406.4654   20491412.2764
       208.000
 96  4 21  1 47 29.9970000  0  8 16 06 17 26 23 24 05 20
  20846733.825   -29241301.60646 -22760145.88048  20846733.2074   20846738.9654
       202.000
  19895113.781   -35377132.64746 -27556426.64548  19895113.5294   19895118.2884
       215.000
  21592928.733   -24961430.23646 -18828754.88448  21592928.0074   21592933.9744
       185.000
  23446162.307    -7889393.98746  -6137664.88947  23446162.1604   23446169.2164
       146.000
  23290662.927    -9186948.65646  -6511292.27047  23290662.2014   23290670.0394
       153.000
  23937231.952   -20856237.77546 -15346995.27047  23937231.5904   23937237.7024
       144.000
  22101896.625   -29181198.62246 -22717713.02348  22101895.9564   22101902.3224
       175.000
  20499104.017   -30737967.92346 -23666586.67748  20499103.6264   20499109.4474
       207.000
 96  4 21  1 47 59.9970000  0  8 16 06 17 26 23 24 05 20
  20852306.213   -29212018.44646 -22737327.84748  20852305.5794   20852311.3804
       202.000
  19883747.930   -35436860.52746 -27602967.85448  19883747.6784   19883752.4254
       215.000
  21577021.825   -25045021.34746 -18893890.79548  21577021.0994   21577027.0784
       185.000
  23426628.060    -7992046.30046  -6217653.63047  23426628.0034   23426635.0704
       146.000
  23266136.122    -9315837.20946  -6611724.76847  23266135.4104   23266143.1724
       153.000
  23946972.737   -20805049.89946 -15307108.61747  23946972.4664   23946978.5274
       145.000
  22116469.970   -29104615.54946 -22658037.96648  22116469.2974   22116475.6634
       175.000
  20506886.176   -30697072.34246 -23634720.02248  20506885.7984   20506891.6404
       207.000
 96  4 21  1 48 29.9970000  0  8 16 06 17 26 23 24 05 20
  20857967.557   -29182268.13046 -22714145.79348  20857966.9304   20857972.7184
       202.000
  19872431.830   -35496327.12146 -27649305.45648  19872431.5724   19872436.3254
       215.000
  21561156.215   -25128395.71546 -18958857.82848  21561155.4834   21561161.4714
       185.000
  23407103.821    -8094646.71946  -6297601.93547  23407103.7394   23407110.8334
       147.000
  23241632.803    -9444602.01146  -6712060.85547  23241632.1534   23241639.8624
       153.000
  23956699.185   -20753937.08446 -15267280.42147  23956698.9124   23956704.8084
       146.000
  22131074.121   -29027870.37246 -22598236.58148  22131073.4664   22131079.8584
       174.000
  20514754.012   -30655726.68246 -23602502.65248  20514753.6324   20514759.5084
       206.000
 96  4 21  1 48 59.9970000  0  8 16 06 17 26 23 24 05 20
  20863721.903   -29152028.86846 -22690582.74148  20863721.2764   20863727.0604
       202.000
  19861167.327   -35555522.43046 -27695431.66948  19861167.0704   19861171.7864
       215.000
  21545334.474   -25211539.53046 -19023645.19048  21545333.7364   21545339.7404
       186.000
  23387593.472    -8197174.02946  -6377493.26747  23387593.4364   23387600.4324
       147.000
  23217156.202    -9573226.70246  -6812287.75647  23217155.6084   23217163.2334
       152.000
  23966414.649   -20702881.73646 -15227497.07947  23966414.3674   23966420.3634
       146.000
  22145710.295   -28950957.03246 -22538304.16548  22145709.6834   22145716.0644
       174.000
  20522712.391   -30613905.13046 -23569914.45548  20522712.0124   20522717.9064
       206.000
 96  4 21  1 49 29.9970000  0  8 16 06 17 26 23 24 05 20
  20869570.711   -29121293.16846 -22666632.85848  20869570.0774   20869575.8384
       201.000
  19849951.693   -35614461.12046 -27741357.92248  19849951.4254   19849956.1524
       215.000
  21529554.297   -25294464.81846 -19088262.26948  21529553.5704   21529559.5524
       186.000
  23368096.946    -8299628.75546  -6457328.04447  23368096.9044   23368103.9264
       147.000
  23192703.368    -9701726.52946  -6912417.38047  23192702.7664   23192710.4304
       153.000
  23976122.362   -20651867.78646 -15187745.90847  23976121.9974   23976127.9824
       145.000
  22160378.347   -28873876.01646 -22478241.10948  22160377.7604   22160384.1774
       174.000
  20530757.669   -30571627.05246 -23536970.53048  20530757.3024   20530763.1844
       206.000
 96  4 21  1 49 59.9970000  0  8 16 06 17 26 23 24 05 20
  20875510.499   -29090079.29546 -22642310.36548  20875509.8554   20875515.6164
       201.000
  19838781.818   -35673159.23346 -27787096.70648  19838781.5674   19838786.3034
       215.000
  21513811.705   -25377192.84246 -19152725.62648  21513810.9594   21513816.9204
       186.000
  23348614.706    -8402007.85446  -6537103.88747  23348614.6604   23348621.7134
       147.000
  23168270.953    -9830119.47746  -7012463.71947  23168270.3314   23168277.9754
       153.000
  23985821.477   -20600898.80446 -15148029.85447  23985821.1214   23985827.2324
       147.000
  22175078.159   -28796628.27946 -22418048.12648  22175077.5634   22175083.9864
       174.000
  20538885.502   -30528914.95846 -23503688.40148  20538885.1264   20538891.0364
       205.000
 96  4 21  1 50 29.9970000  0  8 16 06 17 26 23 24 05 20
  20881535.413   -29058418.20646 -22617639.39448  20881534.7744   20881540.5024
       201.000
  19827656.517   -35731623.10846 -27832652.97148  19827656.2394   19827661.0444
       215.000
  21498103.113   -25459741.99946 -19217049.62048  21498102.3534   21498108.2784
       186.000
  23329144.620    -8504323.58646  -6616830.36747  23329144.3994   23329151.4954
       147.000
  23143857.689    -9958411.67446  -7112431.55547  23143857.0114   23143864.6494
       153.000
  23995507.720   -20549997.41046 -15108366.38547  23995507.4064   23995513.2544
       145.000
  22189808.852   -28719218.39446 -22357728.80248  22189808.2154   22189814.6604
       173.000
  20547093.651   -30485780.90646 -23470077.47948  20547093.2834   20547099.1854
       205.000
 96  4 21  1 50 59.9970000  0  8 16 06 17 26 23 24 05 20
  20887649.834   -29026286.84746 -22592601.97748  20887649.2014   20887654.9114
       200.000
  19816580.430   -35789828.11846 -27878007.52348  19816580.1474   19816584.9754
       215.000
  21482432.855   -25542089.56346 -19281216.53148  21482432.1124   21482438.0094
       187.000
  23309688.921    -8606563.40446  -6696497.67547  23309688.8284   23309695.9474
       147.000
  23119467.952   -10086580.36146  -7212303.15647  23119467.1774   23119474.9424
       154.000
  24005181.106   -20499163.52046 -15068755.57347  24005180.6894   24005186.6614
       146.000
  22204573.060   -28641631.91346 -22297271.87048  22204572.4554   22204578.9354
       173.000
  20555380.805   -30442231.89146 -23436143.21348  20555380.4164   20555386.3064
       205.000
 96  4 21  1 51 29.9970000  0  8 16 06 17 26 23 24 05 20
  20893851.913   -28993694.77046 -22567205.56248  20893851.2984   20893856.9844
       200.000
  19805555.876   -35847762.34846 -27923151.08248  19805555.5994   19805560.4654
       215.000
  21466801.366   -25624233.63446 -19345224.87448  21466800.6334   21466806.5194
       187.000
  23290247.204    -8708729.64746  -6776107.65747  23290247.0884   23290254.2794
       149.000
  23095102.533   -10214620.63446  -7312074.69847  23095101.8344   23095109.5854
       155.000
  24014840.006   -20448405.36846 -15029203.77947  24014839.5224   24014845.7164
       145.000
  22219371.097   -28563868.15446 -22236676.79448  22219370.4904   22219376.9454
       172.000
  20563742.501   -30398290.93646 -23401903.53248  20563742.1374   20563748.0004
       205.000
 96  4 21  1 51 59.9970000  0  8 16 06 17 26 23 24 05 20
  20900138.344   -28960659.33846 -22541463.67948  20900137.7264   20900143.4294
       200.000
  19794584.202   -35905418.82946 -27968078.21448  19794583.9154   19794588.7564
       215.000
  21451208.183   -25706176.37046 -19409076.34448  21451207.4084   21451213.2824
       187.000
  23270817.619    -8810832.30746  -6855668.09047  23270817.5694   23270824.8264
       150.000
  23070763.221   -10342523.98246  -7411739.54147  23070762.5244   23070770.3004
       156.000
  24024481.794   -20397737.11546 -14989722.02047  24024481.4384   24024487.5764
       145.000
  22234200.106   -28485941.67846 -22175954.93148  22234199.4744   22234205.9174
       171.000
  20572181.072   -30353946.12246 -23367349.16648  20572180.6854   20572186.5484
       205.000
 96  4 21  1 52 29.9970000  0  8 16 06 17 26 23 24 05 20
  20906508.681   -28927183.03046 -22515378.24648  20906508.0464   20906513.7894
       200.000
  19783667.899   -35962784.46246 -28012778.70748  19783667.6124   19783672.4444
       215.000
  21435656.269   -25787902.28446 -19472758.85048  21435655.4754   21435661.3524
       188.000
  23251397.973    -8912883.00846  -6935188.02747  23251397.9324   23251405.1424
       152.000
  23046452.875   -10470275.07646  -7511285.74747  23046452.1734   23046459.9074
       157.000
  24034107.937   -20347150.96546 -14950304.24747  24034107.6634   24034113.7334
       144.000
  22249058.503   -28407860.58946 -22115112.58048  22249057.9084   22249064.2294
       170.000
  20580699.383   -30309182.41546 -23332468.38448  20580698.9984   20580704.8364
       204.000
 96  4 21  1 52 59.9970000  0  8 16 06 17 26 23 24 05 20
  20912966.460   -28893247.15446 -22488934.71548  20912965.8154   20912971.5754
       200.000
  19772809.615   -36019845.27046 -28057241.67748  19772809.3294   19772814.1374
       215.000
  21420149.489   -25869390.65546 -19536256.25848  21420148.7204   21420154.6134
       188.000
  23231991.068    -9014866.95446  -7014655.96147  23231991.0384   23231998.2494
       154.000
  23022172.404   -10597869.55546  -7610709.91947  23022171.6824   23022179.3924
       158.000
  24043721.092   -20296633.41146 -14910939.90647  24043720.8594   24043726.9284
       143.000
  22263945.998   -28329626.43546 -22054150.97048  22263945.3724   22263951.7824
       169.000
  20589298.524   -30263993.69146 -23297256.41648  20589298.1254   20589303.9644
       204.000
 96  4 21  1 53 29.9970000  0  8 16 06 17 26 23 24 05 20
  20919503.544   -28858894.70546 -22462166.58548  20919502.8994   20919508.6414
       199.000
  19762005.194   -36076622.90746 -28101483.99548  19762004.8894   19762009.6984
       216.000
  21404681.308   -25950676.20546 -19599595.62048  21404680.5284   21404686.4364
       188.000
  23212595.842    -9116789.34346  -7094075.93947  23212595.7254   23212602.8824
       155.000
  22997916.788   -10725333.49946  -7710032.36247  22997916.0354   22997923.7824
       159.000
  24053318.754   -20246197.09546 -14871638.88947  24053318.6434   24053324.6654
       144.000
  22278858.370   -28251261.44046 -21993087.40248  22278857.7884   22278864.1414
       168.000
  20597975.950   -30218393.51746 -23261723.84148  20597975.5584   20597981.4324
       204.000
 96  4 21  1 53 59.9970000  0  7 16 06 17 26 23 05 20
  20926118.561   -28824132.77846 -22435079.37248  20926117.9004   20926123.6344
       199.000
  19751255.189   -36133114.37846 -28145503.32448  19751254.9014   19751259.7254
       216.000
  21389251.748   -26031758.96446 -19662776.96848  21389250.9804   21389256.9324
       188.000
  23193214.205    -9218640.41046  -7173440.32947  23193214.0624   23193221.2404
       156.000
  22973686.954   -10852661.65146  -7809249.00347  22973686.1884   22973693.8594
       160.000
  22293797.543   -28172756.00346 -21931914.39148  22293796.9354   22293803.2844
       168.000
  20606733.184   -30172373.95746 -23225864.47048  20606732.7864   20606738.6954
       204.000
 96  4 21  1 54 29.9970000  0  7 16 06 17 26 23 05 20
  20932814.000   -28788948.14246 -22407662.78148  20932813.3454   20932819.0574
       200.000
  19740560.657   -36189314.40746 -28189295.55848  19740560.3744   19740565.2014
       216.000
  21373863.138   -26112626.58046 -19725790.67048  21373862.3534   21373868.3274
       189.000
  23173849.524    -9320402.21346  -7252735.16647  23173849.4674   23173856.5844
       157.000
  22949484.025   -10979848.44346  -7908355.48548  22949483.2744   22949490.9274
       161.000
  22308766.586   -28094093.55446 -21870619.04048  22308765.9424   22308772.3334
       168.000
  20615567.206   -30125950.78446 -23189690.60048  20615566.8104   20615572.7644
       204.000
 96  4 21  1 54 59.9970000  0  7 16 06 17 26 23 05 20
  20939588.596   -28753347.63946 -22379922.13548  20939587.9454   20939593.6314
       200.000
  19729917.379   -36245245.29246 -28232878.06348  19729917.1134   19729921.9284
       216.000
  21358512.874   -26193292.50146 -19788647.20248  21358512.1104   21358518.1444
       189.000
  23154501.277    -9422077.91446  -7331962.91947  23154501.1724   23154508.2944
       158.000
  22925304.498   -11106912.22446  -8007366.10548  22925303.7724   22925311.3864
       162.000
  22323764.252   -28015280.65546 -21809206.44748  22323763.6204   22323770.0264
       167.000
  20624474.230   -30079144.36346 -23153218.08748  20624473.8444   20624479.8194
       204.000
 96  4 21  1 55 29.9970000  0  7 16 06 17 26 23 05 20
  20946442.427   -28717330.77146 -22351857.05248  20946441.7504   20946447.4254
       200.000
  19719326.819   -36300899.09746 -28276244.66648  19719326.5444   19719331.3644
       216.000
  21343203.332   -26273744.64046 -19851337.15548  21343202.5684   21343208.6234
       189.000
  23135170.969    -9523659.17846  -7411117.08947  23135170.8644   23135177.9754
       159.000
  22901150.756   -11233840.46446  -8106271.11948  22901150.0244   22901157.6314
       162.000
  22338792.444   -27936307.18746 -21747668.73948  22338791.7964   22338798.2264
       167.000
  20633457.060   -30031939.35446 -23116434.98948  20633456.6654   20633462.6674
       203.000
 96  4 21  1 55 59.9970000  0  7 16 06 17 26 23 05 20
  20953378.774   -28680880.04146 -22323453.89748  20953378.1084   20953383.7894
       199.000
  19708786.798   -36356287.36246 -28319404.35248  19708786.5314   19708791.3434
       216.000
  21327933.366   -26353988.88046 -19913865.11348  21327932.5804   21327938.6504
       190.000
  23115852.303    -9625179.26046  -7490223.57347  23115852.2194   23115859.3044
       158.000
  22877023.599   -11360629.04046  -8205067.29948  22877022.9264   22877030.4404
       163.000
  22353846.434   -27857198.46846 -21686025.63948  22353845.7444   22353852.2204
       167.000
  20642514.414   -29984342.71246 -23079346.72548  20642514.0154   20642520.0334
       203.000
 96  4 21  1 56 29.9970000  0  7 16 06 17 26 23 05 20
  20960401.288   -28643976.48146 -22294697.89148  20960400.6074   20960406.2764
       199.000
  19698297.733   -36411407.79246 -28362355.34348  19698297.4624   19698302.2784
       216.000
  21312703.043   -26434024.65446 -19976230.62448  21312702.2634   21312708.3254
       190.000
  23096545.537    -9726636.72046  -7569281.26147  23096545.5144   23096552.4784
       159.000
  22852924.502   -11487270.19246  -8303748.60348  22852923.8404   22852931.3574
       164.000
  22368922.342   -27777974.35846 -21624292.63348  22368921.5974   22368928.1604
       167.000
  20651646.314   -29936354.36146 -23041953.23648  20651645.9234   20651651.9184
       203.000
 96  4 21  1 56 59.9970000  0  7 16 06 17 26 23 05 20
  20967509.716   -28606621.29246 -22265589.96448  20967509.0564   20967514.7514
       199.000
  19687861.146   -36466252.33046 -28405091.34548  19687860.8774   19687865.6734
       216.000
  21297511.187   -26513858.26646 -20038438.60848  21297510.3904   21297516.4604
       190.000
  23077250.580    -9828032.48946  -7648290.88647  23077250.5424   23077257.4784
       159.000
  22828855.036   -11613755.57646  -8402308.54148  22828854.4134   22828861.9034
       164.000
  22384016.727   -27698652.62446 -21562483.55448  22384015.9984   22384022.6184
       165.000
  20660855.008   -29887962.41246 -23004245.24948  20660854.6184   20660860.6114
       203.000
 96  4 21  1 57 29.9970000  0  7 16 06 17 26 23 05 20
  20974702.473   -28568822.92046 -22236136.69948  20974701.8264   20974707.5484
       198.000
  19677478.237   -36520814.82946 -28447607.58248  19677477.9664   19677482.7514
       216.000
  21282353.570   -26593511.81346 -20100506.26748  21282352.7744   21282358.8854
       190.000
  23057968.439    -9929360.45346  -7727247.68047  23057968.3914   23057975.3474
       159.000
  22804815.308   -11740084.80546  -8500746.79448  22804814.6764   22804822.0844
       165.000
  22399126.380   -27619250.89446 -21500612.13448  22399125.6884   22399132.3284
       164.000
  20670139.740   -29839170.85946 -22966225.88348  20670139.3504   20670145.3284
       203.000
 96  4 21  1 57 59.9970000  0  7 16 06 17 26 23 05 20
  20981983.678   -28530559.82246 -22206321.31548  20981983.0154   20981988.7744
       198.000
  19667153.236   -36575072.93946 -28489886.63748  19667152.9834   19667157.7364
       216.000
  21267232.317   -26672974.31946 -20162425.07748  21267231.5524   21267237.6594
       190.000
  23038705.928   -10030584.96946  -7806123.86147  23038705.9374   23038712.8464
       158.000
  22780809.058   -11866238.00846  -8599047.89548  22780808.4144   22780815.8174
       165.000
  22414253.314   -27539758.41846 -21438670.00248  22414252.6664   22414259.2574
       164.000
  20679501.922   -29789972.45746 -22927889.49548  20679501.5294   20679507.5144
       203.000
 96  4 21  1 58 29.9970000  0  7 16 06 17 26 23 05 20
  20989348.030   -28491859.90746 -22176165.55248  20989347.3474   20989353.1184
       197.000
  19656885.717   -36629029.30846 -28531930.56548  19656885.4414   19656890.2064
       216.000
  21252147.320   -26752246.37346 -20224195.48248  21252146.5554   21252152.6724
       191.000
  23019465.732   -10131692.71746  -7884909.04447  23019465.7354   23019472.6054
       158.000
  22756830.170   -11992247.67346  -8697237.14848  22756829.4754   22756836.8734
       165.000
  22429397.462   -27460175.45146 -21376657.36548  22429396.8014   22429403.4344
       163.000
  20688937.906   -29740386.10646 -22889250.80648  20688937.5174   20688943.4944
       203.000
 96  4 21  1 58 59.9970000  0  7 16 06 17 26 23 05 20
  20996796.728   -28452716.61546 -22145664.30448  20996796.0904   20996801.8624
       197.000
  19646677.497   -36682673.78046 -28573731.45648  19646677.2184   19646681.9914
       216.000
  21237102.749   -26831306.18746 -20285800.49848  21237101.9804   21237108.0404
       191.000
  23000252.584   -10232657.99446  -7963583.23047  23000252.5664   23000259.3894
       157.000
  22732879.408   -12118109.56946  -8795311.26148  22732878.6564   22732886.0414
       165.000
  22444565.028   -27380469.52746 -21314548.90948  22444564.3514   22444571.0474
       163.000
  20698452.079   -29690389.12446 -22850292.14448  20698451.6704   20698457.6744
       202.000
 96  4 21  1 59 29.9970000  0  7 16 06 17 26 23 05 20
  21004328.278   -28413138.25546 -22114824.03948  21004327.6264   21004333.4324
       197.000
  19636526.725   -36736016.39246 -28615297.13248  19636526.4564   19636531.2544
       216.000
  21222098.152   -26910155.95146 -20347241.84848  21222097.3384   21222103.3694
       191.000
  22981067.855   -10333474.13346  -8042141.18347  22981067.8484   22981074.5804
       156.000
  22708954.688   -12243833.97546  -8893278.22848  22708954.0184   22708961.2784
       165.000
  22459755.159   -27300645.00146 -21252348.04148  22459754.5054   22459761.2044
       162.000
  20708040.795   -29640000.26946 -22811028.13048  20708040.3724   20708046.3754
       202.000
 96  4 21  1 59 59.9970000  0  7 16 06 17 26 23 05 20
  21011940.499   -28373135.62446 -22083653.17248  21011939.8874   21011945.6794
       196.000
  19626430.813   -36789070.54646 -28656638.03348  19626430.5654   19626435.3654
       216.000
  21207135.438   -26988785.62846 -20408511.69348  21207134.6364   21207140.6294
       191.000
  22961906.057   -10434169.47546  -8120605.01447  22961906.1144   22961912.6964
       155.000
  22685055.317   -12369425.52446  -8991141.68048  22685054.6944   22685061.8834
       165.000
  22474965.216   -27220715.80746 -21190065.61548  22474964.5564   22474971.3044
       162.000
  20717699.584   -29589243.29146 -22771477.26448  20717699.1754   20717705.1424
       202.000
 96  4 21  2  0 29.9970000  0  7 16 06 17 26 23 05 20
  21019629.650   -28332729.03546 -22052167.54248  21019629.0144   21019634.8034
       196.000
  19616386.869   -36841851.84046 -28697766.31748  19616386.6184   19616391.4194
       216.000
  21192210.855   -27067214.85046 -20469625.34548  21192210.0184   21192216.0094
       191.000
  22942764.161   -10534760.34746  -8198987.44847  22942764.1554   22942770.8194
       154.000
  22661181.655   -12494882.23046  -9088900.06648  22661180.9914   22661188.1564
       164.000
  22490195.094   -27140682.42746 -21127701.99748  22490194.4424   22490201.1514
       163.000
  20727428.173   -29538119.16146 -22731640.30748  20727427.7504   20727433.7124
       202.000
 96  4 21  2  0 59.9970000  0  7 16 06 17 26 23 05 20
  21027394.504   -28291924.39946 -22020371.73648  21027393.8584   21027399.6934
       195.000
  19606396.785   -36894350.33147 -28738674.23448  19606396.5144   19606401.3144
       217.000
  21177324.120   -27145445.11546 -20530583.97548  21177323.3044   21177329.2614
       191.000
  22923643.700   -10635238.56546  -8277282.07547  22923643.7324   22923650.3614
       154.000
  22637338.849   -12620176.57646  -9186531.93648  22637338.1774   22637345.3204
       164.000
  22505444.465   -27060546.73746 -21065258.66348  22505443.8354   22505450.5344
       163.000
  20737228.134   -29486620.28646 -22691511.34148  20737227.7164   20737233.6794
       202.000
 96  4 21  2  1 29.9970000  0  7 16 06 17 26 23 05 20
  21035234.743   -28250723.32646 -21988267.01948  21035234.1014   21035239.9744
       194.000
  19596463.174   -36946551.76446 -28779350.68248  19596462.8914   19596467.6984
       216.000
  21162474.762   -27223478.57046 -20591389.23448  21162473.9544   21162479.9284
       192.000
  22904544.084   -10735607.78746  -8355491.78947  22904544.0854   22904550.6314
       154.000
  22613530.925   -12745287.72846  -9284021.05748  22613530.2494   22613537.3414
       164.000
  22520711.659   -26980317.18846 -21002742.20148  22520711.0164   22520717.7384
       163.000
  20747096.792   -29434760.38946 -22651101.05648  20747096.3544   20747102.3424
       201.000
 96  4 21  2  1 59.9970000  0  7 16 06 17 26 23 05 20
  21043150.608   -28209125.07246 -21955852.81648  21043149.9704   21043155.8574
       194.000
  19586589.364   -36998438.98647 -28819782.28648  19586589.0864   19586593.8944
       217.000
  21147662.475   -27301317.47046 -20652042.89148  21147661.6794   21147667.6424
       192.000
  22885465.185   -10835867.22646  -8433615.94447  22885465.2324   22885471.7404
       153.000
  22589759.522   -12870206.96146  -9381360.63448  22589758.7664   22589765.8564
       164.000
  22535999.965   -26899976.95146 -20940139.48348  22535999.2824   22536006.0234
       163.000
  20757036.393   -29382527.44246 -22610400.08448  20757035.9634   20757041.9684
       201.000
 96  4 21  2  2 29.9970000  0  7 16 06 17 26 23 05 20
  21051139.787   -28167141.76846 -21923138.56948  21051139.1304   21051145.0084
       194.000
  19576777.061   -37050003.07947 -28859962.10248  19576776.7694   19576781.5804
       217.000
  21132884.052   -27378978.22246 -20712557.73648  21132883.2804   21132889.2424
       192.000
  22866411.934   -10935992.67246  -8511635.68947  22866411.9924   22866418.5264
       152.000
  22566023.947   -12994937.65946  -9478553.29248  22566023.2074   22566030.2634
       164.000
  22551309.581   -26819524.73446 -20877449.49948  22551308.8834   22551315.6614
       163.000
  20767047.531   -29329918.44246 -22569406.08548  20767047.1424   20767053.1494
       201.000
 96  4 21  2  2 59.9970000  0  7 16 06 17 26 23 05 20
  21059205.123   -28124758.39246 -21890112.57048  21059204.4364   21059210.2994
       194.000
  19567030.290   -37101222.76947 -28899873.55148  19567030.0174   19567034.8024
       217.000
  21118143.929   -27456437.92046 -20772915.91148  21118143.1544   21118149.1134
       192.000
  22847386.304   -11035972.75146  -8589542.15947  22847386.2834   22847392.8424
       153.000
  22542323.584   -13119483.56946  -9575601.96848  22542322.8744   22542329.8744
       164.000
  22566638.116   -26738972.88946 -20814681.89648  22566637.4824   22566644.2374
       163.000
  20777128.929   -29276940.46246 -22528124.57248  20777128.5434   20777134.5214
       201.000
 96  4 21  2  3 29.9970000  0  7 16 06 17 26 23 05 20
  21067347.035   -28081972.67646 -21856773.06548  21067346.3594   21067352.1744
       194.000
  19557348.611   -37152100.31447 -28939518.39248  19557348.3294   19557353.1344
       217.000
  21103440.737   -27533703.26646 -20833122.65748  21103439.9934   21103445.9674
       192.000
  22828385.869   -11135820.44446  -8667345.46647  22828385.8574   22828392.3464
       153.000
  22518657.283   -13243850.57446  -9672511.24648  22518656.5794   22518663.5494
       165.000
  22581983.402   -26658332.95746 -20751845.64648  22581982.8284   22581989.5504
       163.000
  20787277.743   -29223608.34046 -22486567.10348  20787277.3474   20787283.3184
       201.000
 96  4 21  2  3 59.9970000  0  7 16 06 17 26 23 05 20
  21075561.232   -28038807.07146 -21823137.53748  21075560.5534   21075566.3334
       194.000
  19547729.498   -37202649.22347 -28978907.15548  19547729.2294   19547734.0254
       217.000
  21088773.548   -27610779.58446 -20893182.09548  21088772.8074   21088778.7784
       192.000
  22809412.014   -11235528.54846  -8745040.02447  22809412.0334   22809418.4254
       153.000
  22495020.762   -13368061.14046  -9769298.60848  22495020.0714   22495026.9954
       165.000
  22597343.019   -26577618.02246 -20688950.95748  22597342.4154   22597349.1444
       163.000
  20797493.701   -29169923.47346 -22444734.76248  20797493.2754   20797499.2424
       201.000
 96  4 21  2  4 29.9970000  0  7 16 06 17 26 23 05 20
  21083848.763   -27995255.96346 -21789201.62048  21083848.0964   21083853.8624
       194.000
  19538175.650   -37252855.12047 -29018028.63648  19538175.3834   19538180.1764
       217.000
  21074148.054   -27687637.11646 -20953071.05448  21074147.3314   21074153.2674
       193.000
  22790469.282   -11335072.71946  -8822606.81747  22790469.2674   22790475.7734
       154.000
  22471417.148   -13492098.70746  -9865951.18448  22471416.4624   22471423.3634
       166.000
  22612715.865   -26496833.42246 -20626001.99048  22612715.2034   22612722.0274
       162.000
  20807779.809   -29115869.69746 -22402614.96848  20807779.3944   20807785.3674
       200.000
 96  4 21  2  4 59.9970000  0  7 16 06 17 26 23 05 20
  21092212.383   -27951305.15246 -21754954.24348  21092211.7064   21092217.4224
       194.000
  19528686.604   -37302720.30847 -29056884.62648  19528686.3224   19528691.1104
       217.000
  21059568.050   -27764255.42446 -21012773.59448  21059567.3354   21059573.2184
       193.000
  22771559.152   -11434445.41646  -8900040.02747  22771559.1084   22771565.6914
       154.000
  22447849.416   -13615947.70746  -9962456.81348  22447848.7084   22447855.6334
       166.000
  22628104.705   -26415964.86046 -20562987.58948  22628104.0294   22628110.8784
       162.000
  20818138.477   -29061434.66846 -22360198.08848  20818138.0834   20818144.0564
       200.000
 96  4 21  2  5 29.9970000  0  7 16 06 17 26 23 05 20
  21100646.797   -27906981.95346 -21720416.69748  21100646.1374   21100651.8464
       195.000
  19519254.983   -37352283.81847 -29095505.54348  19519254.7014   19519259.4844
       217.000
  21045027.437   -27840667.15146 -21072315.17748  21045026.6914   21045032.5204
       194.000
  22752679.826   -11533656.65146  -8977347.40947  22752679.8084   22752686.4054
       154.000
  22424315.848   -13739616.94446 -10058822.37748  22424315.1304   22424322.0634
       167.000
  22643507.912   -26335020.49946 -20499914.11848  22643507.2364   22643514.1454
       161.000
  20828567.729   -29006628.67946 -22317492.15048  20828567.3234   20828573.3364
       199.000
 96  4 21  2  5 59.9970000  0  7 16 06 17 26 23 05 20
  21109146.805   -27862314.27846 -21685610.73148  21109146.1424   21109151.8214
       194.000
  19509876.032   -37401570.60147 -29133910.83248  19509875.7344   19509880.5264
       217.000
  21030521.783   -27916895.06346 -21131713.53048  21030521.0334   21030526.8034
       194.000
  22733828.885   -11632718.91146  -9054538.70647  22733828.8684   22733835.4414
       156.000
  22400811.328   -13863133.82846 -10155069.22748  22400810.5524   22400817.5194
       168.000
  22658923.198   -26254012.89846 -20436791.37847  22658922.4944   22658929.4864
       160.000
  20839064.974   -28951465.34646 -22274507.76448  20839064.5664   20839070.5904
       199.000
 96  4 21  2  6 29.9970000  0  7 16 06 17 26 23 05 20
  21117718.649   -27817268.74046 -21650510.31348  21117718.0084   21117723.6864
       194.000
  19500553.217   -37450562.07247 -29172086.00848  19500552.9384   19500557.7274
       217.000
  21016052.533   -27992931.81146 -21190962.91848  21016051.7504   21016057.4924
       194.000
  22715007.629   -11731625.28146  -9131608.52647  22715007.4984   22715014.1144
       156.000
  22377343.100   -13986459.91946 -10251167.40648  22377342.3884   22377349.3144
       168.000
  22674355.004   -26172918.32746 -20373600.85947  22674354.3114   22674361.3734
       159.000
  20849631.651   -28895937.30246 -22231239.18548  20849631.2304   20849637.2464
       199.000
 96  4 21  2  6 59.9970000  0  7 16 06 17 26 23 05 20
  21126369.645   -27771807.40746 -21615085.90948  21126368.9894   21126374.6714
       194.000
  19491290.027   -37499240.58847 -29210017.32148  19491289.7314   19491294.5264
       217.000
  21001623.794   -28068755.40946 -21250046.23048  21001623.0294   21001628.7274
       194.000
  22696222.103   -11830343.60246  -9208531.83147  22696222.0434   22696228.5984
       156.000
  22353917.402   -14109562.32846 -10347091.28748  22353916.7054   22353923.5964
       169.000
  22689809.961   -26091702.15946 -20310315.59047  22689809.2424   22689816.3374
       157.000
  20860270.536   -28840029.60446 -22187674.77148  20860270.1254   20860276.1264
       199.000
 96  4 21  2  7 29.9970000  0  7 16 06 17 26 23 05 20
  21135094.538   -27725957.84346 -21579358.98648  21135093.8794   21135099.5514
       194.000
  19482085.795   -37547609.11747 -29247707.08448  19482085.4834   19482090.2964
       217.000
  20987232.065   -28144384.10246 -21308977.64648  20987231.2824   20987237.0444
       194.000
  22677468.473   -11928894.51146  -9285324.66847  22677468.4154   22677474.9524
       157.000
  22330530.358   -14232461.83946 -10442857.07648  22330529.6364   22330536.4964
       169.000
  22705282.420   -26010393.95946 -20246958.61047  22705281.6914   22705288.8894
       156.000
  20870975.065   -28783776.88646 -22143841.51448  20870974.6454   20870980.6754
       198.000
 96  4 21  2  7 59.9970000  0  7 16 06 17 26 23 05 20
  21143892.432   -27679724.57646 -21543333.07848  21143891.7684   21143897.4574
       193.000
  19472944.070   -37595648.97747 -29285140.74848  19472943.7924   19472948.6134
       217.000
  20972878.573   -28219811.85046 -21367752.48348  20972877.7894   20972883.5964
       194.000
  22658743.658   -12027293.45846  -9361999.11147  22658743.5684   22658750.2234
       158.000
  22307182.172   -14355157.15646 -10538463.74248  22307181.4604   22307188.3244
       169.000
  22720769.189   -25929010.65346 -20183543.09847  22720768.4594   22720775.5604
       155.000
  20881740.717   -28727202.95046 -22099757.95148  20881740.2924   20881746.3794
       198.000
 96  4 21  2  8 29.9960000  0  7 16 06 17 26 23 05 20
  21152760.394   -27633123.02146 -21507020.19048  21152759.7094   21152765.4174
       193.000
  19463860.997   -37643380.77447 -29322334.35648  19463860.7104   19463865.5304
       217.000
  20958560.305   -28295054.33746 -21426382.97548  20958559.5514   20958565.3654
       194.000
  22640045.059   -12125554.97446  -9438566.46447  22640044.9734   22640051.5344
       159.000
  22283874.202   -14477641.17846 -10633905.77648  22283873.4964   22283880.3174
       170.000
  22736262.590   -25847592.27346 -20120100.25447  22736261.9034   22736269.0694
       154.000
  20892560.644   -28670343.63146 -22055452.01148  20892560.2424   20892566.3754
       198.000
 96  4 21  2  8 59.9960000  0  7 16 06 17 26 23 05 20
  21161698.895   -27586150.74946 -21470418.43148  21161698.2114   21161703.9334
       192.000
  19454840.284   -37690784.93647 -29359272.66648  19454840.0144   19454844.8274
       217.000
  20944279.319   -28370101.37746 -21484861.14848  20944278.5784   20944284.3984
       195.000
  22621375.085   -12223666.20446  -9515016.70847  22621374.9984   22621381.5504
       160.000
  22260605.133   -14599920.57246 -10729188.34848  22260604.4244   22260611.2974
       170.000
  22751763.856   -25766132.77046 -20056625.36147  22751763.1224   22751770.2924
       153.000
  20903437.641   -28613184.71246 -22010912.62048  20903437.2414   20903443.3924
       197.000
 96  4 21  2  9 29.9960000  0  7 16 06 17 26 23 05 20
  21170707.292   -27538811.23446 -21433530.51448  21170706.6154   21170712.3654
       192.000
  19445885.897   -37737840.69347 -29395939.49548  19445885.6134   19445890.4404
       217.000
  20930036.396   -28444948.34746 -21543183.43548  20930035.6384   20930041.4824
       195.000
  22602733.488   -12321627.53646  -9591350.14847  22602733.4334   22602739.9934
       160.000
  22237377.222   -14721983.39046 -10824302.15148  22237376.5354   22237383.4064
       171.000
  22767273.237   -25684630.55246 -19993117.18847  22767272.5054   22767279.6234
       153.000
  20914372.234   -28555723.17046 -21966137.42548  20914371.8224   20914378.0134
       197.000
 96  4 21  2  9 59.9960000  0  7 16 06 17 26 23 05 20
  21179786.068   -27491102.03646 -21396354.52648  21179785.3904   21179791.1694
       191.000
  19436994.822   -37784563.72047 -29432347.04748  19436994.5294   19436999.3454
       217.000
  20915829.407   -28519606.64346 -21601358.71248  20915828.6234   20915834.4684
       195.000
  22584121.278   -12419434.92046  -9667563.62848  22584121.2394   22584127.7514
       161.000
  22214190.575   -14843829.36646 -10919246.99548  22214189.9064   22214196.7974
       171.000
  22782789.059   -25603094.44646 -19929582.60447  22782788.3444   22782795.4494
       153.000
  20925366.415   -28497948.47746 -21921118.21048  20925365.9904   20925372.1634
       197.000
 96  4 21  2 10 29.9960000  0  7 16 06 17 26 23 05 20
  21188933.058   -27443034.34346 -21358899.19448  21188932.4074   21188938.1614
       191.000
  19428165.298   -37830963.20047 -29468502.48848  19428165.0114   19428169.8564
       217.000
  20901655.125   -28594092.69046 -21659399.77548  20901654.3664   20901660.1984
       195.000
  22565541.193   -12517073.82146  -9743645.82748  22565541.1914   22565547.6124
       162.000
  22191041.024   -14965480.67846 -11014040.14348  22191040.3724   22191047.2364
       172.000
  22798311.532   -25521523.75946 -19866021.07947  22798310.8584   22798317.9084
       153.000
  20936419.970   -28439861.86146 -21875855.94548  20936419.5184   20936425.7254
       197.000
 96  4 21  2 10 59.9960000  0  7 16 06 17 26 23 05 20
  21198151.233   -27394592.70546 -21321152.47948  21198150.5754   21198156.3284
       191.000
  19419403.130   -37877008.33947 -29504381.82048  19419402.8474   19419407.6954
       217.000
  20887518.864   -28668379.14246 -21717285.32048  20887518.0924   20887523.9434
       195.000
  22546998.378   -12614516.76846  -9819575.32148  22546998.3484   22547004.7704
       162.000
  22167928.331   -15086938.39546 -11108682.42648  22167927.6634   22167934.5664
       172.000
  22813846.213   -25439888.53846 -19802409.27147  22813845.5234   22813852.6374
       153.000
  20947537.805   -28381437.41046 -21830330.42648  20947537.3624   20947543.5624
       197.000
 96  4 21  2 11 29.9960000  0  7 16 06 17 26 23 05 20
  21207442.787   -27345765.28846 -21283105.15548  21207442.1134   21207447.8874
       190.000
  19410709.751   -37922692.22747 -29539979.65748  19410709.4754   19410714.2774
       217.000
  20873424.010   -28742448.09146 -21775001.35048  20873423.2204   20873429.0744
       196.000
  22528497.235   -12711740.52446  -9895334.01948  22528497.2554   22528503.6894
       163.000
  22144855.848   -15208184.74646 -11203160.01648  22144855.1664   22144862.0734
       174.000
  22829394.821   -25358180.35846 -19738740.60447  22829394.1494   22829401.2824
       154.000
  20958723.820   -28322654.54346 -21784525.62548  20958723.3784   20958729.5654
       196.000
 96  4 21  2 11 59.9960000  0  7 16 06 17 26 23 05 20
  21216798.521   -27296600.81846 -21244795.18748  21216797.8274   21216803.6114
       190.000
  19402076.085   -37968062.57547 -29575333.17648  19402075.7834   19402080.5834
       217.000
  20859360.530   -28816352.19246 -21832588.92748  20859359.7464   20859365.5734
       196.000
  22510029.548   -12808788.90546  -9970956.05148  22510029.5514   22510035.9924
       163.000
  22121813.461   -15329273.14846 -11297514.53148  22121812.7884   22121819.6704
       174.000
  22844948.135   -25276447.37646 -19675052.60847  22844947.5024   22844954.6414
       155.000
  20969968.309   -28263564.51046 -21738481.46648  20969967.8634   20969974.0804
       196.000
 96  4 21  2 12 29.9960000  0  7 16 06 17 26 23 05 20
  21226224.468   -27247066.91146 -21206197.35248  21226223.8114   21226229.6014
       189.000
  19393511.201   -38013071.27247 -29610404.89048  19393510.9124   19393515.7304
       217.000
  20845335.629   -28890053.58346 -21890018.56948  20845334.8454   20845340.6364
       196.000
  22491603.465   -12905618.80746 -10046407.84448  22491603.4574   22491609.9004
       164.000
  22098809.861   -15450157.58346 -11391710.10148  22098809.2134   22098816.0744
       175.000
  22860513.045   -25194653.40246 -19611317.09547  22860512.3974   22860519.5414
       155.000
  20981276.208   -28204141.11246 -21692177.54448  20981275.7754   20981281.9944
       196.000
 96  4 21  2 12 59.9960000  0  7 16 06 17 26 23 05 20
  21235721.613   -27197159.01446 -21167308.08948  21235720.9664   21235726.7754
       189.000
  19385014.783   -38057720.41547 -29645196.43148  19385014.4944   19385019.3004
       217.000
  20831353.857   -28963528.32946 -21947271.60748  20831353.0744   20831358.8644
       196.000
  22473219.259   -13002228.62146 -10121688.15848  22473219.2344   22473225.5844
       165.000
  22075850.318   -15570810.38046 -11485725.18248  22075849.6874   22075856.5434
       176.000
  22876090.546   -25112793.59746 -19547530.26647  22876089.8524   22876096.9654
       156.000
  20992648.612   -28144378.54046 -21645609.33048  20992648.1824   20992654.4614
       195.000
 96  4 21  2 13 29.9960000  0  7 16 06 17 26 23 05 20
  21245282.475   -27146916.35446 -21128157.97048  21245281.8474   21245287.6594
       189.000
  19376581.069   -38102040.02347 -29679731.19448  19376580.7724   19376585.5684
       218.000
  20817409.257   -29036807.45846 -22004372.20948  20817408.4684   20817414.3104
       196.000
  22454871.013   -13098648.85946 -10196820.72748  22454871.0164   22454877.3854
       165.000
  22052932.903   -15691241.98046 -11579567.90748  22052932.2634   22052939.1094
       176.000
  22891673.083   -25030907.14646 -19483722.67047  22891672.4254   22891679.5254
       157.000
  21004077.082   -28084321.43846 -21598811.61348  21004076.6704   21004082.9264
       195.000
 96  4 21  2 13 59.9960000  0  7 16 06 17 26 23 05 20
  21254910.953   -27096318.41646 -21088731.01448  21254910.3024   21254916.1254
       188.000
  19368214.868   -38146004.89947 -29713989.54048  19368214.5744   19368219.3494
       218.000
  20803505.951   -29109869.60846 -22061303.74748  20803505.1634   20803511.0294
       196.000
  22436562.747   -13194859.32446 -10271789.84548  22436562.7314   22436569.0634
       165.000
  22030063.152   -15811422.89046 -11673215.28748  22030062.4964   22030069.3394
       175.000
  22907264.162   -24948975.85046 -19419880.12647  22907263.4514   22907270.5454
       156.000
  21015562.301   -28023966.31346 -21551781.66548  21015561.8694   21015568.1504
       194.000
 96  4 21  2 14 29.9960000  0  7 16 06 17 26 23 05 20
  21264609.221   -27045353.59246 -21049018.17748  21264608.5884   21264614.4014
       188.000
  19359918.571   -38189602.23147 -29747961.48448  19359918.2674   19359923.0654
       218.000
  20789649.215   -29182687.10846 -22118044.63048  20789648.4064   20789654.2784
       197.000
  22418299.663   -13290831.74946 -10346573.47648  22418299.6454   22418305.9884
       164.000
  22007247.121   -15931321.48546 -11766642.67748  22007246.4414   22007253.2984
       175.000
  22922863.850   -24866999.23446 -19356002.27847  22922863.0924   22922870.1984
       156.000
  21027106.772   -27963299.67746 -21504508.98348  21027106.3474   21027112.6354
       194.000
 96  4 21  2 14 59.9960000  0  7 16 06 17 26 23 05 20
  21274370.844   -26994055.99246 -21009046.02848  21274370.2104   21274376.0134
       188.000
  19351688.035   -38232854.02747 -29781664.18548  19351687.7254   19351692.5354
       218.000
  20775834.158   -29255285.56246 -22174614.83048  20775833.3504   20775839.2004
       197.000
  22400077.311   -13386590.51046 -10421190.62948  22400077.2794   22400083.6564
       164.000
  21984478.632   -16050970.48446 -11859875.58548  21984477.9434   21984484.7774
       176.000
  22938467.532   -24785001.55846 -19292108.01447  22938466.8504   22938473.8944
       156.000
  21038703.194   -27902360.24046 -21457023.73348  21038702.7894   21038709.0944
       194.000
 96  4 21  2 15 29.9960000  0  7 16 06 17 26 23 05 20
  21284185.259   -26942481.07346 -20968857.79148  21284184.6154   21284190.4114
       188.000
  19343516.290   -38275796.75747 -29815126.05348  19343515.9834   19343520.8034
       218.000
  20762045.662   -29327744.49246 -22231076.32248  20762044.8664   20762050.6884
       197.000
  22381886.331   -13482184.68746 -10495679.53248  22381886.2824   22381892.6434
       165.000
  21961745.028   -16170435.98146 -11952965.50048  21961744.3704   21961751.1324
       177.000
  22954062.712   -24703048.63746 -19228248.62147  22954062.0334   22954069.1144
       156.000
  21050342.939   -27841193.27046 -21409361.18148  21050342.5214   21050348.8154
       194.000
 96  4 21  2 15 59.9960000  0  8 16 06 17 26 23 05 22 20
  21294064.723   -26890564.09346 -20928403.01448  21294064.0764   21294069.8654
       187.000
  19335412.080   -38318384.39247 -29848311.22348  19335411.7834   19335416.6384
       218.000
  20748292.537   -29400017.51746 -22287392.95748  20748291.7464   20748297.5254
       197.000
  22363738.581   -13577551.56146 -10569991.32648  22363738.5164   22363744.7864
       165.000
  21939053.711   -16289679.19946 -12045882.21748  21939053.0404   21939059.8014
       177.000
  22969660.839   -24621080.31446 -19164377.23447  22969660.1054   22969667.1944
       156.000
  23638421.320    -4148915.22156  -2410698.96657  23638420.4124   23638426.3194
       141.000
  21062039.470   -27779727.67346 -21361465.93448  21062039.0544   21062045.3154
       194.000
 96  4 21  2 16 29.9960000  0  8 16 06 17 26 23 05 22 20
  21304009.408   -26838304.25546 -20887681.07848  21304008.7714   21304014.5544
       187.000
  19327375.417   -38360617.40347 -29881220.06248  19327375.1074   19327379.9684
       218.000
  20734574.831   -29472104.71246 -22343564.78048  20734574.0334   20734579.7834
       197.000
  22345635.369   -13672684.17946 -10644120.57648  22345635.3484   22345641.5624
       166.000
  21916402.160   -16408713.53946 -12138636.17048  21916401.4914   21916408.2254
       178.000
  22985262.155   -24539094.77246 -19100492.41347  22985261.5344   22985268.5394
       155.000
  23618871.835    -4251648.73746  -2490751.03247  23618870.8364   23618876.7724
       142.000
  21073792.295   -27717966.29546 -21313340.20248  21073791.8974   21073798.1174
       193.000
 96  4 21  2 16 59.9960000  0  8 16 06 17 26 23 05 22 20
  21314022.156   -26785686.94646 -20846680.58848  21314021.5304   21314027.3294
       187.000
  19319410.220   -38402474.71147 -29913836.14848  19319409.9514   19319414.8014
       218.000
  20720894.184   -29543996.93646 -22399584.68148  20720893.4044   20720899.1564
       198.000
  22327578.646   -13767572.66046 -10718059.59648  22327578.6394   22327584.8254
       166.000
  21893790.269   -16527539.44246 -12231227.71348  21893789.5854   21893796.3004
       178.000
  23000869.727   -24457076.79746 -19036582.33247  23000869.1204   23000876.0544
       154.000
  23599384.419    -4354056.27646  -2570549.08747  23599383.3474   23599389.2824
       143.000
  21085602.688   -27655902.30746 -21264978.67448  21085602.2814   21085608.5104
       193.000
 96  4 21  2 17 29.9960000  0  8 16 06 17 26 23 05 22 20
  21324102.893   -26732712.54746 -20805401.84748  21324102.2114   21324108.0574
       187.000
  19311513.317   -38443973.43947 -29946172.81648  19311513.0284   19311517.8584
       218.000
  20707250.093   -29615697.04946 -22455454.90648  20707249.3104   20707255.0774
       198.000
  22309565.216   -13862233.73146 -10791821.40448  22309565.1604   22309571.3484
       166.000
  21871218.156   -16646156.68246 -12323656.65848  21871217.4514   21871224.1024
       179.000
  23016479.864   -24375044.76046 -18972661.29747  23016479.2834   23016486.3184
       152.000
  23579957.553    -4456145.19346  -2650098.86347  23579956.3864   23579962.3004
       143.000
  21097471.291   -27593532.50446 -21216378.84548  21097470.8454   21097477.1024
       192.000
 96  4 21  2 17 59.9960000  0  8 16 06 17 26 23 05 22 20
  21334255.741   -26679358.95546 -20763827.63948  21334255.0634   21334260.9284
       186.000
  19303688.272   -38485094.19747 -29978214.96848  19303687.9754   19303692.8074
       218.000
  20693650.621   -29687162.82246 -22511142.50148  20693649.8344   20693655.6024
       198.000
  22291600.251   -13956640.02346 -10865384.68148  22291600.1774   22291606.3444
       166.000
  21848693.130   -16764526.42646 -12415892.74648  21848692.4554   21848699.0244
       179.000
  23032097.776   -24292972.36746 -18908708.79847  23032097.2214   23032104.2524
       151.000
  23560598.326    -4557878.33346  -2729371.40847  23560597.3584   23560603.1714
       143.000
  21109397.418   -27530860.28946 -21167543.37648  21109396.9794   21109403.2634
       192.000
 96  4 21  2 18 29.9960000  0  8 16 06 17 26 23 05 22 20
  21344480.643   -26625626.45246 -20721958.16548  21344479.9844   21344485.8444
       186.000
  19295942.900   -38525796.43947 -30009930.99948  19295942.6074   19295947.4374
       218.000
  20680098.962   -29758377.36146 -22566634.33048  20680098.1764   20680103.9504
       198.000
  22273687.979   -14050769.65146 -10938732.37448  22273687.8574   22273694.0434
       166.000
  21826223.727   -16882603.82646 -12507901.03748  21826223.0004   21826229.5444
       179.000
  23047726.001   -24210845.65746 -18844713.99147  23047725.4924   23047732.4804
       150.000
  23541312.756    -4659224.54646  -2808342.47147  23541311.8794   23541317.6124
       143.000
  21121383.247   -27467874.09246 -21118463.23848  21121382.8514   21121389.1394
       191.000
 96  4 21  2 18 59.9960000  0  8 16 06 17 26 23 05 22 20
  21354771.178   -26571549.39146 -20679820.19848  21354770.5104   21354776.4164
       185.000
  19288273.454   -38566099.62547 -30041336.08048  19288273.1564   19288277.9954
       218.000
  20666586.895   -29829383.44946 -22621963.74548  20666586.1104   20666591.8904
       198.000
  22255822.305   -14144653.93546 -11011888.89748  22255822.1854   22255828.2954
       166.000
  21803806.523   -17000406.89246 -12599695.56148  21803805.8104   21803812.2904
       180.000
  23063359.874   -24128689.16846 -18780695.96447  23063359.3784   23063366.3254
       149.000
  23522096.010    -4760208.83246  -2887031.49947  23522095.0434   23522100.9564
       144.000
  21133425.503   -27404591.76946 -21069152.35748  21133425.0944   21133431.3804
       191.000
 96  4 21  2 19 29.9960000  0  8 16 06 17 26 23 05 22 20
  21365123.875   -26517145.64446 -20637427.69348  21365123.2134   21365129.1294
       185.000
  19280678.233   -38606012.76747 -30072437.23348  19280677.9254   19280682.7694
       218.000
  20653111.075   -29900199.17246 -22677144.82348  20653110.2894   20653116.0864
       198.000
  22238003.289   -14238293.09646 -11084854.41548  22238003.2114   22238009.3554
       165.000
  21781441.436   -17117935.99846 -12691276.61648  21781440.7134   21781447.1704
       180.000
  23078999.156   -24046504.23346 -18716655.77547  23078998.5914   23079005.6764
       149.000
  23502949.100    -4860825.93546  -2965434.42347  23502948.2274   23502954.0334
       143.000
  21145523.490   -27341016.73146 -21019613.38048  21145523.0794   21145529.3214
       191.000
 96  4 21  2 19 59.9960000  0  8 16 06 17 26 23 05 22 20
  21375534.178   -26462439.03146 -20594799.18148  21375533.5264   21375539.4624
       185.000
  19273156.617   -38645539.18747 -30103237.04248  19273156.3014   19273161.1424
       217.000
  20639669.900   -29970832.75546 -22732183.95148  20639669.1444   20639674.9534
       199.000
  22220230.789   -14331687.69346 -11157629.36748  22220230.6954   22220236.8484
       165.000
  21759124.374   -17235212.51446 -12782660.84948  21759123.6434   21759130.1214
       179.000
  23094643.465   -23964292.81946 -18652594.95347  23094642.9024   23094650.0824
       149.000
  23483870.511    -4961084.18946  -3043557.71147  23483869.6164   23483875.5394
       143.000
  21157673.518   -27277168.01646 -20969861.16048  21157673.1284   21157679.3114
       191.000
 96  4 21  2 20 29.9960000  0  8 16 06 17 26 23 05 22 20
  21386004.121   -26407419.32046 -20551926.69648  21386003.4484   21386009.4024
       185.000
  19265710.249   -38684669.89147 -30133728.50148  19265709.9564   19265714.7914
       218.000
  20626264.602   -30041278.09346 -22787076.40648  20626263.8354   20626269.6284
       199.000
  22202504.862   -14424837.76846 -11230213.78748  22202504.7764   22202510.8834
       164.000
  21736855.883   -17352233.73446 -12873846.14848  21736855.1794   21736861.6814
       180.000
  23110293.244   -23882052.46046 -18588511.58547  23110292.6874   23110299.8434
       149.000
  23464860.378    -5060982.88246  -3121400.83247  23464859.3964   23464865.4614
       143.000
  21169880.742   -27213018.83446 -20919874.79748  21169880.3574   21169886.4724
       191.000
 96  4 21  2 20 59.9960000  0  8 16 06 17 26 23 05 22 20
  21396535.129   -26352078.63346 -20508804.10048  21396534.4684   21396540.4234
       185.000
  19258335.889   -38723422.35547 -30163925.22848  19258335.5824   19258340.4214
       218.000
  20612896.379   -30111528.42446 -22841816.90748  20612895.6294   20612901.3954
       199.000
  22184825.520   -14517743.15546 -11302607.52748  22184825.4354   22184831.5814
       164.000
  21714634.414   -17469007.95146 -12964838.98048  21714633.7124   21714640.2284
       180.000
  23125945.004   -23799801.86746 -18524420.22847  23125944.3624   23125951.5964
       149.000
  23445916.261    -5160534.59946  -3198973.57147  23445915.2714   23445921.3344
       143.000
  21182143.077   -27148580.06346 -20869662.78748  21182142.6784   21182148.7644
       191.000
 96  4 21  2 21 29.9960000  0  8 16 06 17 26 23 05 22 20
  21407127.821   -26296413.89246 -20465428.99048  21407127.1344   21407133.1154
       185.000
  19251033.675   -38761795.80647 -30193826.62048  19251033.3874   19251038.2224
       218.000
  20599570.953   -30181554.05246 -22896382.30648  20599570.2144   20599575.9504
       199.000
  22167196.132   -14610386.24146 -11374796.89348  22167196.0104   22167202.1114
       164.000
  21692465.212   -17585507.65246 -13055617.91048  21692464.4994   21692470.9944
       180.000
  23141596.523   -23717552.37246 -18460329.71547  23141595.8574   23141603.0704
       149.000
  23427042.015    -5259719.37946  -3276260.38847  23427040.9874   23427047.1444
       143.000
  21194459.890   -27083854.97046 -20819227.66748  21194459.4914   21194465.5474
       190.000
 96  4 21  2 21 59.9960000  0  8 16 06 17 26 23 05 22 20
  21417781.625   -26240427.87846 -20421803.54148  21417780.9394   21417786.9474
       185.000
  19243803.140   -38799792.54947 -30223434.47548  19243802.8424   19243807.6734
       218.000
  20586289.343   -30251349.31346 -22950768.19848  20586288.5794   20586294.2974
       199.000
  22149616.714   -14702766.37046 -11446781.34348  22149616.6304   22149622.7354
       164.000
  21670350.540   -17701720.96346 -13146173.68048  21670349.7994   21670356.2664
       181.000
  23157246.407   -23635311.46246 -18396245.91147  23157245.8324   23157253.0724
       149.000
  23408237.790    -5358535.66646  -3353260.06647  23408236.9154   23408243.0744
       144.000
  21206831.278   -27018842.89346 -20768568.92748  21206830.8674   21206836.9154
       190.000
 96  4 21  2 22 29.9960000  0  8 16 06 17 26 23 05 22 20
  21428499.552   -26184104.79346 -20377915.44248  21428498.8694   21428504.9234
       185.000
  19236646.437   -38837401.47247 -30252740.12848  19236646.1474   19236650.9734
       218.000
  20573051.272   -30320915.84546 -23004975.86148  20573050.4944   20573056.2174
       199.000
  22132092.422   -14794856.39846 -11518539.73948  22132092.3624   22132098.4994
       164.000
  21648296.519   -17817615.26246 -13236480.86948  21648295.7874   21648302.2574
       181.000
  23172894.634   -23553079.40946 -18332168.99547  23172894.1094   23172901.3594
       150.000
  23389507.946    -5456961.52646  -3429955.52747  23389507.0314   23389513.2594
       144.000
  21219257.164   -26953544.44346 -20717687.04048  21219256.7444   21219262.8264
       189.000
 96  4 21  2 22 59.9960000  0  8 16 06 17 26 23 05 22 20
  21439275.485   -26127476.65346 -20333789.62448  21439274.7994   21439280.8934
       185.000
  19229560.422   -38874638.82747 -30281756.25148  19229560.1224   19229564.9654
       218.000
  20559853.384   -30390271.14846 -23059018.93048  20559852.6004   20559858.3554
       199.000
  22114624.458   -14886650.45146 -11590067.50848  22114624.4644   22114630.5774
       164.000
  21626299.892   -17933207.89146 -13326552.98748  21626299.2054   21626305.6664
       181.000
  23188538.774   -23470869.10446 -18268109.01047  23188538.2194   23188545.5194
       148.000
  23370850.475    -5555007.16846  -3506354.70647  23370849.5884   23370855.7154
       145.000
  21231731.282   -26887992.55846 -20666607.66148  21231730.8694   21231736.9464
       189.000
 96  4 21  2 23 29.9960000  0  8 16 06 17 26 23 05 22 20
  21450110.339   -26070539.02746 -20289422.65948  21450109.6684   21450115.7814
       185.000
  19222547.643   -38911491.13247 -30310472.33248  19222547.3274   19222552.1544
       218.000
  20546696.594   -30459410.50146 -23112893.73348  20546695.8094   20546701.5414
       199.000
  22097213.299   -14978146.16146 -11661362.80148  22097213.2784   22097219.4204
       165.000
  21604358.619   -18048509.50846 -13416398.34048  21604357.9544   21604364.4204
       182.000
  23204182.827   -23388658.99346 -18204049.17447  23204182.2594   23204189.6554
       147.000
  23352265.855    -5652670.26146  -3582455.80547  23352264.8944   23352270.9554
       146.000
  21244254.352   -26822183.49746 -20615327.88648  21244253.9294   21244259.9974
       188.000
 96  4 21  2 23 59.9960000  0  8 16 06 17 26 23 05 22 20
  21461005.789   -26013283.01946 -20244807.59948  21461005.1154   21461011.2214
       185.000
  19215611.222   -38947942.08247 -30338875.66648  19215610.8994   19215615.7304
       218.000
  20533579.989   -30528338.74546 -23166604.01948  20533579.1894   20533584.8794
       200.000
  22079860.447   -15069335.75946 -11732419.55948  22079860.5004   22079866.6164
       166.000
  21582469.403   -18163537.60646 -13506030.56348  21582468.7684   21582475.2514
       182.000
  23219830.313   -23306430.97346 -18139975.38347  23219829.6374   23219837.1664
       145.000
  23333752.433    -5749958.83946  -3658265.07247  23333751.4394   23333757.4854
       146.000
  21256826.430   -26756116.83946 -20563847.38548  21256825.9864   21256832.0804
       188.000
 96  4 21  2 24 29.9960000  0  8 16 06 17 26 23 05 22 20
  21471959.905   -25955718.83946 -20199952.40748  21471959.2524   21471965.3044
       185.000
  19208749.247   -38984002.02447 -30366974.32348  19208748.9204   19208753.7524
       218.000
  20520500.808   -30597070.15946 -23220160.94548  20520500.0144   20520505.6644
       200.000
  22062564.703   -15160225.51546 -11803242.68648  22062564.7644   22062570.8144
       166.000
  21560627.697   -18278316.40746 -13595468.52648  21560627.0194   21560633.4874
       182.000
  23235477.177   -23224205.93546 -18075903.92947  23235476.5644   23235483.9654
       143.000
  23315308.457    -5846882.43646  -3733789.95147  23315307.4494   23315313.6044
       147.000
  21269442.996   -26689816.61146 -20512184.89248  21269442.5314   21269448.6634
       188.000
 96  4 21  2 24 59.9960000  0  8 16 06 17 26 23 05 22 20
  21482970.877   -25897856.26346 -20154864.69948  21482970.1694   21482976.1804
       185.000
  19201961.091   -39019673.93647 -30394770.61848  19201960.7694   19201965.6134
       218.000
  20507460.241   -30665598.85446 -23273559.89848  20507459.4314   20507465.0814
       200.000
  22045321.772   -15250837.43146 -11873849.30748  22045321.8224   22045327.8694
       166.000
  21538830.370   -18392861.79046 -13684724.61248  21538829.7384   21538836.1464
       183.000
  23251122.654   -23141988.17646 -18011838.12547  23251122.0834   23251129.3704
       142.000
  23296932.495    -5943449.02246  -3809036.64147  23296931.5404   23296937.5454
       148.000
  21282106.223   -26623271.03546 -20460331.21248  21282105.7544   21282111.8654
       187.000
 96  4 21  2 25 29.9960000  0  8 16 06 17 26 23 05 22 20
  21494037.783   -25839699.44746 -20109547.70548  21494037.0684   21494043.0264
       184.000
  19195246.167   -39054961.03247 -30422267.05348  19195245.8584   19195250.6894
       218.000
  20494455.953   -30733936.70046 -23326810.14248  20494455.1344   20494460.7924
       200.000
  22028129.158   -15341185.38046 -11944250.24448  22028129.1734   22028135.1804
       167.000
  21517077.560   -18507173.59246 -13773798.67448  21517076.8984   21517083.2864
       184.000
  23266763.663   -23059793.83946 -17947790.57847  23266763.1454   23266770.4654
       142.000
  23278624.664    -6039657.59246  -3884004.34547  23278623.8144   23278629.7534
       148.000
  21294813.043   -26556496.31946 -20408298.97648  21294812.5684   21294818.6604
       187.000
 96  4 21  2 25 59.9960000  0  8 16 06 17 26 23 05 22 20
  21505161.828   -25781242.33046 -20063996.72748  21505161.1574   21505167.0574
       184.000
  19188607.696   -39089846.56547 -30449450.58548  19188607.3744   19188612.2044
       218.000
  20481490.690   -30802069.38746 -23379900.51948  20481489.8704   20481495.5744
       200.000
  22010991.669   -15431243.46146 -12014425.29148  22010991.5984   22010997.6624
       167.000
  21495377.450   -18621208.25046 -13862656.79448  21495376.7604   21495383.1354
       184.000
  23282401.624   -22977616.02046 -17883755.89347  23282400.9494   23282408.4144
       142.000
  23260391.371    -6135474.06346  -3958666.52347  23260390.4774   23260396.4244
       149.000
  21307565.330   -26489482.50346 -20356080.43448  21307564.8804   21307570.9934
       187.000
 96  4 21  2 26 29.9960000  0  8 16 06 17 26 23 05 22 20
  21516336.812   -25722517.80846 -20018237.37148  21516336.1104   21516341.9794
       183.000
  19182039.164   -39124364.40947 -30476347.60448  19182038.8614   19182043.6644
       218.000
  20468560.996   -30870015.20546 -23432845.28848  20468560.1714   20468565.8794
       200.000
  21993903.631   -15521041.21546 -12084397.50948  21993903.5774   21993909.6324
       168.000
  21473727.980   -18734976.85246 -13951307.57748  21473727.2784   21473733.6254
       185.000
  23298030.590   -22895485.39346 -17819757.97547  23298029.9094   23298037.3334
       143.000
  23242230.789    -6230908.38446  -4033030.92547  23242229.8704   23242235.8384
       150.000
  21320358.214   -26422255.44846 -20303695.72948  21320357.7534   21320363.8874
       186.000
 96  4 21  2 26 59.9960000  0  8 16 06 17 26 23 05 22 20
  21527572.306   -25663475.18446 -19972230.14148  21527571.5824   21527577.4244
       183.000
  19175553.316   -39158447.85347 -30502906.12648  19175552.9814   19175557.7714
       218.000
  20455676.622   -30937722.94846 -23485604.54048  20455675.8004   20455681.5244
       200.000
  21976875.231   -15610525.79146 -12154125.68548  21976875.1564   21976881.2404
       168.000
  21452140.518   -18848419.48146 -14039704.36748  21452139.8034   21452146.1534
       185.000
  23313661.148   -22813345.96446 -17755753.19847  23313660.4584   23313667.9194
       144.000
  23224151.570    -6325915.05346  -4107062.08447  23224150.6454   23224156.6204
       150.000
  21333200.224   -26354770.23546 -20251109.85648  21333199.7434   21333205.9124
       186.000
 96  4 21  2 27 29.9960000  0  8 16 06 17 26 23 05 22 20
  21538858.783   -25604164.23646 -19926013.83248  21538858.0694   21538863.8994
       183.000
  19169143.846   -39192129.79447 -30529151.79448  19169143.5284   19169148.3024
       218.000
  20442827.237   -31005246.48446 -23538220.26648  20442826.4364   20442832.1604
       200.000
  21959900.805   -15699726.71546 -12223632.83048  21959900.7774   21959906.8514
       168.000
  21430609.057   -18961567.52946 -14127871.61148  21430608.3594   21430614.6924
       186.000
  23329285.115   -22731241.62646 -17691775.76847  23329284.3334   23329291.8484
       145.000
  23206144.292    -6420544.07246  -4180798.97147  23206143.3614   23206149.3314
       149.000
  21346081.284   -26287079.62646 -20198363.94048  21346080.8164   21346087.0164
       185.000
 96  4 21  2 27 59.9960000  0  8 16 06 17 26 23 05 22 20
  21550198.405   -25544573.88646 -19879579.81948  21550197.7294   21550203.6004
       182.000
  19162813.850   -39225394.05447 -30555071.99248  19162813.5304   19162818.3014
       218.000
  20430014.791   -31072575.89646 -23590684.73148  20430013.9964   20430019.7234
       200.000
  21942983.223   -15788628.74346 -12292907.07448  21942983.1394   21942989.2044
       167.000
  21409137.690   -19074400.04846 -14215792.99448  21409136.9734   21409143.3234
       186.000
  23344905.247   -22649157.25646 -17627813.89847  23344904.5194   23344911.9794
       146.000
  23188211.097    -6514783.89846  -4254232.59647  23188210.1464   23188216.0824
       149.000
  21359008.700   -26219145.25046 -20145428.07348  21359008.2664   21359014.4544
       185.000
 96  4 21  2 28 29.9960000  0  8 16 06 17 26 23 05 22 20
  21561598.616   -25484665.08846 -19832897.66448  21561597.9664   21561603.8554
       182.000
  19156573.214   -39258188.87747 -30580626.39848  19156572.8914   19156577.6414
       218.000
  20417244.594   -31139683.63546 -23642976.44648  20417243.8164   20417249.5414
       200.000
  21926128.638   -15877199.79446 -12361923.40448  21926128.6174   21926134.6194
       168.000
  21387730.838   -19186893.64146 -14303450.27248  21387730.1224   21387736.4154
       187.000
  23360527.374   -22567062.52746 -17563843.94647  23360526.6944   23360534.0414
       147.000
  23170357.796    -6608603.55046  -4327338.80047  23170356.8754   23170362.7824
       149.000
  21371991.131   -26150922.00646 -20092267.11748  21371990.6994   21371996.8964
       184.000
 96  4 21  2 28 59.9960000  0  8 16 06 17 26 23 05 22 20
  21573051.956   -25424477.12646 -19785997.96048  21573051.3084   21573057.2694
       181.000
  19150417.633   -39290536.71247 -30605832.50148  19150417.3024   19150422.0424
       218.000
  20404508.437   -31206612.76046 -23695128.99948  20404507.6234   20404513.3394
       201.000
  21909331.870   -15965467.18046 -12430703.12048  21909331.8454   21909337.7564
       169.000
  21366381.615   -19299084.30446 -14390871.50548  21366380.9024   21366387.1634
       187.000
  23376143.224   -22485000.70046 -17499899.62447  23376142.4844   23376149.8974
       147.000
  23152575.756    -6702048.61346  -4400153.12847  23152574.8564   23152580.7704
       149.000
  21385021.630   -26082446.11746 -20038909.29748  21385021.2084   21385027.4224
       184.000
 96  4 21  2 29 29.9960000  0  8 16 06 17 26 23 05 22 20
  21584554.436   -25364031.19846 -19738897.26648  21584553.7944   21584559.8034
       181.000
  19144340.215   -39322473.88047 -30630718.60648  19144339.8894   19144344.6354
       218.000
  20391805.759   -31273365.70846 -23747144.26248  20391804.9674   20391810.6464
       201.000
  21892591.736   -16053437.11346 -12499251.05948  21892591.6854   21892597.6054
       170.000
  21345087.492   -19410985.67346 -14478067.31548  21345086.7744   21345093.0194
       187.000
  23391750.347   -22402984.48446 -17435990.84147  23391749.5794   23391757.0304
       147.000
  23134863.486    -6795127.05946  -4472681.76747  23134862.6194   23134868.6134
       149.000
  21398098.769   -26013725.33446 -19985360.65248  21398098.3354   21398104.5694
       183.000
 96  4 21  2 29 59.9960000  0  8 16 06 17 26 23 05 22 20
  21596110.919   -25303301.84246 -19691575.71048  21596110.2344   21596116.2184
       180.000
  19138342.348   -39353992.73347 -30655278.74948  19138342.0324   19138346.7874
       218.000
  20379142.986   -31339909.05046 -23798996.19848  20379142.1634   20379147.8454
       201.000
  21875911.155   -16141094.19946 -12567555.21648  21875911.0724   21875916.9234
       170.000
  21323848.961   -19522594.47346 -14565035.14848  21323848.2574   21323854.4774
       187.000
  23407351.872   -22320998.19846 -17372105.38147  23407351.0674   23407358.4674
       145.000
  23117227.350    -6887804.92146  -4544898.27747  23117226.4874   23117232.5984
       148.000
  21411223.117   -25944756.60246 -19931618.79448  21411222.6794   21411228.9254
       183.000
 96  4 21  2 30 29.9960000  0  8 16 06 17 26 23 05 22 20
  21607724.871   -25242270.11946 -19644018.54348  21607724.2034   21607730.1714
       180.000
  19132426.663   -39385079.66647 -30679502.33548  19132426.3474   19132431.1394
       218.000
  20366525.643   -31406213.45046 -23850661.94248  20366524.8184   20366530.5074
       201.000
  21859293.879   -16228418.12446 -12635599.76248  21859293.7964   21859299.6444
       170.000
  21302668.494   -19633898.34346 -14651765.37448  21302667.8004   21302673.9984
       188.000
  23422949.850   -22239029.86646 -17308233.89747  23422948.9604   23422956.4824
       145.000
  23099671.240    -6980062.37646  -4616787.19047  23099670.3614   23099676.4884
       148.000
  21424393.452   -25875545.86546 -19877688.36148  21424393.0214   21424399.2854
       183.000
 96  4 21  2 30 59.9960000  0  8 16 06 17 26 23 05 22 20
  21619393.466   -25180951.42546 -19596237.76948  21619392.8064   21619398.7304
       179.000
  19126587.153   -39415766.52447 -30703414.17448  19126586.8494   19126591.6364
       218.000
  20353952.563   -31472285.42746 -23902146.57948  20353951.7524   20353957.3934
       201.000
  21842740.796   -16315404.74846 -12703381.49248  21842740.7054   21842746.5254
       170.000
  21281546.510   -19744895.16846 -14738256.35248  21281545.7734   21281551.9754
       189.000
  23438542.696   -22157088.61246 -17244383.52047  23438541.8654   23438549.2644
       143.000
  23082192.504    -7071913.43146  -4688359.42347  23082191.5824   23082197.6794
       149.000
  21437604.871   -25806119.41846 -19823589.83648  21437604.4654   21437610.7304
       183.000
 96  4 21  2 31 29.9960000  0  8 16 06 17 26 23 05 22 20
  21631117.990   -25119338.95946 -19548228.08048  21631117.3394   21631123.2934
       178.000
  19120823.919   -39446052.83147 -30727013.88948  19120823.5994   19120828.3734
       218.000
  20341424.055   -31538123.22446 -23953448.73148  20341423.2264   20341428.8524
       201.000
  21826250.752   -16402060.44046 -12770905.34948  21826250.6714   21826256.4084
       171.000
  21260482.999   -19855584.24046 -14824507.51648  21260482.2944   21260488.4904
       189.000
  23454128.517   -22075184.49946 -17180562.08547  23454127.6164   23454135.0844
       142.000
  23064793.015    -7163348.21846  -4759607.29647  23064792.0974   23064798.2084
       149.000
  21450857.470   -25736476.70546 -19769322.79248  21450857.0214   21450863.3364
       182.000
 96  4 21  2 31 59.9960000  0  8 16 06 17 26 23 05 22 20
  21642900.454   -25057422.04546 -19499981.15548  21642899.7624   21642905.7714
       178.000
  19115141.687   -39475912.98847 -30750281.54548  19115141.3634   19115146.1334
       218.000
  20328939.212   -31603731.40846 -24004571.96448  20328938.3794   20328944.0084
       201.000
  21809825.431   -16488376.11746 -12838164.26048  21809825.3124   21809831.0044
       171.000
  21239480.979   -19965950.12646 -14910506.85148  21239480.2744   21239486.5054
       190.000
  23469706.003   -21993324.11146 -17116774.69147  23469705.1914   23469712.5934
       140.000
  23047474.777    -7254356.12746  -4830522.54347  23047473.8064   23047479.9924
       150.000
  21464151.818   -25666614.19846 -19714884.48448  21464151.3774   21464157.7144
       182.000
 96  4 21  2 32 29.9960000  0  8 16 06 17 26 23 05 22 20
  21654734.643   -24995232.94946 -19451522.14448  21654733.9404   21654740.0124
       178.000
  19109538.253   -39505359.02847 -30773226.51248  19109537.9624   19109542.7534
       218.000
  20316492.863   -31669137.28746 -24055537.55648  20316492.0154   20316497.6744
       202.000
  21793463.748   -16574356.78146 -12905162.11548  21793463.6894   21793469.3904
       172.000
  21218538.949   -20076000.58246 -14996260.39348  21218538.2524   21218544.5194
       190.000
  23485270.951   -21911529.54546 -17053038.59747  23485270.3364   23485277.5664
       139.000
  23030230.810    -7344974.08846  -4901133.92547  23030229.9134   23030235.9494
       150.000
  21477485.908   -25596543.10646 -19660283.64448  21477485.4664   21477491.8494
       181.000
 96  4 21  2 32 59.9960000  0  8 16 06 17 26 23 05 22 20
  21666622.179   -24932763.42046 -19402844.59748  21666621.4604   21666627.5644
       177.000
  19104016.352   -39534376.91447 -30795837.84848  19104016.0454   19104020.8314
       218.000
  20304086.709   -31734331.90546 -24106338.52748  20304085.8644   20304091.5524
       202.000
  21777170.059   -16659980.32046 -12971881.70248  21777170.0294   21777175.6924
       172.000
  21197657.824   -20185731.27246 -15081764.76448  21197657.1184   21197663.4114
       189.000
  23500826.091   -21829786.35646 -16989342.50747  23500825.3674   23500832.7694
       138.000
  23013062.717    -7435192.84546  -4971434.23647  23013061.9194   23013067.8114
       150.000
  21490862.136   -25526250.59846 -19605510.27248  21490861.7164   21490868.1064
       181.000
 96  4 21  2 33 29.9960000  0  7 16 06 17 26 23 22 20
  21678563.043   -24870013.51046 -19353948.59548  21678562.3444   21678568.4924
       177.000
  19098578.116   -39562955.11647 -30818106.57348  19098577.8004   19098582.5794
       218.000
  20291722.447   -31799306.33746 -24156967.92748  20291721.6144   20291727.3304
       202.000
  21760944.686   -16745244.81046 -13038321.50248  21760944.6424   21760950.3414
       174.000
  21176836.699   -20295146.83746 -15167023.58848  21176835.9824   21176842.2844
       190.000
  22995973.875    -7524995.29346  -5041410.15147  22995973.0394   22995979.0804
       149.000
  21504281.466   -25455731.50046 -19550560.33248  21504281.0564   21504287.4294
       181.000
 96  4 21  2 33 59.9960000  0  7 16 06 17 26 23 22 20
  21690550.738   -24807017.47146 -19304860.79348  21690550.0754   21690556.2194
       177.000
  19093218.309   -39591121.18347 -30840054.15548  19093217.9804   19093222.7524
       218.000
  20279394.517   -31864089.79946 -24207448.52148  20279393.6984   20279399.4074
       202.000
  21744786.309   -16830157.61546 -13104487.25448  21744786.2384   21744791.9034
       174.000
  21156073.434   -20404258.21646 -15252045.38548  21156072.7264   21156079.0094
       191.000
  22978961.288    -7614396.91246  -5111073.73747  22978960.4274   22978966.4984
       150.000
  21517738.218   -25385015.97946 -19495457.33248  21517737.7804   21517744.1364
       180.000
 96  4 21  2 34 29.9960000  0  7 16 06 17 26 23 22 20
  21702585.210   -24743775.66246 -19255581.48548  21702584.5734   21702590.7584
       176.000
  19087937.056   -39618874.14247 -30861679.83748  19087936.7464   19087941.5154
       218.000
  20267101.496   -31928689.78846 -24257786.15448  20267100.6884   20267106.3954
       202.000
  21728692.847   -16914729.55546 -13170387.40848  21728692.7794   21728698.3334
       174.000
  21135365.700   -20513077.93146 -15336839.91048  21135365.0014   21135371.2694
       191.000
  22962026.031    -7703392.03546  -5180420.57347  22962025.2814   22962031.2584
       151.000
  21531231.300   -25314109.63046 -19440205.64448  21531230.8694   21531237.1804
       181.000
 96  4 21  2 34 59.9960000  0  7 16 06 17 26 23 22 20
  21714666.755   -24680286.79346 -19206109.65748  21714666.0804   21714672.3394
       176.000
  19082733.635   -39646218.30747 -30882986.97648  19082733.3194   19082738.1114
       218.000
  20254842.601   -31993110.55246 -24307984.13048  20254841.7954   20254847.4904
       202.000
  21712664.001   -16998961.68146 -13236022.76848  21712663.9064   21712669.4644
       175.000
  21114714.443   -20621600.86146 -15421403.17448  21114713.7384   21114719.9864
       191.000
  22945172.715    -7791956.85546  -5249432.09947  22945171.9584   22945177.8964
       152.000
  21544760.328   -25243014.45346 -19384806.81048  21544759.8934   21544766.1264
       180.000
 96  4 21  2 35 29.9960000  0  7 16 06 17 26 23 22 20
  21726792.676   -24616564.49746 -19156455.93548  21726792.0344   21726798.2994
       176.000
  19077608.381   -39673151.68747 -30903974.02248  19077608.0674   19077612.8714
       219.000
  20242615.584   -32057363.85546 -24358051.61648  20242614.7604   20242620.4684
       202.000
  21696699.236   -17082856.56546 -13301395.34548  21696699.1484   21696704.7374
       174.000
  21094122.144   -20729813.80146 -15505724.89048  21094121.4544   21094127.7024
       191.000
  22928400.724    -7880094.03346  -5318110.40747  22928399.8994   22928405.9404
       152.000
  21558323.581   -25171739.19646 -19329267.65748  21558323.1334   21558329.3434
       180.000
 96  4 21  2 35 59.9960000  0  7 16 06 17 26 23 22 20
  21738966.353   -24552591.65046 -19106606.98648  21738965.7374   21738971.9324
       176.000
  19072566.036   -39699649.49147 -30924621.65548  19072565.6984   19072570.5204
       219.000
  20230423.144   -32121435.32646 -24407977.41848  20230422.3204   20230428.0444
       202.000
  21680803.093   -17166390.87846 -13366486.96548  21680803.0034   21680808.6154
       174.000
  21073590.848   -20837706.04946 -15589796.71348  21073590.1374   21073596.4384
       191.000
  22911711.054    -7967799.23746  -5386452.10747  22911710.2234   22911716.1314
       152.000
  21571922.728   -25100275.17346 -19273581.41248  21571922.2794   21571928.4904
       179.000
 96  4 21  2 36 29.9960000  0  7 16 06 17 26 23 22 20
  21751191.608   -24488347.67446 -19056546.76648  21751190.9844   21751197.1394
       176.000
  19067610.238   -39725692.30747 -30944914.75548  19067609.9284   19067614.7224
       219.000
  20218271.871   -32185290.39746 -24457734.60248  20218271.0624   20218276.7884
       202.000
  21664981.352   -17249534.15346 -13431273.88548  21664981.2764   21664986.9164
       174.000
  21053123.463   -20945262.71346 -15673607.04848  21053122.7564   21053129.0134
       192.000
  22895106.392    -8055057.20346  -5454445.32047  22895105.5684   22895111.4804
       153.000
  21585562.016   -25028600.35646 -19217730.91848  21585561.5174   21585567.7474
       179.000
 96  4 21  2 36 59.9960000  0  7 16 06 17 26 23 22 20
  21763464.350   -24423854.42546 -19006292.28848  21763463.6884   21763469.7944
       176.000
  19062736.923   -39751301.85247 -30964870.24048  19062736.6124   19062741.3814
       219.000
  20206161.319   -32248931.59346 -24507325.12648  20206160.5464   20206166.2514
       202.000
  21649234.542   -17332283.83646 -13495754.08548  21649234.4674   21649240.1164
       175.000
  21032720.697   -21052479.64446 -15757152.64948  21032720.0014   21032726.2194
       192.000
  22878582.215    -8141892.66246  -5522109.30147  22878581.4084   22878587.2014
       153.000
  21599236.565   -24956740.14646 -19161735.94848  21599236.1104   21599242.2824
       178.000
 96  4 21  2 37 29.9960000  0  7 16 06 17 26 23 22 20
  21775786.974   -24359098.81046 -18955833.39148  21775786.3074   21775792.3734
       176.000
  19057950.697   -39776453.55647 -30984468.96348  19057950.3864   19057955.1584
       219.000
  20194094.625   -32312342.60446 -24556736.28248  20194093.8404   20194099.5294
       202.000
  21633564.057   -17414632.43146 -13559921.76348  21633563.9754   21633569.6854
       175.000
  21012383.772   -21159350.62446 -15840428.68448  21012383.0704   21012389.2804
       192.000
  22862139.016    -8228302.21846  -5589441.40647  22862138.1414   22862143.9644
       153.000
  21612945.380   -24884699.82846 -19105600.65048  21612944.9204   21612951.1244
       178.000
 96  4 21  2 37 59.9960000  0  7 16 06 17 26 23 22 20
  21788162.343   -24294065.88046 -18905158.40048  21788161.6694   21788167.7274
       175.000
  19053253.707   -39801136.42847 -31003702.36848  19053253.3874   19053258.1724
       219.000
  20182074.511   -32375508.82846 -24605956.70148  20182073.7014   20182079.3664
       202.000
  21617971.258   -17496572.73846 -13623771.29048  21617971.1904   21617976.8764
       176.000
  20992116.137   -21265857.63146 -15923421.09948  20992115.4514   20992121.6164
       192.000
  22845782.291    -8314257.57946  -5656419.60947  22845781.4444   22845787.1604
       154.000
  21626691.818   -24812461.56346 -19049311.09748  21626691.3734   21626697.6044
       178.000
 96  4 21  2 38 29.9950000  0  7 16 06 17 26 23 22 20
  21800590.865   -24228753.81346 -18854265.89648  21800590.2054   21800596.2394
       175.000
  19048645.936   -39825350.27047 -31022570.28848  19048645.6174   19048650.4094
       218.000
  20170101.706   -32438426.20546 -24654983.20648  20170100.8904   20170106.5544
       203.000
  21602455.091   -17578110.66646 -13687307.28448  21602455.0124   21602460.7094
       175.000
  20971922.258   -21371977.00346 -16006111.46748  20971921.5614   20971927.7114
       192.000
  22829517.932    -8399727.87846  -5723019.83847  22829516.9644   22829522.7294
       154.000
  21640477.063   -24740019.74546 -18992862.92948  21640476.5804   21640482.8914
       178.000
 96  4 21  2 38 59.9950000  0  7 16 06 17 26 23 22 20
  21813073.238   -24163158.58546 -18803152.73848  21813072.5844   21813078.5714
       174.000
  19044131.879   -39849071.65947 -31041054.48148  19044131.5724   19044136.3974
       218.000
  20158175.453   -32501099.21046 -24703819.29348  20158174.6364   20158180.2954
       203.000
  21587012.827   -17659260.16846 -13750540.60848  21587012.7024   21587018.3734
       175.000
  20951801.670   -21477711.14646 -16088501.65448  20951800.9504   20951807.0694
       192.000
  22813347.751    -8484702.96546  -5789234.18347  22813346.7694   22813352.5534
       153.000
  21654301.765   -24667370.39946 -18936253.06148  21654301.2794   21654307.6124
       177.000
 96  4 21  2 39 29.9950000  0  7 16 06 17 26 23 22 20
  21825606.605   -24097295.12346 -18751830.57748  21825605.9774   21825612.0274
       174.000
  19039711.080   -39872303.03347 -31059156.84748  19039710.7634   19039715.6124
       218.000
  20146292.695   -32563543.46646 -24752477.13448  20146291.8534   20146297.4964
       203.000
  21571642.222   -17740033.10546 -13813480.51148  21571642.0634   21571647.6544
       175.000
  20931750.433   -21583080.78546 -16170607.81548  20931749.7314   20931755.8394
       193.000
  22797273.456    -8569173.43846  -5855055.33247  22797272.5474   22797278.4044
       153.000
  21668166.040   -24594513.00346 -18879481.07148  21668165.6014   21668171.9184
       177.000
 96  4 21  2 39 59.9950000  0  7 16 06 17 26 23 22 20
  21838180.636   -24031218.30946 -18700342.16348  21838179.9334   21838186.0314
       173.000
  19035370.847   -39895111.17847 -31076929.42748  19035370.5174   19035375.3564
       218.000
  20134442.728   -32625815.23846 -24801000.57448  20134441.8964   20134447.5464
       203.000
  21556334.610   -17820474.78646 -13876162.27348  21556334.4904   21556339.9564
       175.000
  20911757.572   -21688143.67546 -16252474.95548  20911756.8624   20911762.9594
       193.000
  22781285.114    -8653191.90446  -5920524.26547  22781284.2664   22781290.2924
       153.000
  21682060.819   -24521495.45346 -18822584.28248  21682060.3824   21682066.7444
       177.000
 96  4 21  2 40 29.9950000  0  7 16 06 17 26 23 22 20
  21850793.317   -23964938.02346 -18648695.21048  21850792.6314   21850798.7214
       173.000
  19031111.361   -39917494.75347 -31094371.16848  19031111.0264   19031115.8624
       218.000
  20122625.530   -32687914.78846 -24849389.82748  20122624.7074   20122630.3654
       203.000
  21541090.256   -17900584.36546 -13938585.27048  21541090.1844   21541095.5484
       175.000
  20891818.282   -21792925.07346 -16334122.74848  20891817.5764   20891823.6444
       193.000
  22765377.918    -8736784.43046  -5985661.30447  22765377.0974   22765383.2374
       153.000
  21695983.070   -24448333.66546 -18765575.10448  21695982.6344   21695989.0134
       177.000
 96  4 21  2 40 59.9950000  0  7 16 06 17 26 23 22 20
  21863451.976   -23898416.25546 -18596860.08448  21863451.2984   21863457.4154
       172.000
  19026941.253   -39939408.80347 -31111447.04848  19026940.9434   19026945.7634
       218.000
  20110849.393   -32749798.76946 -24897611.09548  20110848.5794   20110854.2264
       204.000
  21525921.345   -17980297.57246 -14000699.40548  21525921.2554   21525926.5904
       176.000
  20871940.951   -21897380.70746 -16415516.69748  20871940.2574   20871946.3354
       193.000
  22749554.627    -8819935.88246  -6050454.64247  22749553.8824   22749560.0984
       153.000
  21709941.644   -24374980.74746 -18708416.98648  21709941.2304   21709947.6474
       177.000
 96  4 21  2 41 29.9950000  0  7 16 06 17 26 23 22 20
  21876157.900   -23831645.75546 -18544831.13548  21876157.2324   21876163.3864
       171.000
  19022857.339   -39960869.74347 -31128169.85548  19022857.0304   19022861.8174
       218.000
  20099116.750   -32811454.23646 -24945654.30348  20099115.9624   20099121.5584
       204.000
  21510832.078   -18059591.60846 -14062486.92148  21510831.9914   21510837.3484
       176.000
  20852129.675   -22001489.29146 -16496640.21748  20852128.9624   20852135.0544
       194.000
  22733815.633    -8902644.72846  -6114903.08247  22733814.9074   22733821.0694
       152.000
  21723938.114   -24301428.79946 -18651103.78848  21723937.7014   21723944.1514
       177.000
 96  4 21  2 41 59.9950000  0  7 16 06 17 26 23 22 20
  21888901.329   -23764678.40946 -18492648.80548  21888900.6394   21888906.8644
       171.000
  19018852.605   -39981914.97347 -31144568.73448  19018852.2824   19018857.0464
       218.000
  20087420.711   -32872917.38146 -24993547.64248  20087419.9084   20087425.4704
       204.000
  21495814.987   -18138506.63546 -14123979.09848  21495814.8974   21495820.2354
       176.000
  20832380.213   -22105273.22646 -16577510.76948  20832379.5144   20832385.5674
       194.000
  22718152.704    -8984954.28246  -6179040.40247  22718151.8904   22718157.9694
       152.000
  21737963.536   -24227724.52546 -18593671.89448  21737963.1214   21737969.6144
       176.000
 96  4 21  2 42 29.9950000  0  7 16 06 17 26 23 22 20
  21901682.519   -23697512.67946 -18440311.88448  21901681.8214   21901688.0814
       171.000
  19014929.740   -40002529.79647 -31160632.22748  19014929.3984   19014934.1514
       218.000
  20075761.723   -32934185.74246 -25041289.20248  20075760.8904   20075766.4964
       204.000
  21480871.741   -18217033.58146 -14185168.87348  21480871.6324   21480877.0254
       177.000
  20812696.714   -22208710.59346 -16658111.26148  20812696.0014   20812702.0534
       194.000
  22702567.981    -9066852.79746  -6242857.41547  22702567.1594   22702573.1284
       152.000
  21752020.167   -24153856.66146 -18536112.52548  21752019.7104   21752026.1864
       176.000
 96  4 21  2 42 59.9950000  0  7 16 06 17 26 23 22 20
  21914502.891   -23630141.02546 -18387814.51448  21914502.2164   21914508.4724
       170.000
  19011088.781   -40022713.85547 -31176360.06548  19011088.4674   19011093.2544
       218.000
  20064140.582   -32995255.01546 -25088875.62848  20064139.7554   20064145.3774
       204.000
  21466006.576   -18295150.47946 -14246039.13548  21466006.4534   21466011.9144
       177.000
  20793083.931   -22311776.28246 -16738422.14548  20793083.2284   20793089.2694
       195.000
  22687067.400    -9148309.02946  -6306329.78947  22687066.5704   22687072.5204
       153.000
  21766108.477   -24079821.99946 -18478423.17648  21766108.0474   21766114.5024
       176.000
 96  4 21  2 43 29.9950000  0  7 16 06 17 26 23 22 20
  21927368.677   -23562530.90646 -18335131.32748  21927367.9494   21927374.2804
       170.000
  19007336.422   -40042432.64547 -31191725.35648  19007336.1254   19007340.8864
       218.000
  20052561.825   -33056101.60646 -25136288.54148  20052561.0014   20052566.6244
       204.000
  21451225.136   -18372827.13346 -14306566.34848  21451225.0064   21451230.6084
       178.000
  20773547.691   -22414439.73646 -16818419.59848  20773547.0124   20773553.0284
       195.000
  22671660.907    -9229271.00446  -6369417.02747  22671659.9974   22671665.9204
       153.000
  21780230.314   -24005611.35146 -18420596.70348  21780229.8904   21780236.3344
       176.000
 96  4 21  2 43 59.9950000  0  7 16 06 17 26 23 22 20
  21940271.985   -23494723.58046 -18282294.45948  21940271.2764   21940277.6214
       169.000
  19003668.365   -40061708.54747 -31206745.53748  19003668.0444   19003672.7864
       218.000
  20041016.516   -33116772.80546 -25183564.77648  20041015.6834   20041021.2844
       204.000
  21436520.155   -18450101.91646 -14366780.41848  21436520.0364   21436525.6314
       178.000
  20754077.873   -22516754.27146 -16898145.16848  20754077.1824   20754083.1874
       196.000
  22656339.888    -9309783.58846  -6432154.09847  22656338.9634   22656344.9064
       154.000
  21794375.800   -23931276.41946 -18362673.38048  21794375.3984   21794381.8124
       176.000
 96  4 21  2 44 29.9950000  0  7 16 06 17 26 23 22 20
  21953217.583   -23426694.29246 -18229284.65048  21953216.8444   21953223.1984
       169.000
  19000087.219   -40080527.69847 -31221409.81048  19000086.9044   19000091.6244
       218.000
  20029506.236   -33177259.73646 -25230697.43548  20029505.3824   20029510.9654
       204.000
  21421896.709   -18526948.52746 -14426660.85348  21421896.6304   21421902.1144
       178.000
  20734676.045   -22618711.34546 -16977592.19648  20734675.3634   20734681.3554
       197.000
  22641105.739    -9389839.50546  -6494535.32247  22641104.8794   22641110.7194
       154.000
  21808543.614   -23856824.32446 -18304658.75648  21808543.1794   21808549.5464
       175.000
 96  4 21  2 44 59.9950000  0  7 16 06 17 26 23 22 20
  21966203.042   -23358455.44546 -18176111.53448  21966202.2754   21966208.6394
       169.000
  18996591.846   -40098895.87747 -31235722.67248  18996591.5334   18996596.2464
       218.000
  20018030.510   -33237564.83746 -25277688.40748  20018029.6864   20018035.2484
       205.000
  21407354.208   -18603369.94046 -14486209.96348  21407354.1474   21407359.5484
       178.000
  20715340.915   -22720318.02246 -17056766.19148  20715340.2084   20715346.2064
       197.000
  22625957.350    -9469444.45646  -6556565.13847  22625956.4774   22625962.2414
       154.000
  21822729.165   -23782278.79446 -18246571.32848  21822728.6894   21822735.1084
       174.000
 96  4 21  2 45 29.9950000  0  7 16 06 17 26 23 22 20
  21979228.990   -23290003.79946 -18122772.59748  21979228.2074   21979234.5754
       169.000
  18993186.101   -40116793.23847 -31249668.66648  18993185.8114   18993190.5114
       218.000
  20006590.970   -33297680.04246 -25324531.41648  20006590.1464   20006595.7204
       205.000
  21392892.116   -18679368.83446 -14545429.83248  21392892.0594   21392897.3664
       178.000
  20696074.739   -22821562.25546 -17135657.75848  20696074.0264   20696080.0274
       197.000
  22610894.608    -9548599.25546  -6618244.18647  22610893.7044   22610899.5614
       153.000
  21836934.353   -23707629.73146 -18188403.22348  21836933.9054   21836940.3514
       174.000
 96  4 21  2 45 59.9950000  0  7 16 06 17 26 23 22 20
  21992297.340   -23221329.36946 -18069260.06048  21992296.5904   21992302.8924
       169.000
  18989872.040   -40134208.81147 -31263239.24448  18989871.7354   18989876.4254
       218.000
  19995190.178   -33357591.35046 -25371215.53848  19995189.3494   19995194.9244
       205.000
  21378510.945   -18754942.47246 -14604318.34148  21378510.8854   21378516.1304
       178.000
  20676877.598   -22922443.94346 -17214266.82448  20676876.8764   20676882.8424
       197.000
  22595920.936    -9627286.35646  -6679558.80447  22595920.0304   22595925.8914
       153.000
  21851163.490   -23632855.02546 -18130137.21048  21851163.0254   21851169.5034
       173.000
 96  4 21  2 46 29.9950000  0  7 16 06 17 26 23 22 20
  22005411.826   -23152412.13746 -18015558.35348  22005411.0814   22005417.3784
       169.000
  18986652.254   -40151129.03847 -31276423.83148  18986651.9444   18986656.6214
       218.000
  19983833.507   -33417270.96146 -25417719.11548  19983832.6714   19983838.2694
       205.000
  21364213.168   -18830077.88046 -14662865.36248  21364213.0634   21364218.3464
       179.000
  20657754.318   -23022937.27646 -17292573.27748  20657753.6054   20657759.5404
       198.000
  22581042.402    -9705473.48046  -6740483.82347  22581041.5214   22581047.4064
       154.000
  21865421.931   -23557926.19546 -18071751.10148  21865421.4844   21865427.9574
       172.000
 96  4 21  2 46 59.9950000  0  7 16 06 17 26 23 22 20
  22018566.020   -23083286.43646 -17961694.18048  22018565.2944   22018571.6394
       169.000
  18983522.352   -40167576.76547 -31289240.24448  18983522.0414   18983526.7124
       218.000
  19972518.702   -33476730.39846 -25464051.12848  19972517.8744   19972523.5014
       205.000
  21349993.659   -18904801.57746 -14721091.57548  21349993.5584   21349998.8544
       178.000
  20638698.987   -23123073.39846 -17370601.38348  20638698.2874   20638704.2074
       198.000
  22566256.826    -9783172.38246  -6801028.40447  22566255.9164   22566261.8374
       154.000
  21879707.533   -23482854.57146 -18013253.73048  21879707.1044   21879713.5574
       171.000
 96  4 21  2 47 29.9950000  0  7 16 06 17 26 23 22 20
  22031752.324   -23013992.12446 -17907698.62248  22031751.5964   22031757.8814
       169.000
  18980476.212   -40183584.28647 -31301713.62848  18980475.8904   18980480.5684
       218.000
  19961239.765   -33536001.58946 -25510236.44948  19961238.9424   19961244.5964
       205.000
  21335845.070   -18979152.17446 -14779027.05248  21335844.9924   21335850.3204
       178.000
  20619702.893   -23222898.22946 -17448386.92248  20619702.1874   20619708.1034
       198.000
  22551557.505    -9860417.85946  -6861219.67247  22551556.5924   22551562.6164
       154.000
  21894015.964   -23407663.09546 -17954662.95548  21894015.5484   21894021.9694
       170.000
 96  4 21  2 47 59.9950000  0  7 16 06 17 26 23 22 20
  22044972.468   -22944519.80546 -17853564.36548  22044971.7534   22044978.0354
       169.000
  18977516.254   -40199139.06147 -31313834.23148  18977515.9194   18977520.6184
       218.000
  19949999.970   -33595067.03246 -25556261.45548  19949999.1534   19950004.8224
       206.000
  21321771.677   -19053108.27746 -14836655.14648  21321771.5844   21321776.8934
       178.000
  20600767.387   -23322404.88746 -17525924.53748  20600766.6864   20600772.5774
       199.000
  22536947.134    -9937195.46146  -6921046.35947  22536946.2274   22536952.2514
       154.000
  21908349.459   -23332339.94646 -17895969.58448  21908349.0564   21908355.4684
       169.000
 96  4 21  2 48 29.9950000  0  7 16 06 17 26 23 22 20
  22058225.096   -22874876.99046 -17799297.24448  22058224.3694   22058230.6344
       169.000
  18974645.038   -40214227.40847 -31325591.38048  18974644.7174   18974649.4024
       218.000
  19938801.556   -33653915.08246 -25602117.06448  19938800.7264   19938806.4184
       206.000
  21307776.713   -19126652.10546 -14893961.97748  21307776.6334   21307781.9244
       178.000
  20581896.894   -23421569.89646 -17603195.92848  20581896.1904   20581902.0584
       199.000
  22522424.451   -10013512.94246  -6980514.50747  22522423.4514   22522429.6324
       154.000
  21922706.517   -23256893.18846 -17837179.89148  21922706.0864   21922712.4654
       169.000
 96  4 21  2 48 59.9950000  0  7 16 06 17 26 23 22 20
  22071512.810   -22805049.81746 -17744886.46848  22071512.0704   22071518.2544
       169.000
  18971866.968   -40228826.16747 -31336967.03248  18971866.6304   18971871.3534
       218.000
  19927645.319   -33712541.40346 -25647799.89448  19927644.4994   19927650.1954
       206.000
  21293865.552   -19199755.50446 -14950925.62248  21293865.4744   21293870.7494
       178.000
  20563095.814   -23520369.91646 -17680182.91548  20563095.1364   20563100.9774
       199.000
  22507991.273   -10089359.32046  -7039615.56747  22507990.2934   22507996.4644
       154.000
  21937088.917   -23181313.32146 -17778286.47248  21937088.5194   21937094.8104
       169.000
 96  4 21  2 49 29.9950000  0  7 16 06 17 26 23 22 20
  22084834.238   -22735045.26546 -17690337.48248  22084833.5584   22084839.7424
       169.000
  18969179.089   -40242950.95047 -31347973.35048  18969178.7514   18969183.4764
       218.000
  19916525.606   -33770975.68846 -25693333.08748  19916524.7974   19916530.4924
       206.000
  21280036.116   -19272429.40946 -15007554.59848  21280036.0684   21280041.3324
       179.000
  20544364.606   -23618802.89146 -17756883.89348  20544363.9334   20544369.7534
       199.000
  22493644.152   -10164753.25846  -7098364.08847  22493643.2744   22493649.3724
       154.000
  21951494.691   -23105610.63346 -17719297.35348  21951494.2174   21951500.5654
       168.000
 96  4 21  2 49 59.9950000  0  7 16 06 17 26 23 22 20
  22098198.982   -22664813.18746 -17635611.20448  22098198.2764   22098204.5124
       168.000
  18966587.794   -40256568.17147 -31358584.16548  18966587.4554   18966592.1874
       218.000
  19905448.445   -33829186.48146 -25738692.13548  19905447.6254   19905453.3044
       206.000
  21266296.654   -19344630.65746 -15063815.26948  21266296.5694   21266301.8334
       179.000
  20525711.374   -23716825.99846 -17833265.49348  20525710.6964   20525716.5284
       199.000
  22479391.048   -10239653.57046  -7156727.95747  22479390.2124   22479396.3934
       155.000
  21965928.693   -23029759.42946 -17660192.50348  21965928.2144   21965934.5424
       168.000
 96  4 21  2 50 29.9950000  0  7 16 06 17 26 23 22 20
  22111601.904   -22594380.39446 -17580728.52348  22111601.1974   22111607.4164
       168.000
  18964086.066   -40269714.60247 -31368828.13348  18964085.7474   18964090.4714
       218.000
  19894407.631   -33887206.12246 -25783902.22348  19894406.8194   19894412.4874
       206.000
  21252642.750   -19416382.25146 -15119725.56148  21252642.6724   21252647.9434
       179.000
  20507132.722   -23814457.18246 -17909341.69848  20507132.0284   20507137.8694
       200.000
  22465228.487   -10314078.42846  -7214721.33947  22465227.5474   22465233.8034
       155.000
  21980385.255   -22953789.82446 -17600995.38548  21980384.7474   21980391.0884
       167.000
 96  4 21  2 50 59.9950000  0  7 16 06 17 26 23 22 20
  22125041.532   -22523754.90046 -17525695.68348  22125040.7934   22125047.0464
       168.000
  18961670.387   -40282408.89847 -31378719.78848  18961670.0794   18961674.8034
       218.000
  19883399.057   -33945056.59646 -25828980.49948  19883398.2504   19883403.9084
       206.000
  21239071.765   -19487697.64546 -15175295.95648  21239071.7264   21239077.0354
       179.000
  20488623.710   -23911722.47646 -17985132.79748  20488623.0414   20488628.8814
       200.000
  22451155.884   -10388030.44146  -7272346.27047  22451154.9894   22451161.1944
       155.000
  21994864.074   -22877703.04146 -17541706.96948  21994863.5934   21994869.8784
       166.000
 96  4 21  2 51 29.9950000  0  7 16 06 17 26 23 22 20
  22138521.232   -22452918.63746 -17470498.59848  22138520.5014   22138526.7624
       167.000
  18959344.164   -40294633.23347 -31388245.23448  18959343.8494   18959348.5714
       218.000
  19872427.421   -34002712.76046 -25873907.35748  19872426.6154   19872432.2684
       206.000
  21225588.154   -19558554.38346 -15230508.95148  21225588.0714   21225593.4334
       179.000
  20470186.709   -24008609.30746 -18060628.98748  20470186.0054   20470191.8674
       200.000
  22437179.008   -10461479.50346  -7329579.30147  22437178.0554   22437184.2634
       156.000
  22009367.435   -22801487.22846 -17482318.01148  22009366.9024   22009373.2484
       166.000
 96  4 21  2 51 59.9950000  0  7 16 06 17 26 23 22 20
  22152038.509   -22381885.07146 -17415147.78048  22152037.7544   22152044.0234
       167.000
  18957107.105   -40306388.99247 -31397405.56048  18957106.7884   18957111.5284
       218.000
  19861494.428   -34060165.88746 -25918676.00348  19861493.6244   19861499.2864
       206.000
  21212192.905   -19628946.79746 -15285360.14248  21212192.8054   21212198.1474
       179.000
  20451820.662   -24105123.30846 -18135834.65948  20451819.9504   20451825.8174
       200.000
  22423300.102   -10534413.90146  -7386411.28747  22423299.1634   22423305.3284
       156.000
  22023891.429   -22725162.89846 -17422844.49048  22023890.9484   22023897.2844
       166.000
 96  4 21  2 52 29.9950000  0  7 16 06 17 26 23 22 20
  22165590.614   -22310668.19246 -17359654.13448  22165589.8804   22165596.1814
       166.000
  18954959.825   -40317672.97747 -31406198.27048  18954959.5254   18954964.2484
       218.000
  19850599.015   -34117421.61946 -25963290.83248  19850598.1974   19850603.8814
       206.000
  21198886.829   -19698870.53746 -15339846.12548  21198886.7364   21198892.0574
       180.000
  20433524.495   -24201269.90946 -18210754.04948  20433523.8164   20433529.6684
       201.000
  22409518.826   -10606834.65946  -7442843.02447  22409517.9944   22409524.0854
       156.000
  22038434.424   -22648738.86746 -17363293.28848  22038433.9594   22038440.2874
       166.000
 96  4 21  2 52 59.9950000  0  7 16 06 17 26 23 22 20
  22179182.161   -22239244.21846 -17303999.08948  22179181.4624   22179187.6824
       166.000
  18952906.586   -40328462.85647 -31414605.96048  18952906.2764   18952910.9794
       218.000
  19839745.765   -34174455.71946 -26007732.96048  19839744.9314   19839750.6284
       206.000
  21185673.441   -19768307.31746 -15393952.65548  21185673.3644   21185678.6624
       180.000
  20415301.896   -24297030.22346 -18285372.42948  20415301.2114   20415307.0654
       201.000
  22395838.108   -10678727.34346  -7498863.29447  22395837.2544   22395843.3944
       156.000
  22052999.148   -22572200.72246 -17303653.15448  22052998.6674   22053005.0434
       166.000
 96  4 21  2 53 29.9950000  0  7 16 06 17 26 23 22 20
  22192805.433   -22167653.44446 -17248214.09348  22192804.7714   22192810.9774
       165.000
  18950941.345   -40338790.35547 -31422653.35948  18950941.0174   18950945.7054
       218.000
  19828931.565   -34231284.51246 -26052015.11348  19828930.7274   19828936.3994
       206.000
  21172546.791   -19837288.05946 -15447703.83648  21172546.7514   21172551.9634
       180.000
  20397151.046   -24392413.59846 -18359697.09748  20397150.3574   20397156.1724
       201.000
  22382252.260   -10750121.31746  -7554494.94847  22382251.3804   22382257.5044
       157.000
  22067579.020   -22495582.76946 -17243950.84148  22067578.5344   22067584.9934
       166.000
 96  4 21  2 53 59.9950000  0  7 16 06 17 26 23 22 20
  22206458.851   -22095904.31646 -17192305.69348  22206458.1794   22206464.3654
       165.000
  18949065.298   -40348648.95947 -31430335.38348  18949064.9854   18949069.6604
       218.000
  19818156.584   -34287907.43546 -26096136.84848  19818155.7564   19818161.4024
       206.000
  21159505.187   -19905822.27046 -15501107.06348  21159505.1204   21159510.2944
       181.000
  20379074.680   -24487405.50346 -18433716.72348  20379073.9814   20379079.7624
       202.000
  22368759.434   -10821026.51346  -7609745.73247  22368758.5604   22368764.6744
       157.000
  22082174.640   -22418881.98446 -17184183.98248  22082174.2294   22082180.6774
       167.000
 96  4 21  2 54 29.9950000  0  7 16 06 17 26 23 22 20
  22220144.619   -22023985.06346 -17136264.72348  22220143.9844   22220150.1684
       165.000
  18947282.241   -40358018.99947 -31437636.70948  18947281.9204   18947286.6024
       217.000
  19807422.760   -34344314.04946 -26140090.03148  19807421.9374   19807427.5494
       206.000
  21146549.626   -19973903.85946 -15554157.59748  21146549.5594   21146554.7374
       181.000
  20361077.920   -24581979.21646 -18507410.48748  20361077.2294   20361082.9494
       202.000
  22355357.099   -10891456.35946  -7664626.10847  22355356.1994   22355362.2664
       158.000
  22096788.795   -22342084.01746 -17124341.39848  22096788.3424   22096794.7794
       167.000
 96  4 21  2 54 59.9950000  0  7 16 06 17 26 23 22 20
  22233862.565   -21951896.83446 -17080092.08248  22233861.9084   22233868.1274
       164.000
  18945594.399   -40366888.76747 -31444548.21248  18945594.0784   18945598.7494
       218.000
  19796731.772   -34400495.40546 -26183867.68648  19796730.9584   19796736.5424
       206.000
  21133681.211   -20041527.57046 -15606851.34648  21133681.1774   21133686.2844
       181.000
  20343165.799   -24676108.16446 -18580757.68348  20343165.0804   20343170.7864
       203.000
  22342045.328   -10961410.38746  -7719135.73047  22342044.4544   22342050.4164
       159.000
  22111424.327   -22265173.72046 -17064411.28048  22111423.8904   22111430.3064
       167.000
 96  4 21  2 55 29.9950000  0  7 16 06 17 26 23 22 20
  22247607.008   -21879669.43546 -17023810.99748  22247606.3234   22247612.5034
       164.000
  18944000.018   -40375267.33947 -31451076.96448  18943999.7024   18944004.3694
       218.000
  19786078.802   -34456477.11146 -26227489.77548  19786077.9934   19786083.5544
       206.000
  21120896.965   -20108709.03446 -15659200.48948  21120896.8974   21120902.0024
       181.000
  20325335.445   -24769807.19346 -18653769.88048  20325334.7044   20325340.4204
       203.000
  22328820.521   -11030907.76246  -7773289.50847  22328819.6294   22328825.5024
       159.000
  22126077.132   -22188172.61846 -17004410.40248  22126076.6564   22126083.0854
       167.000
 96  4 21  2 55 59.9950000  0  7 16 06 17 26 23 22 20
  22261376.720   -21807309.32446 -16967426.49248  22261375.9914   22261382.2124
       163.000
  18942496.811   -40383166.83847 -31457232.41348  18942496.4934   18942501.1554
       218.000
  19775458.219   -34512288.54146 -26270979.17748  19775457.4164   19775462.9584
       206.000
  21108197.136   -20175447.04546 -15711204.09048  21108197.0694   21108202.0914
       181.000
  20307580.632   -24863108.98846 -18726472.54048  20307579.9154   20307585.6474
       203.000
  22315679.521   -11099963.97046  -7827099.53047  22315678.6574   22315684.4514
       159.000
  22140742.170   -22111107.44246 -16944359.59348  22140741.6444   22140748.0904
       166.000
 96  4 21  2 56 29.9950000  0  7 16 06 17 26 23 22 20
  22275179.013   -21734777.58746 -16910908.26048  22275178.3454   22275184.5144
       163.000
  18941089.828   -40390560.52747 -31462993.72848  18941089.5074   18941094.1684
       217.000
  19764876.071   -34567898.06546 -26314311.25548  19764875.2524   19764880.7904
       206.000
  21095592.652   -20241684.13346 -15762817.35248  21095592.5454   21095597.5144
       182.000
  20289904.317   -24955998.36646 -18798853.83948  20289903.6124   20289909.3274
       203.000
  22302632.170   -11168527.93546  -7880525.98847  22302631.3204   22302637.1554
       160.000
  22155426.362   -22033941.41546 -16884230.20148  22155425.8284   22155432.2774
       166.000
 96  4 21  2 56 59.9950000  0  7 16 06 17 26 23 22 20
  22289010.751   -21662091.79646 -16854269.98948  22289010.0504   22289016.1434
       162.000
  18939772.843   -40397481.06147 -31468386.34848  18939772.5184   18939777.1914
       217.000
  19754328.865   -34623323.88846 -26357500.19248  19754328.0234   19754333.5874
       207.000
  21083082.685   -20307424.18946 -15814043.32248  21083082.5864   21083087.4944
       182.000
  20272298.172   -25048519.15346 -18870947.92748  20272297.4714   20272303.1654
       204.000
  22289679.772   -11236592.98846  -7933563.68548  22289678.9064   22289684.7904
       161.000
  22170127.126   -21956688.21646 -16824032.87848  22170126.5914   22170133.0644
       166.000
 96  4 21  2 57 29.9950000  0  8 16 06 17 26 23 22 20 21
  22302871.629   -21589252.46746 -16797512.07848  22302870.9244   22302877.0514
       161.000
  18938542.920   -40403944.28547 -31473422.62048  18938542.6204   18938547.2864
       217.000
  19743816.459   -34678566.71246 -26400546.53348  19743815.6414   19743821.2064
       207.000
  21070667.946   -20372663.74046 -15864879.28348  21070667.8604   21070672.7974
       183.000
  20254758.115   -25140692.53446 -18942771.30448  20254757.4234   20254763.1084
       204.000
  22276822.664   -11304157.93346  -7986211.67348  22276821.6974   22276827.6284
       162.000
  22184841.886   -21879361.59646 -16763778.35048  22184841.3644   22184847.8314
       166.000
  23606251.871    -5085513.08956  -3647238.11557  23606251.0524   23606258.8004
       139.000
 96  4 21  2 57 59.9950000  0  8 16 06 17 26 23 22 20 21
  22316769.200   -21516220.24346 -16740603.85447  22316768.5024   22316774.5814
       160.000
  18937409.194   -40409901.92247 -31478064.92848  18937408.8854   18937413.5354
       217.000
  19733348.724   -34733574.97946 -26443410.10648  19733347.9084   19733353.4714
       207.000
  21058358.031   -20437352.44246 -15915286.01748  21058357.9524   21058362.8964
       183.000
  20237291.689   -25232479.10646 -19014293.27548  20237291.0154   20237296.6674
       204.000
  22264069.369   -11371177.02546  -8038434.33648  22264068.3764   22264074.3254
       163.000
  22199578.504   -21801920.18746 -16703434.37548  22199577.9724   22199584.3844
       166.000
  23582808.481    -5208708.51946  -3743234.37247  23582807.6324   23582815.2884
       140.000
 96  4 21  2 58 29.9950000  0  8 16 06 17 26 23 22 20 21
  22330692.115   -21443054.61746 -16683591.68647  22330691.3744   22330697.4254
       160.000
  18936363.394   -40415397.67747 -31482347.32748  18936363.0794   18936367.7444
       217.000
  19722919.633   -34788380.25946 -26486115.50148  19722918.8274   19722924.3654
       207.000
  21046142.887   -20501543.40246 -15965304.89048  21046142.8094   21046147.7564
       183.000
  20219894.036   -25323904.40546 -19085533.73348  20219893.3694   20219898.9774
       205.000
  22251409.986   -11437702.88646  -8090272.65748  22251408.9404   22251414.8714
       163.000
  22214326.996   -21724416.55146 -16643041.91148  22214326.4924   22214332.9074
       165.000
  23559384.988    -5331799.08246  -3839148.91347  23559384.3384   23559391.9154
       140.000
 96  4 21  2 58 59.9950000  0  8 16 06 17 26 23 22 20 21
  22344642.579   -21369744.48246 -16626466.91147  22344641.8374   22344647.8824
       159.000
  18935410.655   -40420404.37447 -31486248.64448  18935410.3284   18935415.0004
       217.000
  19712534.790   -34842953.04746 -26528639.73848  19712533.9674   19712539.4914
       208.000
  21034024.321   -20565226.85946 -16014928.31648  21034024.2184   21034029.1504
       183.000
  20202571.971   -25414932.52446 -19156464.70448  20202571.2914   20202576.8644
       205.000
  22238846.087   -11503726.55546  -8141719.66448  22238845.0474   22238850.9784
       163.000
  22229088.147   -21646846.06346 -16582597.36148  22229087.6934   22229094.0574
       165.000
  23535990.505    -5454737.25746  -3934944.71847  23535989.7944   23535997.3424
       140.000
 96  4 21  2 59 29.9950000  0  8 16 06 17 26 23 22 20 21
  22358618.077   -21296302.91346 -16569239.71347  22358617.3714   22358623.3714
       159.000
  18934552.682   -40424912.80947 -31489761.70148  18934552.3624   18934557.0664
       217.000
  19702193.121   -34897298.85146 -26570987.10448  19702192.3064   19702197.8024
       208.000
  21021998.105   -20628424.79746 -16064173.42348  21021997.9944   21022002.9164
       182.000
  20185327.226   -25505554.24846 -19227079.00148  20185326.5294   20185332.0774
       205.000
  22226375.429   -11569259.85046  -8192784.57148  22226374.4514   22226380.4574
       163.000
  22243857.314   -21569233.32146 -16522119.87848  22243856.8684   22243863.1964
       164.000
  23512623.573    -5577530.43646  -4030627.54247  23512622.8704   23512630.4074
       140.000
 96  4 21  2 59 59.9950000  0  8 16 06 17 26 23 22 20 21
  22372619.018   -21222727.48846 -16511908.22347  22372618.3294   22372624.2894
       159.000
  18933792.647   -40428906.77747 -31492873.87248  18933792.3384   18933797.0694
       217.000
  19691895.673   -34951412.31546 -26613153.42348  19691894.8554   19691900.3274
       208.000
  21010064.581   -20691135.40246 -16113038.78448  21010064.4954   21010069.4034
       182.000
  20168163.597   -25595749.74246 -19297361.17248  20168162.8914   20168168.4334
       205.000
  22214001.345   -11634285.91446  -8243454.21848  22214000.3384   22214006.4224
       163.000
  22258634.156   -21491580.55646 -16461611.20648  22258633.7194   22258640.0284
       164.000
  23489282.181    -5700189.35746  -4126205.75247  23489281.4494   23489289.0924
       141.000
 96  4 21  3  0 29.9950000  0  8 16 06 17 26 23 22 20 21
  22386643.854   -21149026.53246 -16454478.91747  22386643.1694   22386649.1744
       159.000
  18933126.314   -40432408.30447 -31495602.32848  18933126.0104   18933130.7664
       217.000
  19681638.613   -35005313.55846 -26655154.38448  19681637.7964   19681643.2414
       208.000
  20998221.955   -20753368.37046 -16161531.96148  20998221.8644   20998226.8254
       183.000
  20151077.668   -25685536.76846 -19367325.05648  20151076.9804   20151082.5104
       205.000
  22201724.211   -11698802.55746  -8293726.92648  22201723.2674   22201729.3074
       163.000
  22273417.286   -21413894.57146 -16401076.65148  22273416.8644   22273423.1104
       164.000
  23465965.156    -5822720.71546  -4221684.58247  23465964.5314   23465972.0534
       142.000
 96  4 21  3  0 59.9950000  0  8 16 06 17 26 23 22 20 21
  22400691.293   -21075206.92746 -16396957.13947  22400690.5644   22400696.5124
       159.000
  18932550.635   -40435433.52647 -31497959.63948  18932550.3184   18932555.0584
       217.000
  19671416.986   -35059028.38046 -26697010.06948  19671416.1624   19671421.5984
       208.000
  20986467.015   -20815140.75846 -16209666.25448  20986466.9424   20986471.9334
       183.000
  20134064.338   -25774942.13746 -19436991.53848  20134063.6384   20134069.1704
       206.000
  22189543.254   -11762813.60746  -8343605.65148  22189542.3504   22189548.4384
       163.000
  22288206.417   -21336177.05846 -16340517.53048  22288206.0064   22288212.1884
       164.000
  23442672.977    -5945121.22146  -4317061.44447  23442672.3164   23442679.9164
       142.000
 96  4 21  3  1 29.9950000  0  8 16 06 17 26 23 22 20 21
  22414764.708   -21001250.72246 -16339328.94547  22414763.9224   22414769.9074
       159.000
  18932068.223   -40437968.57447 -31499934.98848  18932067.9024   18932072.6544
       217.000
  19661231.362   -35112554.13046 -26738718.43148  19661230.5344   19661235.9894
       208.000
  20974803.419   -20876433.36846 -16257426.69048  20974803.3564   20974808.3134
       184.000
  20117125.757   -25863954.76746 -19506351.99748  20117125.0444   20117130.5984
       206.000
  22177463.683   -11826292.32346  -8393069.58348  22177462.7624   22177468.8204
       163.000
  22303006.920   -21258399.86946 -16279911.89948  22303006.4704   22303012.6434
       163.000
  23419407.218    -6067383.37946  -4412330.51547  23419406.5534   23419413.9564
       143.000
 96  4 21  3  1 59.9950000  0  8 16 06 17 26 23 22 20 21
  22428865.626   -20927150.00246 -16281588.12647  22428864.9004   22428870.8724
       159.000
  18931679.995   -40440008.62747 -31501524.63348  18931679.6814   18931684.4604
       217.000
  19651082.003   -35165889.24046 -26780278.24748  19651081.1804   19651086.6424
       208.000
  20963235.829   -20937221.32946 -16304793.90048  20963235.7644   20963240.7284
       184.000
  20100261.338   -25952577.56946 -19575408.69348  20100260.6394   20100266.1874
       206.000
  22165485.199   -11889239.61446  -8442119.40548  22165484.2644   22165490.3364
       163.000
  22317821.742   -21180547.32846 -16219247.55748  22317821.2544   22317827.3534
       162.000
  23396171.881    -6189485.21246  -4507474.66747  23396171.1984   23396178.5284
       143.000
 96  4 21  3  2 29.9950000  0  8 16 06 17 26 23 22 20 21
  22442988.000   -20852936.48146 -16223759.40847  22442987.2834   22442993.2294
       158.000
  18931377.465   -40441598.30947 -31502763.33248  18931377.1504   18931381.9234
       217.000
  19640961.640   -35219072.01946 -26821719.35448  19640960.7964   19640966.3044
       208.000
  20951756.025   -20997547.95946 -16351801.63748  20951755.9524   20951760.9944
       184.000
  20083463.200   -26040852.07646 -19644193.98848  20083462.5084   20083468.0554
       206.000
  22153598.172   -11951706.17346  -8490794.63348  22153597.2144   22153603.3144
       163.000
  22332644.824   -21102651.25846 -16158549.29247  22332644.3424   22332650.4604
       160.000
  23372961.744    -6311454.89846  -4602515.85547  23372960.9764   23372968.4274
       143.000
 96  4 21  3  2 59.9950000  0  8 16 06 17 26 23 22 20 21
  22457137.767   -20778578.87246 -16165818.42847  22457137.1774   22457142.9994
       158.000
  18931166.569   -40442706.54547 -31503626.88548  18931166.2664   18931171.0284
       217.000
  19630876.797   -35272067.95846 -26863014.87548  19630875.9584   19630881.5144
       208.000
  20940367.160   -21057396.26146 -16398436.64848  20940367.0964   20940372.1764
       184.000
  20066738.424   -26128741.24446 -19712679.02148  20066737.7374   20066743.2634
       206.000
  22141805.667   -12013676.18546  -8539082.93448  22141804.7184   22141810.7484
       163.000
  22347477.301   -21024705.81746 -16097812.56047  22347476.7744   22347482.9484
       159.000
  23349779.094    -6433279.55646  -4697444.04747  23349778.4954   23349785.7904
       144.000
 96  4 21  3  3 29.9950000  0  8 16 06 17 26 23 22 20 21
  22471318.814   -20704057.23646 -16107749.61447  22471318.1314   22471324.0404
       158.000
  18931048.939   -40443324.73447 -31504108.58148  18931048.6284   18931053.3894
       217.000
  19620828.126   -35324874.04446 -26904162.46048  19620827.2744   19620832.8644
       208.000
  20929073.475   -21116744.66246 -16444682.11648  20929073.4344   20929078.5824
       184.000
  20050088.740   -26216235.86746 -19780856.61348  20050088.0534   20050093.5654
       207.000
  22130109.723   -12075139.13346  -8586976.11548  22130108.7944   22130114.7224
       163.000
  22362317.788   -20946718.01746 -16037042.81847  22362317.2804   22362323.4584
       158.000
  23326624.278    -6554958.51546  -4792258.70447  23326623.7554   23326630.9414
       144.000
 96  4 21  3  3 59.9950000  0  8 16 06 17 26 23 22 20 21
  22485531.816   -20629367.45646 -16049549.79747  22485531.1014   22485537.0094
       157.000
  18931027.050   -40443439.63347 -31504198.10448  18931026.7534   18931031.5384
       217.000
  19610818.401   -35377475.09146 -26945150.26948  19610817.5744   19610823.1654
       208.000
  20917876.771   -21175583.61146 -16490530.61348  20917876.7254   20917881.8944
       184.000
  20033519.682   -26303306.53646 -19848703.85048  20033518.9834   20033524.4934
       207.000
  22118511.606   -12136087.84446  -8634468.60048  22118510.6934   22118516.5734
       163.000
  22377165.671   -20868691.82846 -15976243.16847  22377165.2114   22377171.2994
       156.000
  23303500.582    -6676473.56946  -4886945.65047  23303500.0634   23303507.2764
       144.000
 96  4 21  3  4 29.9950000  0  8 16 06 17 26 23 22 20 21
  22499769.484   -20554547.67246 -15991248.67147  22499768.7644   22499774.7444
       158.000
  18931095.860   -40443077.87746 -31503916.20648  18931095.5654   18931100.3854
       216.000
  19600842.821   -35429896.96246 -26985998.46348  19600841.9904   19600847.5914
       208.000
  20906771.498   -21233941.76646 -16536004.46648  20906771.4644   20906776.6174
       184.000
  20017029.130   -26389964.80346 -19916229.73448  20017028.4304   20017033.9524
       207.000
  22107009.350   -12196532.43246  -8681568.25448  22107008.4474   22107014.3054
       163.000
  22392014.170   -20790662.24546 -15915440.87147  22392013.7714   22392019.8394
       155.000
  23280401.093    -6797862.12046  -4981534.02747  23280400.5054   23280407.6144
       144.000
 96  4 21  3  4 59.9950000  0  8 16 06 17 26 23 22 20 21
  22514033.133   -20479591.67246 -15932841.39947  22514032.3804   22514038.4584
       158.000
  18931262.972   -40442199.69646 -31503231.90148  18931262.6604   18931267.4634
       216.000
  19590906.489   -35482112.78846 -27026686.10248  19590905.6484   19590911.2294
       208.000
  20895766.834   -21291771.27946 -16581066.39548  20895766.8024   20895771.9534
       184.000
  20000621.962   -26476185.07446 -19983414.32148  20000621.2684   20000626.7774
       207.000
  22095610.014   -12256436.15546  -8728246.45148  22095609.0484   22095615.0274
       163.000
  22406866.742   -20712611.23346 -15854621.86347  22406866.3294   22406872.4374
       155.000
  23257331.600    -6919092.43846  -5075999.08947  23257330.9554   23257337.9724
       145.000
 96  4 21  3  5 29.9950000  0  8 16 06 17 26 23 22 20 21
  22528313.957   -20404545.48146 -15874363.85247  22528313.2144   22528319.3194
       157.000
  18931526.015   -40440817.42746 -31502154.80248  18931525.6984   18931530.4944
       216.000
  19581004.653   -35534147.18746 -27067232.37048  19581003.8034   19581009.3814
       208.000
  20884861.418   -21349079.72346 -16625722.28648  20884861.3814   20884866.4704
       184.000
  19984294.088   -26561988.66846 -20050274.22748  19984293.3824   19984298.8494
       207.000
  22084310.660   -12315814.25246  -8774515.07348  22084309.7514   22084315.7214
       163.000
  22421722.805   -20634541.53646 -15793788.31347  22421722.3744   22421728.5264
       154.000
  23234291.333    -7040169.49546  -5170344.75047  23234290.6064   23234297.8404
       145.000
 96  4 21  3  5 59.9950000  0  8 16 06 17 26 23 22 20 21
  22542602.773   -20329457.09546 -15815853.41947  22542602.0514   22542608.1794
       157.000
  18931882.282   -40438945.30046 -31500695.99548  18931881.9514   18931886.7274
       216.000
  19571136.388   -35586005.11246 -27107641.12848  19571135.5754   19571141.1174
       208.000
  20874049.211   -21405898.34346 -16669996.50248  20874049.1764   20874054.1664
       184.000
  19968043.391   -26647386.54346 -20116817.99048  19968042.6824   19968048.1244
       207.000
  22073105.345   -12374698.56446  -8820398.92348  22073104.4384   22073110.4064
       163.000
  22436580.321   -20556464.63146 -15732949.13247  22436579.8794   22436586.1154
       154.000
  23211274.840    -7161121.25946  -5264592.77347  23211274.1904   23211281.3714
       145.000
 96  4 21  3  6 29.9950000  0  8 16 06 17 26 23 22 20 21
  22556907.463   -20254285.38346 -15757278.05947  22556906.7584   22556912.8624
       157.000
  18932336.998   -40436555.80646 -31498834.03848  18932336.6564   18932341.4014
       216.000
  19561307.983   -35637653.76846 -27147886.81748  19561307.1694   19561312.7064
       209.000
  20863337.601   -21462188.24346 -16713858.72448  20863337.5524   20863342.4594
       184.000
  19951871.986   -26732367.43746 -20183036.83048  19951871.2874   19951876.7074
       207.000
  22061998.315   -12433066.30546  -8865880.25848  22061997.4174   22062003.3794
       164.000
  22451444.967   -20478350.28846 -15672080.79547  22451444.4794   22451450.7694
       154.000
  23188284.997    -7281932.99046  -5358731.68647  23188284.2254   23188291.5704
       145.000
 96  4 21  3  6 59.9950000  0  8 16 06 17 26 23 22 20 21
  22571228.691   -20179026.72946 -15698634.94447  22571228.0044   22571234.0874
       156.000
  18932885.049   -40433675.56146 -31496589.67748  18932884.7074   18932889.4624
       216.000
  19551517.437   -35689103.62346 -27187977.58948  19551516.6174   19551522.1454
       209.000
  20852724.598   -21517959.71246 -16757316.96848  20852724.5794   20852729.4184
       184.000
  19935776.758   -26816948.21046 -20248943.88848  19935776.0694   19935781.4694
       207.000
  22050984.957   -12490941.87746  -8910978.08648  22050984.0424   22050989.9874
       163.000
  22466314.380   -20400210.67546 -15611192.74647  22466313.9254   22466320.1584
       155.000
  23165319.588    -7402616.66946  -5452770.83147  23165318.8834   23165326.0554
       145.000
 96  4 21  3  7 29.9950000  0  8 16 06 17 26 23 22 20 21
  22585571.154   -20103656.59646 -15639904.95047  22585570.4954   22585576.5444
       156.000
  18933524.290   -40430316.12846 -31493971.92648  18933523.9444   18933528.7044
       216.000
  19541764.351   -35740356.31146 -27227914.73148  19541763.5294   19541769.0314
       209.000
  20842209.583   -21573216.41146 -16800374.09548  20842209.5784   20842214.3904
       185.000
  19919759.516   -26901119.20746 -20314531.63748  19919758.8184   19919764.1964
       208.000
  22040063.147   -12548336.20846  -8955700.91248  22040062.2134   22040068.2034
       163.000
  22481189.773   -20322039.88346 -15550280.40247  22481189.2674   22481195.5894
       154.000
  23142378.851    -7523170.64746  -5546708.89947  23142378.1754   23142385.3934
       145.000
 96  4 21  3  7 59.9950000  0  8 16 06 17 26 23 22 20 21
  22599938.322   -20028156.50346 -15581073.70047  22599937.6094   22599943.7534
       155.000
  18934252.048   -40426491.51246 -31490991.70148  18934251.7404   18934256.4894
       216.000
  19532049.311   -35791409.34146 -27267696.29748  19532048.4844   19532053.9954
       209.000
  20831792.897   -21627956.62846 -16843028.77548  20831792.8604   20831797.6274
       184.000
  19903820.129   -26984881.24146 -20379800.71648  19903819.4134   19903824.7664
       208.000
  22029231.463   -12605256.67446  -9000054.49748  22029230.4814   22029236.5284
       163.000
  22496066.818   -20243860.31346 -15489361.22947  22496066.2784   22496072.6364
       155.000
  23119460.084    -7643609.21546  -5640557.05247  23119459.5014   23119466.5214
       146.000
 96  4 21  3  8 29.9950000  0  8 16 06 17 26 23 22 20 21
  22614334.852   -19952502.12246 -15522122.21647  22614334.1434   22614340.3344
       155.000
  18935070.361   -40422191.26646 -31487640.84948  18935070.0344   18935074.7734
       216.000
  19522372.424   -35842261.78146 -27307321.55148  19522371.5834   19522377.0754
       209.000
  20821478.900   -21682156.80146 -16885262.63148  20821478.8404   20821483.5444
       184.000
  19887958.725   -27068233.39446 -20444750.40948  19887958.0334   19887963.3434
       208.000
  22018496.433   -12661669.71146  -9044012.69048  22018495.4234   22018501.4514
       163.000
  22510943.352   -20165683.55046 -15428444.23447  22510942.8384   22510949.1444
       155.000
  23096569.124    -7763901.58746  -5734291.28747  23096568.6484   23096575.5144
       146.000
 96  4 21  3  8 59.9950000  0  8 16 06 17 26 23 22 20 21
  22628760.548   -19876694.54846 -15463051.38647  22628759.8754   22628766.0714
       155.000
  18935982.561   -40417397.66746 -31483905.57148  18935982.2224   18935986.9624
       216.000
  19512737.002   -35892896.15546 -27346776.88548  19512736.1644   19512741.6434
       209.000
  20811269.458   -21735807.47246 -16927068.30848  20811269.3684   20811274.1004
       185.000
  19872178.287   -27151160.03046 -20509368.52548  19872177.5784   19872182.8834
       208.000
  22007862.512   -12717551.05746  -9087556.56548  22007861.5544   22007867.4924
       163.000
  22525823.129   -20087489.89646 -15367514.06847  22525822.6174   22525828.8614
       156.000
  23073710.477    -7884024.32946  -5827893.32747  23073709.9034   23073716.7944
       147.000
 96  4 21  3  9 29.9940000  0  8 16 06 17 26 23 22 20 21
  22643203.274   -19800797.38746 -15403910.73047  22643202.5774   22643208.7674
       154.000
  18936983.187   -40412139.37646 -31479808.18948  18936982.8704   18936987.5814
       216.000
  19503135.785   -35943350.41746 -27386091.87448  19503134.9614   19503140.4384
       209.000
  20801154.574   -21788961.31246 -16968486.84348  20801154.5104   20801159.2464
       185.000
  19856471.391   -27233700.24346 -20573685.53448  19856470.6614   19856475.9624
       208.000
  21997323.874   -12772931.98846  -9130710.51648  21997322.8814   21997328.8354
       163.000
  22540697.525   -20009324.54146 -15306605.96647  22540697.0004   22540703.2414
       156.000
  23050876.286    -8004018.46346  -5921395.16547  23050875.6924   23050882.5114
       147.000
 96  4 21  3  9 59.9940000  0  8 16 06 17 26 23 22 20 21
  22657665.465   -19724798.04346 -15344690.46147  22657664.8044   22657670.9254
       154.000
  18938078.801   -40406381.70446 -31475321.68748  18938078.4814   18938083.2224
       216.000
  19493574.859   -35993593.24446 -27425242.11248  19493574.0694   19493579.5034
       209.000
  20791137.869   -21841599.11746 -17009503.28048  20791137.7954   20791142.5464
       185.000
  19840839.701   -27315845.16346 -20637694.52848  19840838.9734   19840844.2674
       209.000
  21986889.192   -12827766.54546  -9173438.71748  21986888.2144   21986894.0924
       162.000
  22555569.861   -19931169.93446 -15245706.23947  22555569.3444   22555575.5084
       156.000
  23028069.946    -8123866.02646  -6014782.77547  23028069.3894   23028076.2114
       147.000
 96  4 21  3 10 29.9940000  0  8 16 06 17 26 23 22 20 21
  22672141.071   -19648728.20646 -15285415.24147  22672140.3944   22672146.5094
       154.000
  18939269.009   -40400127.14346 -31470447.99148  18939268.6674   18939273.4274
       215.000
  19484051.703   -36043637.81546 -27464237.86148  19484050.8824   19484056.3004
       209.000
  20781217.241   -21893732.15946 -17050126.38648  20781217.1734   20781221.9444
       185.000
  19825282.137   -27397600.24946 -20701399.74848  19825281.4334   19825286.7434
       209.000
  21976558.661   -12882053.69846  -9215740.37548  21976557.7064   21976563.5644
       162.000
  22570439.446   -19853029.59846 -15184817.63347  22570439.0304   22570445.0654
       156.000
  23005291.731    -8243565.68546  -6108055.13947  23005291.1394   23005298.0734
       148.000
 96  4 21  3 10 59.9940000  0  8 16 06 17 26 23 22 20 21
  22686631.457   -19572580.73446 -15226079.54547  22686630.8424   22686636.8984
       154.000
  18940556.424   -40393361.51746 -31465176.06148  18940556.0964   18940560.8784
       215.000
  19474571.394   -36093457.14546 -27503058.09748  19474570.5654   19474575.9974
       209.000
  20771396.567   -21945339.91346 -17090340.18748  20771396.4824   20771401.3174
       184.000
  19809804.839   -27478933.86146 -20764776.55448  19809804.1384   19809809.4404
       209.000
  21966333.957   -12935785.10646  -9257608.98948  21966332.9744   21966338.7874
       162.000
  22585313.846   -19774864.03046 -15123909.37247  22585313.4334   22585319.4024
       156.000
  22982543.373    -8363108.23346  -6201205.07147  22982542.8264   22982549.6994
       149.000
 96  4 21  3 11 29.9940000  0  8 16 06 17 26 23 22 20 21
  22701135.141   -19496363.30646 -15166689.33947  22701134.4824   22701140.5234
       154.000
  18941941.651   -40386081.90146 -31459503.62248  18941941.3274   18941946.1114
       215.000
  19465132.031   -36143061.17946 -27541710.57048  19465131.2104   19465136.6444
       210.000
  20761677.424   -21996414.32446 -17130138.39048  20761677.3504   20761682.1654
       185.000
  19794408.683   -27559840.90746 -20827820.96748  19794407.9964   19794413.3194
       209.000
  21956213.870   -12988966.09846  -9299048.70348  21956212.8914   21956218.6184
       162.000
  22600189.773   -19696690.61546 -15062994.98847  22600189.3154   22600195.2924
       155.000
  22959825.963    -8482488.54546  -6294228.58647  22959825.3944   22959832.1594
       148.000
 96  4 21  3 11 59.9940000  0  8 16 06 17 26 23 22 20 21
  22715656.489   -19420053.01246 -15107226.77647  22715655.9094   22715661.9004
       153.000
  18943427.608   -40378273.27946 -31453418.97948  18943427.2884   18943432.0704
       216.000
  19455734.039   -36192447.85346 -27580193.67448  19455733.2264   19455738.6254
       210.000
  20752066.264   -22046921.12646 -17169494.30548  20752066.2034   20752070.9864
       185.000
  19779096.522   -27640306.71646 -20890521.56548  19779095.8374   19779101.1584
       210.000
  21946200.860   -13041584.66346  -9340050.17748  21946199.9424   21946205.5674
       161.000
  22615069.402   -19618497.49546 -15002065.26347  22615068.9644   22615074.8924
       155.000
  22937143.959    -8601683.20446  -6387107.44747  22937143.3264   22937150.0984
       149.000
 96  4 21  3 12 29.9940000  0  8 16 06 17 26 23 22 20 21
  22730194.592   -19343655.04046 -15047695.87747  22730193.9344   22730199.8844
       153.000
  18945012.322   -40369945.59846 -31446929.86848  18945012.0014   18945016.7744
       216.000
  19446375.002   -36241630.05146 -27618517.44648  19446374.1754   19446379.5754
       210.000
  20742563.990   -22096855.92146 -17208404.49748  20742563.9324   20742568.6494
       185.000
  19763870.706   -27720318.84746 -20952868.64548  19763870.0174   19763875.3294
       210.000
  21936291.002   -13093661.13346  -9380629.21748  21936290.0634   21936295.7694
       162.000
  22629955.313   -19540271.29646 -14941109.75947  22629954.9284   22629960.8244
       154.000
  22914497.898    -8720688.87546  -6479839.05347  22914497.3034   22914504.0144
       149.000
 96  4 21  3 12 59.9940000  0  8 16 06 17 26 23 22 20 21
  22744741.650   -19267209.61546 -14988128.00847  22744740.9834   22744746.9674
       153.000
  18946684.674   -40361157.23346 -31440081.77748  18946684.3534   18946689.1184
       215.000
  19437042.664   -36290671.77046 -27656731.75648  19437041.8264   19437047.2184
       210.000
  20733162.513   -22146260.87846 -17246901.82848  20733162.4404   20733167.1524
       185.000
  19748720.584   -27799933.26046 -21014905.81348  19748719.8864   19748725.2024
       210.000
  21926472.177   -13145259.07146  -9420835.38748  21926471.2304   21926476.9404
       162.000
  22644835.284   -19462076.19146 -14880178.48047  22644834.9174   22644840.8424
       154.000
  22891878.250    -8839555.62546  -6572462.40147  22891877.6734   22891884.3744
       150.000
 96  4 21  3 13 29.9940000  0  8 16 06 17 26 23 22 20 21
  22759302.040   -19190694.50446 -14928505.84047  22759301.2434   22759307.3384
       153.000
  18948447.156   -40351895.31846 -31432864.69248  18948446.8334   18948451.5904
       215.000
  19427736.579   -36339575.53646 -27694838.57248  19427735.7584   19427741.1454
       210.000
  20723865.470   -22195117.00346 -17284971.50748  20723865.4464   20723870.1414
       185.000
  19733648.312   -27879138.59946 -21076624.21948  19733647.6104   19733652.9014
       211.000
  21916748.117   -13196359.24146  -9460653.68448  21916747.1914   21916752.8784
       162.000
  22659710.539   -19383906.04746 -14819266.65447  22659710.1504   22659716.0104
       153.000
  22869288.680    -8958264.47546  -6664962.71447  22869288.0514   22869294.8604
       151.000
 96  4 21  3 13 59.9940000  0  8 16 06 17 26 23 22 20 21
  22773880.656   -19114083.46746 -14868808.89747  22773879.8614   22773885.9964
       152.000
  18950302.369   -40342146.12546 -31425267.90248  18950302.0394   18950306.7974
       215.000
  19418460.161   -36388323.17146 -27732823.72248  19418459.3404   19418464.7394
       210.000
  20714676.053   -22243407.59146 -17322600.49748  20714676.0284   20714680.7064
       185.000
  19718657.348   -27957916.62246 -21138009.65248  19718656.6584   19718661.9164
       211.000
  21907122.932   -13246940.12946  -9500067.34948  21907121.9454   21907127.6934
       162.000
  22674585.687   -19305736.53846 -14758355.31247  22674585.2814   22674591.0494
       151.000
  22846732.496    -9076797.59746  -6757326.10547  22846731.8474   22846738.6434
       151.000
 96  4 21  3 14 29.9940000  0  8 16 06 17 26 23 22 20 21
  22788477.898   -19037374.57046 -14809035.73647  22788477.0664   22788483.2144
       152.000
  18952252.709   -40331896.97546 -31417281.54348  18952252.3894   18952257.1344
       215.000
  19409215.768   -36436902.60346 -27770677.80848  19409214.9604   19409220.3974
       210.000
  20705594.697   -22291130.33946 -17359787.02148  20705594.6454   20705599.3274
       186.000
  19703750.387   -28036253.01246 -21199050.95948  19703749.6884   19703754.9424
       211.000
  21897598.785   -13296989.73046  -9539067.03648  21897597.8284   21897603.5714
       163.000
  22689461.363   -19227563.85046 -14697441.50947  22689460.9434   22689466.6974
       150.000
  22824210.449    -9195151.17346  -6849549.58447  22824209.7694   22824216.6164
       150.000
 96  4 21  3 14 59.9940000  0  8 16 06 17 26 23 22 20 21
  22803088.100   -18960597.23846 -14749209.21847  22803087.3714   22803093.4594
       151.000
  18954294.521   -40321167.30346 -31408920.75248  18954294.2054   18954298.9164
       215.000
  19399999.549   -36485334.12246 -27808416.63848  19399998.7304   19400004.1724
       210.000
  20696616.245   -22338312.21146 -17396552.08048  20696616.2014   20696620.8864
       186.000
  19688920.333   -28114185.19046 -21259777.29548  19688919.6254   19688924.8964
       211.000
  21888170.347   -13346536.52646  -9577674.91848  21888169.3564   21888175.1454
       163.000
  22704327.370   -19149442.10646 -14636567.39847  22704327.0614   22704332.7384
       149.000
  22801716.656    -9313356.48146  -6941657.54747  22801716.0704   22801722.7994
       150.000
 96  4 21  3 15 29.9940000  0  8 16 06 17 26 23 22 20 21
  22817710.286   -18883756.76846 -14689333.53847  22817709.6684   22817715.6014
       151.000
  18956432.205   -40309933.81946 -31400167.37648  18956431.8854   18956436.5534
       215.000
  19390820.445   -36533570.68646 -27846003.55148  19390819.6154   19390825.0504
       210.000
  20687739.887   -22384957.83146 -17432899.27848  20687739.7964   20687744.5064
       186.000
  19674171.806   -28191688.92146 -21320169.78048  19674171.1154   19674176.4134
       210.000
  21878841.378   -13395560.40746  -9615875.32948  21878840.4544   21878846.2124
       164.000
  22719185.498   -19071361.99046 -14575725.72047  22719185.1254   22719190.8594
       148.000
  22779254.566    -9431394.99146  -7033635.52247  22779253.9814   22779260.7044
       150.000
 96  4 21  3 15 59.9940000  0  8 16 06 17 26 23 22 20 21
  22832339.118   -18806881.50746 -14629430.72547  22832338.4014   22832344.4204
       150.000
  18958663.877   -40298206.32446 -31391029.05348  18958663.5304   18958668.1934
       215.000
  19381677.005   -36581619.71646 -27883444.33648  19381676.1754   19381681.5884
       210.000
  20678959.542   -22431098.60646 -17468853.09148  20678959.4544   20678964.1734
       186.000
  19659499.895   -28268789.98046 -21380248.48848  19659499.1924   19659504.5234
       210.000
  21869605.442   -13444095.87046  -9653695.15848  21869604.5284   21869610.2144
       165.000
  22734027.367   -18993367.22746 -14514950.54847  22734026.9304   22734032.8324
       148.000
  22756821.054    -9549283.63046  -7125496.72347  22756820.4914   22756827.0304
       150.000
 96  4 21  3 16 29.9940000  0  8 16 06 17 26 23 22 20 21
  22846976.338   -18729962.06946 -14569493.48847  22846975.6784   22846981.6264
       150.000
  18960992.438   -40285969.53346 -31381493.88048  18960992.0984   18960996.7344
       215.000
  19372575.176   -36629450.16846 -27920714.80448  19372574.3364   19372579.7464
       210.000
  20670277.940   -22476720.63146 -17504402.68848  20670277.8554   20670282.5134
       186.000
  19644905.748   -28345482.31046 -21440008.70948  19644905.0454   19644910.4014
       211.000
  21860463.134   -13492138.89546  -9691131.27048  21860462.2364   21860467.9384
       165.000
  22748853.877   -18915453.43546 -14454238.48647  22748853.3574   22748859.3504
       148.000
  22734419.913    -9667001.96546  -7217225.21547  22734419.3694   22734425.9884
       150.000
 96  4 21  3 16 59.9940000  0  8 16 06 17 26 23 22 20 21
  22861619.293   -18653012.74946 -14509532.96747  22861618.6624   22861624.6804
       149.000
  18963413.620   -40273245.97046 -31371579.40248  18963413.2824   18963417.9314
       215.000
  19363514.541   -36677063.83446 -27957816.34548  19363513.6994   19363519.1144
       210.000
  20661691.866   -22521840.56046 -17539561.04248  20661691.7784   20661696.4284
       186.000
  19630385.678   -28421785.44846 -21499465.66148  19630384.9874   19630390.3784
       211.000
  21851410.924   -13539708.52446  -9728198.49848  21851409.9944   21851415.7834
       165.000
  22763662.961   -18837631.06246 -14393597.65047  22763662.5344   22763668.4344
       148.000
  22712052.650    -9784542.53646  -7308815.20347  22712052.0744   22712058.5964
       151.000
 96  4 21  3 17 29.9940000  0  8 16 06 17 26 23 22 20 21
  22876280.356   -18575967.99946 -14449498.09747  22876279.7304   22876285.8654
       149.000
  18965936.676   -40259987.07246 -31361247.78248  18965936.3464   18965941.0064
       215.000
  19354505.972   -36724404.05346 -27994704.80848  19354505.1354   19354510.5434
       210.000
  20653212.701   -22566398.77046 -17574281.69148  20653212.6094   20653217.2634
       186.000
  19615950.466   -28497642.76946 -21558575.22848  19615949.7914   19615955.1664
       211.000
  21842463.329   -13586728.41146  -9764837.35648  21842462.3484   21842468.1774
       165.000
  22778469.699   -18759821.02346 -14332966.44247  22778469.3144   22778475.1954
       149.000
  22689732.704    -9901834.52646  -7400211.48247  22689732.1164   22689738.6804
       151.000
 96  4 21  3 17 59.9940000  0  8 16 06 17 26 23 22 20 21
  22890952.088   -18498867.87446 -14389420.06847  22890951.3154   22890957.4934
       149.000
  18968547.025   -40246269.71546 -31350558.92048  18968546.6884   18968551.3664
       215.000
  19345533.464   -36771554.65646 -28031445.52148  19345532.6374   19345538.0324
       210.000
  20644831.615   -22610441.62646 -17608600.76448  20644831.4914   20644836.1894
       187.000
  19601585.778   -28573129.63946 -21617396.13548  19601585.1054   19601590.4474
       212.000
  21833609.352   -13633256.08346  -9801092.68048  21833608.3874   21833614.2184
       165.000
  22793266.642   -18682062.66346 -14272375.48547  22793266.2504   22793272.1864
       149.000
  22667447.764   -10018942.55346  -7491464.41847  22667447.0934   22667453.6344
       151.000
 96  4 21  3 18 29.9940000  0  8 16 06 17 26 23 22 20 21
  22905638.690   -18421689.09746 -14329280.73947  22905637.8974   22905644.1704
       148.000
  18971247.413   -40232078.90746 -31339501.13648  18971247.0694   18971251.7354
       215.000
  19336601.428   -36818492.58146 -28068020.50548  19336600.6004   19336605.9844
       210.000
  20636555.875   -22653930.61546 -17642488.25548  20636555.8004   20636560.5174
       187.000
  19587298.740   -28648208.50346 -21675899.11248  19587298.0664   19587303.3584
       212.000
  21824857.493   -13679247.35246  -9836930.01548  21824856.5174   21824862.3704
       165.000
  22808064.250   -18604300.91746 -14211781.89547  22808063.8564   22808069.7454
       149.000
  22645203.116   -10135838.51046  -7582552.09547  22645202.4724   22645209.0464
       151.000
 96  4 21  3 18 59.9940000  0  8 16 06 17 26 23 22 20 21
  22920336.875   -18344449.54546 -14269094.08147  22920336.0814   22920342.3154
       149.000
  18974035.391   -40217427.97346 -31328084.81048  18974035.0594   18974039.6834
       214.000
  19327705.217   -36865242.46946 -28104448.96648  19327704.3894   19327709.7864
       210.000
  20628382.444   -22696882.24746 -17675957.01848  20628382.3484   20628387.0704
       187.000
  19573089.776   -28722877.24946 -21734082.51648  19573089.0824   19573094.3334
       212.000
  21816208.875   -13724695.96146  -9872344.50548  21816207.9744   21816213.7394
       166.000
  22822861.174   -18526542.55246 -14151190.93347  22822860.7734   22822866.5634
       147.000
  22622996.579   -10252534.39246  -7673483.87247  22622995.9064   22623002.5754
       152.000
 96  4 21  3 19 29.9940000  0  8 16 06 17 26 23 22 20 21
  22935049.330   -18267134.82946 -14208848.83647  22935048.5774   22935054.8034
       148.000
  18976918.093   -40202279.24546 -31316280.59548  18976917.7634   18976922.4014
       214.000
  19318848.089   -36911787.01346 -28140717.42448  19318847.2704   19318852.6714
       210.000
  20620319.162   -22739254.95146 -17708974.68248  20620319.0704   20620323.7914
       187.000
  19558963.561   -28797111.03046 -21791926.98848  19558962.8824   19558968.1064
       212.000
  21807670.287   -13769566.54646  -9907308.58848  21807669.4254   21807675.1104
       166.000
  22837660.240   -18448772.70346 -14090591.03447  22837659.8974   22837665.7164
       147.000
  22600826.838   -10369036.67446  -7764264.78147  22600826.1344   22600832.7424
       152.000
 96  4 21  3 19 59.9940000  0  8 16 06 17 26 23 22 20 21
  22949763.427   -18189811.43146 -14148596.83947  22949762.7604   22949768.9924
       147.000
  18979888.119   -40186671.65546 -31304118.82448  18979887.7774   18979892.4224
       214.000
  19310019.849   -36958179.64846 -28176867.51048  19310019.0324   19310024.4374
       211.000
  20612356.664   -22781097.84146 -17741579.50148  20612356.5724   20612361.3054
       187.000
  19544911.883   -28870953.00446 -21849466.15548  19544911.1804   19544916.4034
       212.000
  21799228.810   -13813927.22546  -9941875.34048  21799227.9784   21799233.5524
       166.000
  22852448.265   -18371060.81546 -14030036.30247  22852447.8604   22852453.7814
       146.000
  22578680.583   -10485415.46246  -7854949.46347  22578679.9254   22578686.5104
       152.000
 96  4 21  3 20 29.9940000  0  8 16 06 17 26 23 22 20 21
  22964480.666   -18112471.45246 -14088331.90747  22964480.0214   22964486.4304
       146.000
  18982954.139   -40170559.45046 -31291563.85248  18982953.7954   18982958.4624
       214.000
  19301227.011   -37004386.36846 -28212872.72548  19301226.1894   19301231.6024
       211.000
  20604500.204   -22822383.66046 -17773750.23148  20604500.1224   20604504.9074
       187.000
  19530941.857   -28944365.80646 -21906670.90348  19530941.1614   19530946.3614
       212.000
  21790889.447   -13857750.94446  -9976023.66648  21790888.5824   21790894.1084
       166.000
  22867224.422   -18293411.66346 -13969530.46547  22867223.9504   22867230.0374
       147.000
  22556562.845   -10601644.58346  -7945517.51747  22556562.1964   22556568.7854
       151.000
 96  4 21  3 20 59.9940000  0  8 16 06 17 26 23 22 20 21
  22979207.104   -18035083.71046 -14028029.75747  22979206.5064   22979212.8194
       146.000
  18986121.412   -40153915.15046 -31278594.25348  18986121.0624   18986125.7544
       214.000
  19292473.765   -37050384.96246 -28248715.76048  19292472.9294   19292478.3394
       211.000
  20596755.549   -22863081.74446 -17805462.99348  20596755.4734   20596760.2334
       187.000
  19517057.258   -29017329.67646 -21963525.83248  19517056.5634   19517061.7654
       212.000
  21782654.735   -13901024.58846 -10009743.37548  21782653.8534   21782659.4454
       166.000
  22881986.712   -18215835.39346 -13909081.40147  22881986.2404   22881992.2654
       146.000
  22534476.736   -10717707.93646  -8035956.40847  22534476.0874   22534482.6754
       152.000
 96  4 21  3 21 29.9940000  0  8 16 06 17 26 23 22 20 21
  22993940.823   -17957657.63946 -13967697.76247  22993940.1574   22993946.4954
       145.000
  18989384.662   -40136766.54846 -31265231.70148  18989384.3034   18989389.0094
       214.000
  19283755.413   -37096200.08646 -28284415.83948  19283754.5754   19283759.9904
       211.000
  20589120.850   -22903202.17446 -17836725.63548  20589120.7784   20589125.5264
       187.000
  19503252.900   -29089872.01446 -22020052.29748  19503252.1994   19503257.4104
       212.000
  21774517.971   -13943783.27146 -10043061.80648  21774517.1054   21774522.7244
       166.000
  22896727.951   -18138369.50446 -13848718.35447  22896727.4554   22896733.4164
       146.000
  22512416.760   -10833633.78246  -8126288.15047  22512416.2284   22512422.5514
       153.000
 96  4 21  3 21 59.9940000  0  8 16 06 17 26 23 22 20 21
  23008683.875   -17880182.23046 -13907327.31047  23008683.2104   23008689.5394
       146.000
  18992739.744   -40119135.40346 -31251493.13048  18992739.3904   18992744.1184
       213.000
  19275071.584   -37141833.71346 -28319974.48648  19275070.7664   19275076.1714
       211.000
  20581591.920   -22942766.73846 -17867555.12848  20581591.8314   20581596.6414
       187.000
  19489530.458   -29161983.70346 -22076243.19248  19489529.7494   19489534.9474
       212.000
  21766475.690   -13986045.82746 -10075993.65248  21766474.7334   21766480.4944
       166.000
  22911445.550   -18061027.54546 -13788451.89847  22911445.0674   22911451.0614
       145.000
  22490387.727   -10949396.96346  -8216493.14247  22490387.1894   22490393.4294
       153.000
 96  4 21  3 22 29.9940000  0  8 16 06 17 26 23 22 20 21
  23023441.544   -17802630.08646 -13846897.05047  23023440.9044   23023447.0914
       145.000
  18996188.366   -40101012.39946 -31237371.29548  18996188.0534   18996192.7884
       213.000
  19266425.041   -37187271.73446 -28355380.71648  19266424.2124   19266429.6064
       211.000
  20574172.063   -22981758.53646 -17897938.31248  20574171.9674   20574176.7384
       187.000
  19475894.597   -29233640.30146 -22132079.47248  19475893.8894   19475899.0844
       213.000
  21758531.984   -14027789.78346 -10108521.38648  21758531.0624   21758536.8454
       166.000
  22926142.732   -17983793.51646 -13728269.52947  22926142.2324   22926148.3974
       145.000
  22468396.959   -11064958.76546  -8306541.21347  22468396.3134   22468402.6764
       153.000
 96  4 21  3 22 59.9940000  0  8 16 06 17 26 23 22 20 21
  23038215.170   -17724993.90146 -13786401.32647  23038214.4964   23038220.7484
       144.000
  18999727.865   -40082412.18646 -31222877.61248  18999727.5424   18999732.2674
       213.000
  19257815.661   -37232514.12946 -28390634.50648  19257814.8324   19257820.2184
       211.000
  20566862.947   -23020168.02746 -17927867.75548  20566862.8574   20566867.5954
       187.000
  19462346.375   -29304836.56746 -22187557.05248  19462345.6684   19462350.8644
       213.000
  21750686.419   -14069018.34646 -10140647.51648  21750685.4544   21750691.2914
       166.000
  22940824.282   -17906641.33546 -13668150.93047  22940823.8284   22940829.9954
       145.000
  22446447.565   -11180303.14446  -8396419.86447  22446446.9884   22446453.2744
       154.000
 96  4 21  3 23 29.9940000  0  8 16 06 17 26 23 22 20 21
  23052997.090   -17647314.36346 -13725871.80747  23052996.4824   23053002.5374
       144.000
  19003355.488   -40063348.85446 -31208023.05648  19003355.1514   19003359.8894
       213.000
  19249240.586   -37277576.41646 -28425747.95548  19249239.7594   19249245.1164
       211.000
  20559659.294   -23058023.10846 -17957365.19448  20559659.2354   20559663.9854
       187.000
  19448880.898   -29375598.16746 -22242695.93148  19448880.2004   19448885.3674
       213.000
  21742934.961   -14109752.03246 -10172388.02948  21742934.0804   21742939.9124
       166.000
  22955489.559   -17829574.80846 -13608099.10247  22955489.0854   22955495.2474
       145.000
  22424536.881   -11295444.03546  -8486139.95847  22424536.2774   22424542.5144
       154.000
 96  4 21  3 23 59.9940000  0  8 16 06 17 26 23 22 20 21
  23067779.040   -17569634.98646 -13665342.41647  23067778.4594   23067784.5124
       144.000
  19007068.614   -40043836.16946 -31192818.35848  19007068.2704   19007073.0064
       213.000
  19240694.982   -37322483.72846 -28460740.64348  19240694.1454   19240699.5024
       211.000
  20552556.054   -23095350.43046 -17986451.39148  20552556.0124   20552560.7584
       187.000
  19435493.601   -29445948.74246 -22297514.53148  19435492.8884   19435498.0394
       213.000
  21735273.736   -14150012.40946 -10203759.73048  21735272.8044   21735278.5874
       167.000
  22970137.019   -17752602.12646 -13548120.38447  22970136.4954   22970142.5694
       145.000
  22402660.382   -11410405.33946  -8575720.10647  22402659.8114   22402665.9914
       155.000
 96  4 21  3 24 29.9940000  0  8 16 06 17 26 23 22 20 21
  23082561.729   -17491951.26446 -13604809.65347  23082561.1954   23082567.2914
       143.000
  19010874.165   -40023837.76646 -31177235.17648  19010873.8364   19010878.5984
       213.000
  19232183.126   -37367213.43546 -28495594.93948  19232182.3074   19232187.6764
       211.000
  20545562.107   -23132103.71646 -18015090.28348  20545562.0344   20545566.8154
       187.000
  19422184.827   -29515886.59946 -22352011.53448  19422184.1324   19422189.2514
       213.000
  21727708.811   -14189766.49446 -10234736.92448  21727707.8914   21727713.5884
       167.000
  22984773.234   -17675688.23346 -13488187.48647  22984772.7834   22984778.8094
       145.000
  22380819.819   -11525178.00046  -8665153.26547  22380819.1714   22380825.3734
       156.000
 96  4 21  3 24 59.9940000  0  7 06 17 26 23 22 20 21
  19014775.101   -40003338.25546 -31161261.52148  19014774.7664   19014779.5244
       213.000
  19223708.098   -37411749.75946 -28530298.54548  19223707.2944   19223712.6764
       211.000
  20538679.035   -23168274.70746 -18043275.44648  20538678.9684   20538683.7054
       187.000
  19408951.896   -29585426.13346 -22406198.15148  19408951.1834   19408956.2824
       213.000
  21720244.161   -14228993.40246 -10265303.31748  21720243.2184   21720248.9924
       167.000
  22999400.792   -17598819.77046 -13428289.96847  22999400.4074   22999406.2674
       144.000
  22359013.103   -11639772.87846  -8754447.89547  22359012.4184   22359018.6174
       157.000
 96  4 21  3 25 29.9940000  0  7 06 17 26 23 22 20 21
  19018776.339   -39982311.30346 -31144876.87248  19018776.0154   19018780.7754
       213.000
  19215272.365   -37456079.75546 -28564841.37848  19215271.5554   19215276.9344
       211.000
  20531907.477   -23203859.37446 -18071003.72248  20531907.4064   20531912.1574
       188.000
  19395796.350   -29654558.99246 -22460067.87948  19395795.6304   19395800.7064
       213.000
  21712884.362   -14267669.37346 -10295440.42048  21712883.3844   21712889.1564
       168.000
  23014019.150   -17521999.69846 -13368430.17447  23014018.8064   23014024.7194
       145.000
  22337240.039   -11754190.90846  -8843604.71547  22337239.3814   22337245.5734
       158.000
 96  4 21  3 25 59.9940000  0  7 06 17 26 23 22 20 21
  19022870.322   -39960797.07146 -31128112.52548  19022870.0014   19022874.7704
       213.000
  19206868.496   -37500242.11546 -28599253.58048  19206867.6724   19206873.0484
       211.000
  20525240.520   -23238894.06046 -18098303.44448  20525240.4624   20525245.2024
       188.000
  19382714.592   -29723303.93346 -22513635.33648  19382713.8764   19382718.9434
       214.000
  21705626.358   -14305810.01746 -10325160.38148  21705625.4484   21705631.1484
       168.000
  23028622.057   -17445260.68846 -13308633.54247  23028621.7574   23028627.7734
       145.000
  22315496.820   -11868452.01446  -8932639.26447  22315496.1734   22315502.2684
       158.000
 96  4 21  3 26 29.9940000  0  7 06 17 26 23 22 20 21
  19027060.905   -39938775.55146 -31110952.89148  19027060.5804   19027065.3754
       213.000
  19198504.353   -37544195.92246 -28633503.28048  19198503.5334   19198508.9104
       211.000
  20518684.388   -23273346.69546 -18125149.61548  20518684.3404   20518689.0274
       188.000
  19369713.208   -29791626.44446 -22566873.62648  19369712.5074   19369717.5794
       214.000
  21698479.217   -14343368.57646 -10354426.76948  21698478.3264   21698483.9884
       168.000
  23043214.915   -17368574.76646 -13248878.28647  23043214.5954   23043220.4964
       146.000
  22293792.305   -11982509.87746  -9021515.45347  22293791.6494   22293797.7424
       159.000
 96  4 21  3 26 59.9940000  0  7 06 17 26 23 22 20 21
  19031347.645   -39916248.63146 -31093399.43148  19031347.3224   19031352.1004
       212.000
  19190179.513   -37587943.40746 -28667592.21048  19190178.6964   19190184.0754
       211.000
  20512234.627   -23307240.21046 -18151560.11748  20512234.5664   20512239.2334
       188.000
  19356797.229   -29859500.25546 -22619762.28048  19356796.5294   19356801.6114
       214.000
  21691443.725   -14380340.15046 -10383235.76648  21691442.8274   21691448.4614
       168.000
  23057795.531   -17291953.20746 -13189173.18447  23057795.0624   23057801.1004
       145.000
  22272128.560   -12096353.44646  -9110224.65047  22272127.9064   22272133.9284
       159.000
 96  4 21  3 27 29.9940000  0  7 06 17 26 23 22 20 21
  19035726.299   -39893238.58646 -31075469.51748  19035725.9714   19035730.7544
       212.000
  19181890.281   -37631503.69746 -28701535.27148  19181889.4444   19181894.8204
       211.000
  20505887.559   -23340593.95746 -18177550.01948  20505887.5204   20505892.1954
       187.000
  19343967.584   -29926920.20946 -22672297.28048  19343966.8814   19343971.9744
       214.000
  21684513.195   -14416760.29546 -10411615.08648  21684512.3154   21684517.9344
       168.000
  23072357.875   -17215427.82746 -13129543.03347  23072357.3304   23072363.3854
       145.000
  22250505.455   -12209983.31346  -9198767.33247  22250504.8064   22250510.8654
       160.000
 96  4 21  3 27 59.9940000  0  7 06 17 26 23 22 20 21
  19040196.480   -39869747.57846 -31057164.82148  19040196.1564   19040200.9304
       212.000
  19173635.300   -37674883.63446 -28735337.79748  19173634.4694   19173639.8574
       211.000
  20499644.908   -23373399.02746 -18203112.37648  20499644.9014   20499649.5464
       187.000
  19331224.425   -29993885.78446 -22724478.22048  19331223.7224   19331228.8004
       214.000
  21677686.072   -14452636.83846 -10439570.80348  21677685.1914   21677690.8734
       168.000
  23086901.059   -17139002.91346 -13069991.16247  23086900.5214   23086906.5564
       145.000
  22228923.253   -12323398.29546  -9287142.57848  22228922.6074   22228928.6254
       161.000
 96  4 21  3 28 29.9940000  0  7 06 17 26 23 22 20 21
  19044754.526   -39845794.84046 -31038500.34748  19044754.2014   19044758.9654
       212.000
  19165410.295   -37718106.32546 -28769017.80248  19165409.4734   19165414.8304
       211.000
  20493503.537   -23405672.01246 -18228260.12448  20493503.5134   20493508.1534
       187.000
  19318561.144   -30060431.69146 -22776332.14848  19318560.4394   19318565.4944
       214.000
  21670950.989   -14488029.75746 -10467149.68448  21670950.0934   21670955.8634
       168.000
  23101415.736   -17062727.87646 -13010556.09147  23101415.1434   23101421.2174
       145.000
  22207373.053   -12436645.05246  -9375386.73248  22207372.4464   22207378.4024
       161.000
